GFSGL_500_spd_000.txt.gz
Wind_Speed
58 58 59 59 60 60 61 62 62 63 64 66 69 71 74 74 74 76 77 76 78 79 76 77 76 75 77 76 75 70 69 66 61 62 58 57 57 60 54 47 49 48 49
57 58 59 61 62 64 64 65 67 69 70 71 72 73 75 77 79 79 79 81 82 84 84 82 73 65 67 77 77 74 66 61 59 63 55 56 58 57 52 47 50 52 52
62 63 64 65 66 66 68 70 71 71 71 71 72 73 75 77 79 80 79 80 82 84 86 88 87 84 81 81 80 81 73 70 69 61 52 54 59 58 57 49 47 49 48
69 69 69 69 69 68 68 68 68 69 71 73 75 77 78 78 80 79 78 77 81 83 82 81 80 81 82 81 79 78 72 66 58 57 51 57 53 59 54 51 50 49 50
73 74 74 74 74 74 72 72 73 73 72 72 73 76 78 80 81 81 82 83 84 82 78 75 76 75 75 75 74 73 67 60 55 59 55 55 54 54 54 52 47 48 48
76 78 78 76 73 71 70 72 72 74 75 76 77 80 79 80 81 81 82 83 81 80 81 77 76 75 72 70 67 64 62 57 53 55 47 54 55 55 50 49 48 50 48
80 77 75 76 76 75 71 71 74 75 77 79 80 79 79 79 78 78 79 80 81 82 81 80 77 74 72 70 65 65 61 55 53 54 57 54 55 51 52 46 48 43 42
78 77 75 74 74 75 75 76 78 79 80 79 80 79 77 75 76 79 79 79 79 78 79 79 78 75 71 69 66 62 58 55 54 56 57 54 49 52 52 47 48 42 38
75 73 74 75 77 79 80 79 80 81 80 79 78 77 75 75 73 75 77 78 78 78 79 77 75 74 69 65 62 53 48 50 49 45 43 45 49 48 46 45 47 42 36
74 74 76 76 74 75 76 72 70 71 71 71 72 71 71 72 75 78 81 82 81 80 77 73 69 67 63 58 53 48 46 42 39 44 44 42 43 42 42 40 44 37 39
76 77 76 74 73 70 68 68 69 70 72 72 74 76 78 80 81 83 85 85 81 77 73 69 62 57 52 47 49 46 37 44 41 41 42 38 41 39 40 37 37 34 38
72 69 67 66 66 67 69 70 73 77 79 80 81 81 80 82 84 80 75 70 66 64 59 58 52 42 41 46 51 47 42 36 37 38 38 37 36 37 33 32 28 32 31
61 61 61 62 67 71 74 78 80 83 86 86 85 84 80 75 73 70 64 59 56 53 50 46 40 36 41 43 43 45 40 35 38 34 34 26 22 22 24 29 24 24 32
59 62 66 69 72 76 79 81 82 82 83 81 79 76 72 68 66 63 57 53 49 45 41 43 43 41 40 38 39 46 38 36 32 22 28 22 17 21 16 22 21 22 32
66 69 72 74 77 79 80 82 82 80 79 76 72 69 66 62 59 56 51 48 44 40 36 40 42 41 38 33 34 39 32 30 22 23 21 23 21 19 21 22 21 24 28
73 76 78 81 83 85 86 82 80 76 69 62 59 59 56 53 51 46 43 42 38 34 32 37 38 35 29 27 30 34 26 23 24 24 19 14 21 19 17 22 23 24 28
79 81 83 85 88 88 87 83 76 61 51 48 45 44 44 45 42 39 37 34 32 30 30 32 32 26 20 20 28 29 28 22 29 21 19 20 18 15 15 20 24 27 31
84 86 88 90 89 87 81 72 61 54 46 37 38 39 38 39 38 35 32 29 29 29 28 27 23 18 17 20 24 29 21 18 16 16 14 19 14 19 13 19 24 28 34
89 90 90 87 82 76 66 56 50 47 43 39 35 34 35 35 34 33 30 24 28 28 25 23 20 19 10 11 20 20 16 15 14 13 16 18 16 17 17 20 25 30 33
90 87 82 77 70 59 51 48 47 45 41 39 38 37 34 32 32 31 29 22 28 28 23 23 24 26 16 7 20 20 14 15 15 23 25 21 15 13 18 22 26 29 33
83 76 70 61 54 48 47 46 44 41 40 39 37 35 34 30 29 27 25 22 28 29 23 24 25 26 15 10 18 21 14 11 14 15 19 21 17 16 18 22 24 28 28
71 63 54 49 45 46 44 43 41 41 40 38 34 31 32 30 27 24 22 21 30 30 24 22 22 24 18 12 15 18 11 4 5 9 15 16 11 13 15 18 23 23 24
54 51 46 44 44 43 41 39 39 36 35 33 32 29 29 29 26 23 20 21 31 31 24 21 22 24 19 15 12 14 8 4 5 11 14 11 10 10 13 16 16 20 23
51 45 43 43 41 40 40 38 39 41 41 35 28 25 25 26 24 22 19 21 32 32 23 22 24 23 20 17 13 13 6 12 12 15 14 9 7 8 10 10 15 20 19
44 43 45 44 42 40 40 39 40 42 39 33 29 25 24 25 21 21 19 21 33 32 25 24 25 22 21 21 13 12 13 17 16 12 11 7 3 5 5 11 16 15 14
47 47 44 42 41 41 40 39 40 41 33 27 24 25 24 24 20 19 18 22 35 31 28 25 26 22 22 24 15 16 18 18 10 9 8 4 2 2 10 12 11 14 16

GFSGL_500_spd_003.txt.gz
Wind_Speed
52 55 57 59 60 63 64 65 66 68 69 71 73 75 76 78 79 80 80 80 80 80 79 79 78 78 78 74 67 67 68 73 74 64 70 69 64 64 67 61 55 54 51
60 62 64 65 67 68 68 70 71 72 73 75 76 77 78 78 78 78 78 79 81 81 81 81 79 76 76 74 73 70 66 65 67 68 63 60 57 54 52 56 54 50 51
66 67 69 71 73 75 76 76 76 76 75 75 75 76 78 79 79 79 81 80 80 79 78 77 76 76 74 73 72 71 70 67 66 68 65 63 56 50 50 51 50 52 50
71 74 77 79 81 82 84 84 84 83 81 78 77 77 78 79 81 83 83 83 81 78 76 75 76 76 77 75 73 71 70 68 65 64 63 61 60 54 47 49 50 48 48
79 81 84 86 87 88 87 86 85 85 82 79 79 80 82 83 81 80 81 81 81 82 81 81 81 79 79 78 76 74 71 68 65 64 64 61 58 55 55 59 57 44 44
86 89 90 90 90 89 90 88 87 85 82 81 80 81 81 81 81 84 86 85 82 80 78 78 79 78 78 77 74 72 70 68 66 63 65 63 57 52 66 59 49 42 53
92 94 94 93 91 88 86 85 84 82 81 81 82 84 84 84 86 85 86 85 81 79 77 76 75 74 73 75 74 72 71 71 69 67 65 60 57 55 58 57 49 40 46
92 92 88 85 83 81 80 78 77 77 77 77 78 78 78 81 80 80 80 79 77 76 75 75 74 73 74 76 76 74 72 70 67 63 62 58 55 52 50 45 47 49 46
88 85 82 77 72 71 71 72 73 72 71 71 71 72 73 75 78 78 79 79 77 76 75 77 78 79 80 81 81 80 74 68 64 62 57 53 52 46 44 45 44 53 43
81 76 71 69 69 70 68 66 65 66 67 70 71 73 75 77 80 82 84 84 82 81 79 79 80 81 81 77 75 72 68 61 58 55 49 47 45 45 45 44 43 40 41
66 65 67 65 62 61 62 64 66 69 72 75 77 79 81 83 84 85 86 86 84 82 78 74 72 68 65 61 59 58 56 51 49 47 43 36 36 39 39 39 33 33 39
62 61 59 60 63 65 67 69 73 76 77 79 81 83 84 84 82 82 80 77 76 74 68 62 59 58 53 50 50 47 45 47 45 45 35 28 24 32 35 36 34 38 35
59 60 62 63 66 70 74 76 78 79 82 85 86 86 82 78 75 74 71 68 66 63 59 54 49 45 43 42 41 40 39 39 38 37 34 25 23 27 27 26 26 29 29
61 64 67 69 72 76 79 81 83 85 88 89 87 82 76 72 67 65 59 54 51 50 47 42 39 37 34 35 37 33 29 28 29 31 31 25 26 22 22 21 24 23 20
67 70 73 76 79 82 84 86 87 88 90 88 84 78 71 61 53 51 47 41 38 38 36 34 32 30 29 32 33 29 26 21 22 27 29 24 23 19 17 11 12 15 15
73 76 79 83 85 88 90 88 87 86 83 77 69 63 54 48 46 44 38 34 33 32 29 26 26 26 27 30 29 26 25 18 20 26 24 21 22 25 18 19 15 16 12
79 83 86 89 91 92 91 89 85 75 67 59 50 46 45 41 40 39 36 33 32 28 25 23 25 24 24 24 22 19 19 15 23 18 17 19 20 22 18 21 11 8 15
86 89 90 90 89 86 81 75 70 63 53 40 40 40 38 35 36 35 33 32 30 27 23 23 23 21 20 19 15 11 15 13 19 16 15 18 20 16 18 20 13 13 16
89 89 87 83 78 73 66 59 53 47 42 39 36 33 33 33 35 36 33 31 25 23 22 23 21 18 18 18 16 11 8 12 13 10 15 13 12 13 19 11 13 13 15
85 79 74 65 60 55 52 48 44 43 41 37 33 32 30 31 33 32 31 29 24 20 18 22 20 20 17 17 12 7 10 12 6 12 11 11 10 15 16 11 10 14 21
73 62 57 58 56 52 44 43 43 41 38 35 31 30 30 32 30 27 25 25 22 18 15 22 20 18 15 16 9 3 9 8 7 8 11 13 12 14 7 5 11 16 21
58 56 57 52 47 44 44 46 43 40 38 36 31 32 34 33 30 24 22 20 19 15 16 23 20 17 14 13 6 4 6 6 9 11 10 14 16 9 4 7 12 16 19
56 56 51 46 45 47 48 46 43 41 40 38 34 34 33 29 27 22 19 16 16 12 21 24 21 18 16 10 6 11 7 10 15 14 19 15 8 3 2 7 13 15 18
57 50 46 47 48 48 47 44 43 42 41 39 35 35 31 27 23 19 17 14 13 10 25 24 23 19 16 11 12 13 10 20 23 22 18 13 7 4 5 8 10 13 11
48 47 48 48 47 45 43 43 42 40 37 33 30 30 25 24 22 18 15 12 12 14 28 27 25 23 18 14 16 17 23 28 26 19 13 8 8 6 7 7 9 12 14
49 49 49 47 44 43 41 40 41 40 38 34 30 27 20 19 17 17 13 11 12 24 31 31 28 26 20 17 17 25 32 28 20 14 9 11 10 10 9 13 16 16 19

GFSGL_500_spd_006.txt.gz
Wind_Speed
53 56 59 61 63 65 66 69 72 75 78 81 83 85 86 88 88 89 88 88 88 87 85 84 83 82 81 78 77 77 76 74 72 69 63 61 61 61 59 59 56 52 48
59 62 64 66 68 70 74 77 80 83 86 89 91 93 93 92 90 89 88 88 87 86 85 84 81 80 79 78 78 77 76 73 73 72 65 58 56 55 54 55 53 56 48
64 66 68 70 73 77 81 84 87 91 94 96 97 96 96 95 93 89 88 87 86 84 82 79 79 78 75 74 74 75 73 73 72 71 69 62 59 57 56 53 50 52 49
68 70 74 78 81 84 87 91 95 98 99 98 95 93 92 90 90 88 89 87 84 81 81 79 77 76 76 73 73 73 72 71 70 68 67 63 60 55 55 52 51 51 48
74 78 80 82 85 90 94 97 100 101 99 98 96 93 89 84 79 77 76 76 73 72 72 72 71 72 72 72 74 72 72 70 68 67 65 63 59 56 55 53 52 51 49
80 81 84 88 92 96 98 98 97 94 94 92 87 80 75 73 72 72 72 71 69 71 70 69 69 70 70 71 72 71 68 67 65 65 64 62 59 57 56 56 54 50 52
82 87 90 94 96 96 92 89 88 84 78 73 71 71 70 69 69 70 71 72 73 74 74 73 71 72 73 73 71 70 69 69 70 69 68 63 62 59 58 58 56 54 51
87 91 94 95 91 86 82 78 72 69 67 65 64 65 66 68 71 74 77 79 80 80 81 80 79 77 78 80 77 74 72 72 72 72 72 67 65 61 60 58 56 54 51
91 94 92 85 80 75 70 67 66 64 64 66 68 70 72 74 77 79 82 82 83 84 84 82 79 76 75 77 77 75 73 70 70 68 66 63 59 57 56 55 53 50 45
92 86 79 74 70 67 66 65 65 67 69 72 74 79 81 82 83 85 87 88 87 86 82 78 73 70 69 67 68 67 66 65 62 58 53 51 52 51 50 49 44 41 39
78 72 70 68 68 67 66 68 69 72 76 79 81 84 87 88 88 89 89 88 86 83 77 71 66 63 62 60 60 58 56 54 49 48 44 45 46 46 46 39 38 36 34
71 68 67 67 68 69 70 73 76 80 83 86 89 91 91 90 90 90 88 85 80 75 69 62 57 52 50 48 47 44 43 42 42 38 39 35 32 33 32 30 27 28 35
66 66 66 66 69 73 75 78 82 88 92 94 95 95 92 89 85 81 77 73 66 59 53 51 48 43 40 38 35 33 34 35 34 30 26 24 23 22 27 28 22 27 33
66 67 68 69 72 76 81 87 91 94 97 97 95 91 85 77 70 66 62 55 47 43 41 41 44 38 33 28 26 27 28 29 25 21 22 21 20 21 28 24 24 23 27
66 68 70 74 79 84 87 91 92 92 90 87 81 75 70 61 53 50 47 41 34 32 31 32 33 32 28 23 22 23 22 20 18 17 20 21 16 21 27 18 17 17 18
69 72 77 82 86 89 90 88 81 74 69 67 61 58 52 49 45 43 40 32 29 29 30 28 27 27 24 19 18 15 14 16 18 17 17 15 19 23 21 18 11 15 13
74 78 82 86 89 88 84 78 67 59 59 54 52 49 48 45 42 40 35 29 30 30 29 26 24 22 18 14 12 11 13 13 14 11 11 14 19 16 15 14 14 19 16
78 83 86 86 82 76 68 61 64 58 46 41 46 46 41 38 37 36 34 30 30 30 26 24 20 14 14 13 9 6 3 11 5 5 10 11 11 12 12 14 21 20 11
81 83 83 76 68 63 62 61 57 49 46 46 45 39 37 35 34 34 35 32 28 24 21 19 15 11 15 11 8 8 5 0 4 5 8 6 8 10 13 19 21 16 9
81 81 74 69 65 64 64 59 51 48 49 50 44 39 36 33 31 35 37 33 28 23 17 14 8 15 13 10 10 7 6 7 8 7 9 12 6 13 16 16 12 8 9
80 73 70 69 66 63 56 51 49 50 50 46 40 37 37 36 32 34 31 28 25 20 12 9 13 16 13 10 11 3 4 11 12 14 15 15 14 15 11 5 2 6 10
76 69 66 62 57 53 51 52 51 50 48 45 42 39 38 35 31 34 26 22 20 15 6 6 17 15 13 13 6 2 10 15 18 19 16 16 16 12 6 1 3 7 11
70 61 60 58 56 55 53 53 51 48 45 43 38 34 31 28 28 29 20 17 16 9 4 16 17 14 14 10 4 6 14 17 19 18 20 18 11 6 4 3 5 9 12
65 60 59 56 56 55 53 49 46 44 41 37 37 34 29 24 25 21 14 13 11 4 12 20 18 17 15 9 8 14 18 23 26 25 19 12 8 6 5 7 10 11 12
60 57 56 55 55 53 48 46 43 40 37 38 35 29 23 21 19 14 9 9 4 9 23 22 20 21 13 12 16 23 28 30 26 20 15 11 9 9 13 14 14 17 19
57 56 55 55 54 50 47 45 42 39 36 34 29 23 21 19 12 8 6 4 7 18 27 24 25 20 15 20 29 32 31 28 22 18 15 13 16 20 19 18 19 20 22

GFSGL_500_spd_009.txt.gz
Wind_Speed
47 51 55 59 63 66 67 68 71 75 78 80 83 86 90 96 100 103 105 105 104 102 97 94 92 92 90 88 84 78 77 74 76 74 71 67 65 63 60 58 58 58 60
53 58 62 65 67 68 71 74 78 80 83 86 88 94 98 101 103 104 104 102 99 93 87 82 78 77 76 73 72 72 72 72 74 73 64 65 63 58 58 57 55 56 57
62 65 67 70 72 75 78 80 81 82 86 91 95 98 100 102 102 100 98 92 85 76 72 70 68 68 67 67 67 68 69 68 69 71 70 63 61 60 58 58 56 54 53
65 69 72 74 76 77 78 80 83 89 94 98 100 99 98 96 93 87 80 76 71 68 66 66 65 66 67 67 68 68 69 69 68 69 69 64 61 59 62 59 58 56 53
68 70 72 73 75 77 82 88 93 97 101 100 96 93 90 85 77 74 71 70 68 67 67 69 69 71 74 75 75 73 75 75 73 71 69 65 61 57 56 55 56 54 50
69 69 70 74 79 85 90 94 98 101 98 92 87 83 77 73 70 70 71 71 71 73 75 75 76 77 79 80 79 79 80 80 76 75 72 69 62 60 57 57 57 56 54
69 72 76 81 87 91 97 100 100 94 87 83 79 76 72 70 71 72 76 78 79 80 82 83 83 85 85 84 82 81 80 79 79 76 74 69 66 63 62 60 60 60 56
74 78 83 87 92 97 100 97 90 84 80 78 76 75 74 75 77 79 83 85 88 90 91 91 90 88 86 84 80 76 73 71 68 67 69 66 62 60 60 58 57 56 53
78 84 89 95 99 97 91 83 79 76 75 75 76 76 77 79 84 89 94 97 98 97 95 91 89 85 83 81 76 70 65 61 59 56 56 56 55 50 50 53 53 54 50
85 91 96 99 95 87 80 75 73 74 75 76 77 81 85 89 93 98 101 101 99 95 91 84 78 74 70 68 65 62 58 53 48 44 46 46 45 43 43 45 47 47 46
89 95 95 87 80 74 71 71 72 75 78 82 86 90 93 96 95 93 89 88 84 80 73 65 59 55 53 52 50 51 50 46 38 35 34 35 36 36 37 40 44 44 35
93 90 83 76 70 69 69 73 78 84 88 91 94 93 91 85 77 74 71 67 62 58 51 43 41 40 40 41 39 40 40 38 31 26 24 23 25 28 30 33 32 30 27
87 80 73 67 65 68 73 79 85 90 93 93 91 85 73 67 64 61 60 56 51 47 43 40 38 37 36 34 34 33 33 29 23 19 15 14 17 21 25 28 28 24 18
80 73 67 64 65 71 78 84 89 92 90 84 76 71 68 59 55 57 55 49 44 39 35 32 32 33 33 31 28 27 25 20 17 12 11 13 18 22 25 23 20 14 16
72 67 64 64 69 75 81 87 89 85 80 76 73 72 61 52 54 55 48 45 42 38 33 31 31 31 30 29 25 20 15 12 9 9 11 14 18 21 15 10 13 17 21
69 65 64 67 72 78 84 85 82 76 71 71 73 67 56 54 55 53 47 42 36 37 34 33 31 28 26 23 16 8 7 6 7 9 14 12 16 17 9 3 11 15 14
65 63 65 70 76 81 86 86 78 68 66 64 62 55 53 54 52 48 43 36 38 39 35 31 27 23 21 13 4 6 5 4 7 15 15 9 10 9 11 12 13 11 12
64 66 69 74 78 83 86 81 70 65 58 54 52 53 53 50 46 42 41 37 37 37 36 27 23 20 13 4 7 6 4 6 15 20 5 8 10 12 10 12 9 13 18
64 67 71 75 80 84 84 73 65 61 58 56 54 52 50 45 44 43 41 39 36 34 33 23 18 14 4 7 5 4 4 12 17 6 5 6 9 10 11 9 13 20 20
65 69 74 77 81 84 79 66 62 59 58 56 53 49 44 41 38 37 35 32 32 29 27 16 14 4 8 6 3 1 8 13 5 6 3 8 11 9 9 12 17 19 15
66 70 75 78 81 82 72 61 60 59 58 55 50 45 41 35 35 34 28 26 27 24 16 10 5 9 7 2 3 5 12 5 5 7 10 16 16 16 14 12 10 9 11
69 73 76 79 82 77 67 60 59 58 57 51 46 40 34 37 34 30 26 25 18 16 8 5 10 9 5 6 0 9 6 5 11 16 17 17 14 10 7 6 8 8 8
70 74 77 80 80 70 61 57 56 55 51 46 42 33 35 32 26 22 23 19 12 7 4 10 11 8 8 3 4 5 8 16 17 18 15 10 6 4 2 6 5 5 8
72 75 78 80 74 64 57 55 53 52 47 43 36 34 32 26 20 19 17 11 7 3 7 15 12 13 6 1 3 14 20 21 19 15 10 4 5 11 8 9 11 12 15
73 76 80 78 67 57 53 53 52 49 42 39 33 29 27 21 19 16 10 7 2 6 17 17 16 10 3 6 19 25 24 21 17 10 10 17 15 13 12 12 15 19 19
75 79 79 70 59 54 52 51 51 43 42 42 34 26 22 18 16 8 5 2 7 14 21 20 15 7 11 26 28 26 22 18 16 25 24 21 17 18 19 19 19 19 18

GFSGL_500_spd_012.txt.gz
Wind_Speed
41 44 47 51 55 59 64 67 71 74 76 78 81 83 86 89 93 95 100 104 105 104 100 98 95 89 80 70 67 65 65 67 71 64 65 64 67 67 66 65 65 67 67
44 49 53 57 61 65 68 71 72 75 77 79 82 86 89 94 100 102 104 104 101 96 89 84 78 73 68 66 65 63 65 66 69 69 61 60 62 64 67 66 65 64 62
51 57 59 63 65 68 69 73 75 77 79 83 87 92 97 101 103 102 99 93 89 83 79 75 72 70 68 68 69 70 72 73 75 77 72 69 67 65 64 64 64 63 63
60 61 63 65 69 71 73 74 78 81 84 89 94 98 102 101 97 92 86 81 79 78 76 75 75 75 75 74 75 78 81 82 82 83 83 79 76 71 71 68 63 63 62
61 63 66 69 71 73 76 79 82 85 90 95 99 100 99 90 84 81 78 77 77 76 76 77 79 81 82 83 84 84 88 90 90 90 90 87 83 78 77 74 71 63 58
63 65 67 71 74 76 79 82 86 91 96 99 99 94 85 78 77 77 79 80 81 83 85 86 88 90 92 93 94 95 96 96 94 92 89 86 79 75 70 69 70 67 58
65 68 71 74 76 80 83 88 92 96 97 95 89 80 76 75 79 83 87 90 91 92 93 93 93 92 93 94 93 93 92 88 87 85 81 76 70 66 63 62 62 63 59
69 72 74 76 80 83 88 93 95 95 93 86 78 74 76 81 87 91 92 92 90 86 83 79 75 76 77 78 78 78 75 72 69 67 65 64 61 57 53 52 51 53 55
72 74 76 79 83 88 92 94 93 90 83 74 72 76 83 88 92 92 88 82 76 72 69 64 67 67 65 62 62 61 57 52 51 49 49 50 52 47 44 43 42 45 47
73 76 79 83 88 92 93 91 88 81 73 71 75 82 89 92 88 81 75 74 69 60 58 58 58 60 58 54 52 50 46 41 38 34 35 38 41 39 34 34 34 37 39
75 79 83 88 91 92 90 85 78 72 72 75 79 86 92 90 79 73 72 67 60 57 53 51 52 52 50 47 44 42 40 36 31 28 24 27 30 27 23 24 28 31 31
78 82 87 90 90 89 84 76 72 72 74 79 83 88 90 79 73 70 67 58 58 58 52 50 49 47 45 43 41 41 39 36 29 21 17 15 15 14 17 20 22 25 26
81 86 88 88 88 82 76 72 71 74 78 82 87 90 83 71 66 63 57 54 56 53 47 43 46 44 41 41 42 40 35 28 23 15 7 7 10 12 14 19 23 26 22
84 87 89 87 80 74 72 73 74 76 80 84 88 88 75 67 63 59 54 53 52 46 42 40 45 44 41 41 38 36 30 23 12 4 1 3 6 10 16 21 19 15 13
87 89 88 80 74 71 71 73 74 77 82 87 89 82 72 66 63 60 57 54 50 45 43 41 43 41 36 36 35 32 23 10 4 5 4 4 7 13 17 12 10 10 8
89 86 80 75 72 70 71 70 73 77 80 85 82 72 68 68 65 60 54 53 49 47 43 40 41 36 32 30 28 20 8 5 7 7 11 12 8 11 11 10 7 5 7
83 79 76 72 70 70 71 72 71 72 78 81 72 64 65 64 61 56 53 51 50 47 40 38 37 31 28 27 15 4 7 11 14 18 24 18 3 13 9 4 0 6 7
78 74 72 69 69 70 70 72 74 75 77 76 63 61 60 59 55 51 50 47 42 40 34 35 31 25 23 11 3 7 11 14 19 24 21 5 7 6 6 5 7 7 4
72 68 67 66 67 69 70 73 75 77 80 73 59 57 56 51 49 45 42 42 41 32 30 28 24 19 8 2 5 9 14 19 24 15 6 4 5 6 7 6 6 6 11
66 65 66 66 67 69 71 74 76 79 79 65 57 54 51 46 41 39 41 38 30 29 25 22 16 9 2 4 8 13 19 24 14 12 10 6 4 3 2 5 9 11 12
64 64 65 66 68 70 73 75 78 80 74 57 52 52 46 41 39 40 35 28 28 25 20 15 10 4 5 7 11 17 23 13 15 18 18 20 17 14 11 8 7 8 10
62 63 64 65 68 71 75 78 80 78 65 51 48 45 39 36 35 33 27 26 27 18 14 10 7 9 7 8 14 19 12 18 19 18 18 17 12 7 2 2 3 5 7
62 62 64 66 70 73 76 80 80 69 54 47 47 38 36 35 31 27 25 23 20 15 9 8 12 10 5 11 14 14 20 19 19 19 14 11 12 14 13 10 8 8 10
62 64 66 69 72 75 79 81 71 56 48 45 42 37 39 32 26 23 22 17 14 8 8 15 12 6 10 12 20 23 21 21 18 16 19 18 14 12 12 13 15 16 15
64 67 70 71 74 79 81 72 56 46 43 43 38 39 31 21 18 17 13 11 7 8 17 15 7 9 17 23 25 24 25 27 22 23 22 19 17 17 17 16 14 13 11
69 70 71 75 80 80 69 54 45 42 41 37 36 28 21 13 11 12 5 6 8 18 18 11 10 20 26 27 30 33 28 29 31 28 23 22 21 19 19 20 21 21 20

GFSGL_500_spd_015.txt.gz
Wind_Speed
35 37 41 45 49 55 58 62 66 69 72 74 75 76 78 81 84 86 90 94 96 97 100 100 98 95 89 84 80 79 79 81 84 75 71 65 64 63 60 59 59 58 58
39 44 49 53 56 60 64 67 69 71 73 74 76 79 82 85 88 92 94 95 97 100 98 93 86 81 79 79 80 80 81 81 85 85 77 72 72 70 68 65 65 63 62
47 51 54 58 61 65 67 69 70 72 74 77 80 83 86 90 93 95 95 99 100 95 89 84 84 87 87 87 87 88 88 88 88 91 89 82 80 78 77 74 72 71 68
53 56 58 62 64 65 67 69 72 75 78 81 84 87 92 94 95 97 99 96 90 84 84 88 90 89 88 86 87 88 89 91 92 95 96 94 91 87 87 85 82 80 76
56 59 61 64 66 69 70 73 75 78 81 84 88 92 93 95 96 95 92 87 83 84 89 91 88 84 82 80 79 78 78 77 77 79 81 85 88 90 90 89 90 86 81
59 61 64 67 69 71 73 76 77 80 84 88 91 92 94 93 90 86 84 84 85 89 91 85 79 76 74 69 67 69 72 74 74 75 72 71 71 72 71 75 77 75 72
62 65 67 69 71 73 75 77 79 83 86 90 91 93 89 85 81 80 83 84 87 91 85 78 72 69 64 63 64 62 63 63 64 64 58 52 51 49 53 53 57 58 59
65 68 69 70 72 74 76 79 82 85 88 91 91 88 81 78 79 81 82 85 88 84 76 71 67 60 61 65 62 60 56 53 52 50 49 46 44 41 41 40 41 43 45
68 69 69 70 72 74 78 82 84 86 89 88 86 82 78 77 78 80 84 87 84 74 68 66 60 59 61 62 60 56 51 48 46 46 44 43 42 36 35 32 30 34 32
68 68 69 71 73 77 81 83 85 87 87 85 80 79 77 76 78 82 87 87 75 68 64 61 58 59 58 56 56 55 50 48 45 38 37 37 37 33 29 25 22 23 23
66 67 69 72 76 79 81 83 86 87 84 80 76 75 75 78 79 83 86 77 70 65 62 59 55 54 52 51 54 56 51 46 40 38 31 27 28 26 20 16 13 16 15
66 67 71 75 78 81 83 86 86 84 80 75 73 71 73 76 79 84 80 70 67 66 62 57 53 49 49 49 52 53 47 42 38 33 28 22 14 12 9 8 13 18 13
65 69 73 76 80 84 86 85 83 79 74 72 72 72 72 76 79 83 74 67 65 63 59 54 50 47 47 46 48 47 42 39 32 23 13 9 10 10 12 12 11 15 15
68 71 74 79 83 85 85 83 78 73 71 72 73 73 74 76 81 79 68 65 62 61 54 48 46 43 41 43 44 40 38 29 15 9 9 10 9 9 11 12 15 15 7
71 74 79 82 85 84 82 78 73 69 71 72 74 76 76 77 81 73 67 63 61 58 49 42 42 36 34 37 35 33 22 12 14 13 11 11 14 12 13 13 6 6 2
75 79 83 85 85 83 79 71 67 67 69 72 75 76 77 81 78 66 62 60 57 49 43 44 38 33 34 28 24 14 11 13 15 20 24 24 11 12 8 2 3 2 3
79 83 86 87 85 81 73 67 63 64 67 70 73 75 78 81 68 60 60 55 48 48 45 38 34 33 26 20 10 10 12 18 25 30 23 9 7 4 4 6 4 5 3
83 86 88 86 81 74 67 65 65 66 67 68 70 74 79 72 58 57 53 46 46 41 35 35 31 25 17 10 9 12 18 26 27 16 13 9 5 4 5 5 7 6 6
87 87 84 79 72 67 65 66 67 68 69 70 70 76 74 58 49 49 45 42 38 33 34 30 23 14 9 9 11 19 27 20 16 16 14 13 8 5 5 5 8 12 14
86 83 78 70 65 64 65 66 67 69 70 72 76 77 62 46 44 38 39 37 34 32 30 22 13 9 10 10 17 24 16 19 21 21 20 18 17 17 17 15 12 9 7
82 74 68 63 63 64 66 68 70 71 73 77 77 62 48 41 41 36 37 31 29 27 21 11 9 10 8 16 22 17 17 18 19 20 21 19 16 14 11 8 5 2 2
74 67 63 62 63 66 68 71 72 75 79 77 60 45 40 41 36 36 29 25 23 18 9 9 11 10 13 15 17 17 17 19 21 17 11 8 7 8 7 6 4 4 4
65 63 62 63 65 68 70 72 75 80 74 56 44 38 37 34 34 26 19 18 15 9 11 10 10 12 13 19 18 19 21 21 17 14 13 12 12 11 10 10 9 9 10
62 62 63 65 67 70 72 75 79 67 52 42 38 36 33 31 22 14 14 10 8 13 12 10 12 17 19 21 23 23 20 17 18 18 17 16 15 13 11 9 8 7 5
62 64 66 68 69 72 76 75 59 47 39 36 34 32 28 20 13 10 7 8 15 15 12 12 21 21 26 25 23 21 18 19 19 19 19 21 21 20 19 17 12 8 4
64 67 69 70 73 76 67 50 42 38 35 33 32 26 19 13 7 7 8 16 18 14 14 23 24 28 25 25 24 21 22 22 23 26 26 27 27 28 30 29 28 29 29

GFSGL_500_spd_018.txt.gz
Wind_Speed
32 33 35 39 44 48 52 55 58 62 65 67 69 71 73 76 79 82 85 88 91 94 97 99 100 100 100 99 97 94 94 97 100 90 88 80 83 87 87 87 82 77 72
34 37 41 46 50 53 56 60 63 65 68 70 72 74 77 79 82 85 88 92 94 97 99 100 100 100 96 93 91 92 92 90 90 89 82 78 72 72 77 85 89 87 81
40 44 48 51 55 58 61 64 66 69 71 73 75 77 80 82 85 88 91 93 96 98 99 99 97 94 89 87 89 88 85 83 81 79 71 68 64 61 66 69 72 77 87
46 49 52 56 60 63 65 67 70 72 73 74 77 79 81 84 86 89 92 95 97 98 96 94 91 87 86 88 85 80 78 76 72 70 70 67 64 62 66 69 71 70 74
49 53 57 60 63 66 68 70 72 73 74 77 78 80 83 85 88 92 95 97 97 95 93 89 83 85 86 84 78 74 72 69 67 70 69 65 62 61 60 61 63 62 61
53 57 61 64 67 69 71 71 71 73 76 76 79 82 83 87 91 94 97 97 94 90 85 79 82 85 83 75 70 69 69 66 68 67 62 60 57 58 57 56 54 50 46
58 62 65 69 70 71 70 70 72 73 75 78 81 84 87 90 93 94 94 90 85 82 80 80 81 83 75 69 66 66 63 63 61 60 61 58 57 56 55 51 46 44 37
62 66 70 71 70 69 69 71 72 74 77 80 84 87 90 94 94 91 86 81 78 79 81 82 83 75 69 67 65 61 58 56 56 57 61 59 57 53 52 48 41 34 26
67 71 71 68 67 68 70 71 73 76 80 84 88 91 92 91 88 83 80 76 76 77 80 84 76 69 67 65 63 58 54 51 52 55 57 53 52 49 46 40 32 25 15
70 70 66 65 67 68 70 72 75 80 84 89 91 93 92 88 81 76 75 75 76 77 80 78 68 67 65 61 59 57 53 50 49 49 44 45 46 41 38 34 27 12 2
68 64 65 65 66 68 71 74 79 84 88 91 92 92 88 82 75 72 73 77 79 78 80 69 65 63 59 54 53 55 52 47 46 41 38 35 31 26 22 23 24 13 6
62 62 63 64 66 69 73 79 85 90 92 92 90 87 81 73 71 71 74 77 79 82 72 61 58 55 48 46 49 46 43 43 36 29 22 18 16 18 18 19 19 15 12
59 60 61 65 69 74 79 85 91 93 93 91 87 79 72 69 68 72 74 75 79 76 62 56 50 48 47 45 40 40 37 27 16 15 17 17 18 16 16 17 17 17 16
58 61 64 69 75 81 87 92 93 93 90 84 77 70 67 67 70 73 74 76 77 63 55 50 51 47 41 36 36 32 19 12 14 14 14 17 18 20 21 18 17 15 12
61 65 70 75 82 87 90 92 92 89 84 76 70 68 68 69 72 74 77 79 67 54 49 48 42 38 36 33 27 15 12 16 20 26 31 24 18 18 16 13 10 7 5
66 71 77 82 87 90 92 91 88 80 71 68 69 71 71 73 74 77 80 73 52 48 45 40 39 35 28 20 10 14 20 24 31 31 19 10 10 10 9 7 7 7 7
72 78 83 88 91 92 92 88 80 70 66 66 69 71 73 75 78 81 74 54 45 42 41 37 33 27 17 8 12 17 24 29 20 15 13 12 10 9 8 9 10 9 8
78 83 88 91 92 92 88 79 71 66 65 67 69 72 75 79 81 70 54 41 37 38 35 31 25 15 7 12 19 25 21 15 15 15 14 13 12 10 9 9 11 12 12
83 88 91 93 93 87 77 70 66 67 69 70 72 74 80 77 63 48 39 36 33 30 28 23 13 7 11 17 24 15 14 14 15 17 18 17 15 14 15 15 16 16 14
88 91 93 92 85 75 68 66 68 70 71 73 76 80 71 54 42 37 34 31 27 23 21 10 5 10 15 21 11 13 13 14 15 16 16 16 15 15 15 15 14 12 11
92 93 91 84 73 67 67 69 71 72 73 76 77 64 49 40 37 34 31 23 17 16 8 4 9 14 17 10 11 12 12 13 15 15 11 9 8 6 5 4 5 5 3
92 91 83 71 67 67 70 71 73 75 78 74 56 43 38 37 34 29 18 13 11 5 3 8 13 12 9 10 11 13 14 14 12 10 10 10 9 7 6 5 4 4 3
89 80 70 66 67 70 71 73 76 78 68 50 41 35 34 32 24 16 12 8 4 5 8 11 10 9 9 11 12 13 13 12 13 13 13 12 11 10 9 8 6 5 5
77 68 66 66 69 72 73 77 74 59 45 38 34 33 31 21 15 10 6 4 8 10 10 10 10 10 12 13 14 15 16 18 20 20 21 21 21 18 13 9 6 5 4
66 65 66 69 71 73 76 65 50 44 37 33 32 29 22 14 7 4 3 8 11 11 12 11 13 13 14 17 19 20 21 21 20 20 20 21 22 23 23 20 16 15 13
63 64 67 70 71 73 57 48 46 38 32 30 28 23 15 4 2 3 9 13 12 14 15 16 15 17 19 20 20 21 21 20 19 18 17 18 19 18 19 20 21 19 16

GFSGL_500_spd_021.txt.gz
Wind_Speed
33 33 34 36 39 43 47 51 53 57 60 63 67 70 72 75 76 77 79 82 84 86 89 92 95 99 102 105 108 107 105 103 102 95 89 83 79 80 79 79 76 71 68
33 34 37 40 45 48 51 54 58 62 65 69 72 74 75 75 77 79 81 83 86 89 92 96 99 104 107 107 105 102 98 93 92 92 85 81 75 69 67 66 66 67 69
34 38 43 46 48 51 55 59 63 67 71 74 75 75 75 76 78 80 83 85 88 93 97 101 104 106 105 102 99 94 89 89 88 89 83 74 68 64 63 64 66 65 63
40 43 47 49 51 56 60 64 68 72 75 75 74 74 77 78 80 82 85 88 92 95 100 103 103 102 99 96 90 86 86 87 85 80 75 69 67 60 62 62 60 59 56
42 46 50 52 56 61 65 69 73 75 74 72 73 74 75 77 80 84 90 94 98 101 101 100 99 96 91 86 85 84 85 84 77 72 68 67 63 59 58 58 62 56 50
46 49 53 57 62 66 70 75 76 72 70 71 71 73 75 81 88 92 97 100 101 100 99 96 91 85 82 81 82 84 82 77 72 69 65 63 59 57 57 59 58 53 45
48 53 57 62 67 71 75 75 70 68 68 70 72 76 82 88 93 97 101 101 99 97 93 88 82 78 79 81 82 79 72 70 67 64 60 59 57 56 58 55 50 48 41
52 57 62 67 71 75 70 66 66 67 69 72 77 84 89 93 97 101 101 97 93 88 83 80 79 77 79 83 79 70 66 64 60 55 56 53 53 55 55 50 45 36 28
57 61 66 71 73 66 63 64 66 69 73 78 84 89 93 98 101 99 95 90 83 79 77 76 78 79 81 77 69 65 60 54 52 52 49 48 50 52 51 43 30 23 14
62 66 70 68 61 61 62 66 69 74 78 84 90 94 97 99 97 91 86 81 78 74 72 74 77 81 76 64 62 59 58 54 48 41 42 44 44 37 32 29 24 19 10
66 68 61 58 59 62 65 69 73 79 85 92 94 96 98 96 87 80 75 74 74 73 73 74 77 74 61 56 56 53 49 44 41 37 30 25 23 23 26 26 23 18 8
63 56 55 57 61 64 69 74 80 86 92 95 97 98 97 87 77 71 70 72 75 77 76 77 73 57 51 50 47 46 44 39 30 21 21 24 26 28 28 26 24 23 19
53 54 56 60 64 69 74 80 85 91 95 97 100 97 85 74 69 70 71 73 76 78 80 73 54 45 45 45 45 41 33 23 19 22 24 28 33 33 31 29 27 21 18
53 56 59 64 69 73 79 85 92 96 97 100 94 84 74 69 69 71 74 77 78 80 70 49 41 41 40 43 37 31 21 23 26 30 34 29 25 22 18 14 12 11 9
55 59 64 69 74 79 85 91 96 98 100 92 80 74 72 70 72 77 80 82 78 63 44 37 36 36 36 33 28 22 25 31 34 29 22 18 14 13 12 11 11 10 9
60 64 69 74 79 85 90 93 97 99 91 80 73 72 72 75 78 80 82 71 52 41 37 33 32 33 29 21 17 22 30 26 21 20 16 14 12 12 13 13 11 10 11
63 68 73 79 83 89 93 96 97 91 80 73 71 73 76 79 82 80 65 47 41 38 32 31 30 27 18 16 22 24 16 19 16 17 18 18 16 15 16 14 13 13 13
68 74 79 83 88 92 96 97 94 84 74 69 72 76 79 82 74 58 47 40 36 33 32 26 24 16 14 20 19 15 16 16 16 16 16 17 16 15 14 14 15 16 16
73 78 83 87 90 95 96 94 83 74 71 73 76 80 79 65 51 44 40 37 33 28 23 21 13 13 18 16 15 14 13 12 12 14 16 15 14 13 12 13 14 15 15
78 82 86 88 92 95 95 83 74 70 74 77 81 73 57 46 40 38 36 31 23 21 18 11 12 17 13 14 14 14 13 14 15 15 15 14 14 13 12 12 13 12 11
82 85 87 90 94 93 84 74 69 72 75 79 65 54 49 41 39 35 26 20 18 16 10 11 15 12 14 13 13 13 13 14 14 15 14 13 11 9 8 6 4 3 3
84 85 88 92 92 83 73 69 70 73 77 62 54 49 41 39 35 26 21 18 13 8 9 13 11 13 12 14 15 15 16 16 16 15 15 14 11 10 10 8 8 7 5
84 87 90 90 83 72 67 69 72 76 63 55 49 41 37 34 26 20 18 13 7 8 11 12 13 13 14 14 15 15 15 15 16 19 20 20 20 15 8 6 6 5 4
86 89 88 81 71 66 67 70 74 64 56 49 41 35 32 26 20 15 11 5 7 11 12 13 13 13 14 14 14 14 15 15 15 18 19 19 22 25 18 10 7 5 4
88 87 81 70 65 66 68 73 62 55 49 39 32 30 26 21 12 8 4 6 11 13 12 12 13 14 14 15 16 15 15 16 16 15 15 15 14 17 19 18 16 15 13
86 78 69 64 65 67 71 59 53 47 39 30 27 26 21 9 5 4 6 12 13 12 12 13 15 16 16 17 17 18 19 20 19 17 12 12 14 17 17 18 18 18 18

GFSGL_500_spd_024.txt.gz
Wind_Speed
34 35 37 37 38 39 41 45 49 51 54 57 61 65 69 72 73 74 74 75 77 78 81 85 89 96 100 104 107 108 107 107 108 100 95 90 84 82 81 82 83 79 74
34 36 37 37 39 42 45 48 51 55 59 62 67 71 73 73 72 73 73 75 77 81 87 93 97 102 105 108 108 106 104 100 99 97 88 83 82 78 77 76 73 70 68
36 38 38 40 43 46 48 51 55 59 64 68 72 73 72 71 71 71 73 76 83 89 94 99 104 107 108 106 102 99 95 92 88 89 86 82 80 78 74 67 65 62 61
38 39 41 43 46 49 51 56 60 65 69 73 72 70 68 68 70 74 79 84 90 96 101 103 106 106 102 97 93 89 88 86 84 85 84 81 76 67 68 65 60 54 53
39 41 43 45 49 51 56 60 65 70 74 71 67 66 67 70 76 82 86 91 96 99 101 105 104 97 90 87 85 83 82 83 82 83 81 73 65 61 58 55 55 51 47
41 42 44 47 52 56 60 65 70 73 68 64 64 67 70 76 82 87 93 98 102 103 106 102 93 87 82 79 78 78 79 82 84 78 71 64 60 60 57 55 51 47 41
41 43 47 51 56 60 65 70 71 64 62 63 66 71 77 84 89 94 99 102 105 105 98 90 82 78 77 75 75 75 77 79 69 68 66 63 59 56 53 49 46 42 37
43 46 51 55 59 64 69 66 62 61 63 67 73 79 85 90 95 99 104 107 104 95 85 80 76 73 73 76 77 78 78 64 58 58 57 54 51 50 47 37 30 23 18
46 50 54 58 63 67 61 59 60 63 68 74 79 84 89 94 100 106 107 105 95 83 77 73 73 74 76 79 81 78 63 52 51 52 52 50 48 38 33 29 26 17 13
50 54 58 63 65 58 58 60 64 69 74 78 82 88 92 99 104 109 105 95 86 79 72 72 74 79 81 80 72 57 48 47 48 42 38 34 31 33 35 37 34 24 17
52 57 63 61 57 58 60 65 69 74 77 82 87 91 98 104 108 103 92 85 80 76 75 76 79 80 72 59 46 45 45 45 35 28 26 31 34 37 41 44 44 38 24
56 60 55 55 57 60 64 69 73 78 82 86 91 96 102 108 103 90 81 77 77 81 81 80 71 58 47 41 41 41 39 28 23 28 33 36 39 39 36 31 26 20 16
55 51 53 56 59 64 67 72 77 83 87 92 96 102 105 104 89 80 77 78 81 82 75 60 49 43 40 39 38 34 23 24 30 35 32 26 24 21 17 17 20 18 17
49 51 54 57 62 66 71 77 82 87 91 96 100 105 105 91 80 77 80 81 75 63 50 43 40 38 39 36 28 22 27 32 30 27 25 21 18 18 19 18 19 18 19
50 53 57 62 65 70 76 82 87 92 97 100 103 105 96 80 76 82 80 67 55 46 41 39 36 34 30 23 21 27 30 24 24 21 20 19 19 19 18 17 17 16 15
52 56 61 65 70 74 80 84 90 94 97 101 100 92 79 77 83 74 62 52 46 43 40 35 30 27 19 17 23 22 20 19 20 20 21 20 19 18 18 18 17 16 18
56 59 64 69 74 79 84 89 91 93 97 98 88 77 74 80 71 63 55 46 46 41 35 28 25 17 17 23 17 18 15 17 18 17 18 19 19 19 18 17 16 17 19
59 63 68 73 79 84 88 92 95 97 97 88 73 71 76 69 61 56 47 46 40 33 27 23 16 18 21 15 16 15 16 16 17 18 19 19 18 16 16 16 16 17 17
62 68 73 79 83 87 91 93 95 95 90 76 68 72 68 57 53 47 46 40 30 25 20 15 17 18 14 16 16 16 16 17 18 18 18 18 18 17 17 17 16 17 17
68 73 79 83 86 88 91 93 93 88 75 67 72 69 57 49 41 40 38 29 25 20 14 17 17 15 15 15 15 17 18 19 20 20 19 18 16 14 13 12 12 12 13
73 78 82 85 87 89 91 92 86 73 66 70 69 59 50 40 37 37 29 24 18 14 17 14 15 14 15 17 19 19 18 18 18 19 19 19 18 15 13 11 9 6 5
77 81 84 86 88 90 91 85 73 65 67 68 57 52 40 35 35 30 23 18 13 14 11 13 14 16 18 18 17 16 16 16 19 22 22 22 22 16 12 9 9 9 5
81 83 84 86 88 89 82 71 63 64 67 57 53 41 31 32 29 21 16 12 13 10 12 14 16 17 16 15 14 15 16 18 19 20 18 16 24 24 16 9 7 6 5
82 83 85 86 88 81 70 62 61 65 55 51 42 32 28 27 19 14 10 10 9 12 15 16 16 15 17 16 17 20 21 20 19 15 16 16 18 19 18 16 14 12 9
81 84 86 88 79 68 61 59 63 52 49 40 34 26 25 18 10 7 7 8 12 14 16 17 17 18 20 22 23 23 24 23 19 15 12 14 17 17 18 18 16 16 16
83 87 86 78 67 60 58 62 51 46 38 33 27 22 17 7 6 5 8 12 14 16 18 18 19 21 23 25 25 26 25 23 18 12 11 13 15 16 19 21 22 20 19

GFSGL_500_spd_027.txt.gz
Wind_Speed
33 35 36 37 38 40 41 41 43 47 49 52 55 59 62 66 69 70 68 67 68 70 74 79 84 90 95 101 106 110 113 113 112 103 96 92 87 86 83 83 85 82 81
34 35 36 37 40 41 42 44 46 48 52 55 59 63 67 70 69 66 66 68 71 75 81 86 92 97 102 107 110 112 110 104 101 97 86 82 78 73 72 74 78 79 77
35 37 38 40 41 42 44 46 48 52 55 60 64 67 69 66 64 66 68 72 77 83 89 94 100 105 109 111 111 107 99 93 88 86 82 74 72 73 73 74 70 63 63
37 38 39 40 40 43 46 47 51 55 60 64 68 67 64 64 67 69 74 80 85 90 96 101 105 110 113 112 103 95 89 85 81 79 78 75 74 75 73 65 58 60 60
37 37 39 40 42 46 47 51 55 60 63 67 65 63 65 67 71 77 82 86 91 96 100 105 110 114 108 98 91 85 82 79 78 79 79 79 76 64 58 56 55 49 46
37 39 40 44 47 47 51 55 59 63 66 62 62 64 67 73 79 83 88 93 98 101 106 110 115 107 94 87 81 79 80 82 83 84 81 71 56 55 55 54 46 39 34
39 41 44 44 46 50 54 58 61 63 60 61 64 68 73 78 82 88 92 97 100 105 110 114 104 93 86 79 76 79 81 81 75 68 56 49 50 52 44 33 24 27 28
41 43 43 46 49 54 56 61 59 58 60 63 67 73 77 82 88 94 97 101 105 110 114 104 92 84 80 82 83 80 70 56 47 43 46 46 44 35 31 29 29 28 27
38 41 45 49 52 55 60 56 56 58 62 67 73 76 81 88 94 98 102 106 110 113 102 89 86 86 85 79 69 56 46 40 40 40 40 37 33 38 42 41 42 38 29
40 44 47 50 55 57 54 55 57 61 67 72 76 81 87 93 98 102 108 112 111 101 86 85 83 77 65 51 48 43 40 38 34 29 27 31 38 42 44 41 34 25 22
43 46 48 54 53 52 53 57 60 66 70 74 79 86 91 97 101 106 110 110 96 86 85 78 67 55 46 43 40 39 36 29 23 28 32 33 30 28 28 28 27 26 21
45 48 52 50 49 52 56 61 65 68 72 78 84 90 95 99 103 107 107 91 83 84 73 63 51 44 40 37 36 32 24 27 29 25 25 26 24 24 25 25 26 27 24
47 49 46 48 51 55 60 64 68 73 79 85 90 93 97 101 105 107 90 78 80 69 61 50 45 39 35 32 29 22 27 24 23 25 24 24 23 22 23 25 25 24 24
45 44 46 50 55 59 64 67 73 79 84 89 93 96 100 104 106 92 78 78 65 57 48 45 37 32 30 24 23 28 24 24 22 23 24 23 23 23 23 22 22 23 25
43 45 49 54 57 61 66 71 77 84 89 93 97 100 103 103 90 78 77 64 57 48 45 35 29 26 20 23 28 23 22 22 22 22 22 21 22 23 23 23 22 22 26
44 49 53 57 60 64 70 76 83 88 92 95 98 101 101 87 77 75 63 54 47 44 33 27 23 17 21 22 18 20 19 19 20 20 20 20 21 21 22 22 23 23 24
48 52 56 60 63 69 75 80 85 88 92 95 98 99 87 73 74 64 53 44 43 33 28 22 18 22 20 16 17 17 17 18 19 20 21 21 20 20 21 20 20 22 23
51 55 58 63 69 75 80 84 87 90 92 95 96 84 71 71 64 54 42 40 32 31 23 18 22 18 16 15 17 18 19 21 23 23 23 22 20 18 18 18 19 20 21
54 57 63 69 74 79 82 85 89 93 96 95 81 67 68 60 53 41 38 32 27 21 17 21 15 16 15 18 21 21 21 19 18 20 23 23 22 19 16 15 14 15 17
57 62 68 73 78 81 84 87 91 95 93 79 67 65 60 53 38 33 30 24 19 16 19 15 16 17 20 20 19 18 16 16 20 21 22 23 24 21 17 12 10 10 11
62 68 74 79 81 83 86 90 94 90 78 65 63 61 55 42 31 29 21 16 14 19 16 15 19 20 20 18 18 18 18 19 20 21 21 20 26 23 14 10 6 5 4
67 73 79 81 82 85 90 93 90 77 64 60 58 52 45 31 28 20 15 13 16 13 14 18 18 18 19 19 20 21 22 22 21 18 17 18 21 21 17 11 8 5 2
73 78 81 82 84 89 92 89 75 63 59 58 51 43 33 27 20 13 12 14 12 15 17 18 18 20 21 21 21 20 19 18 15 13 16 17 18 19 17 16 12 7 4
77 79 81 83 88 91 90 74 60 59 58 49 42 34 26 21 10 9 11 10 14 16 18 19 21 22 22 22 23 22 20 18 13 13 12 17 18 19 19 17 16 14 11
77 80 83 87 90 89 72 60 59 58 48 41 33 27 20 9 6 8 9 13 16 18 19 21 22 23 24 26 28 27 23 17 12 11 13 16 18 20 21 21 20 18 15
79 83 87 89 88 71 61 60 57 47 40 32 27 18 10 4 7 9 13 17 17 18 20 21 24 26 28 30 31 29 23 18 15 14 15 17 18 19 20 22 21 20 18

GFSGL_500_spd_030.txt.gz
Wind_Speed
30 32 34 37 38 39 40 42 44 45 46 47 51 54 55 58 63 67 70 67 66 67 70 75 79 84 88 94 99 104 109 115 120 116 117 114 107 102 97 95 92 87 84
31 34 36 37 37 39 41 43 45 45 47 52 54 54 58 62 67 67 64 64 67 70 76 80 84 90 95 101 107 111 116 119 124 122 109 96 89 82 80 80 80 80 81
31 33 35 37 39 40 42 44 46 48 51 52 54 58 62 66 65 63 64 67 71 77 81 86 93 99 104 109 113 118 122 121 112 103 95 85 80 79 77 78 78 77 76
32 34 37 39 40 41 43 46 48 51 51 54 58 62 66 63 62 63 67 72 77 81 88 95 100 106 110 114 120 123 116 103 96 93 91 87 85 82 80 76 67 58 52
33 36 38 39 40 42 44 47 50 50 54 58 61 64 61 61 64 68 72 77 82 88 95 100 105 110 114 121 120 106 97 95 93 88 81 75 67 60 53 45 40 42 43
35 37 38 39 41 42 46 48 50 53 58 62 63 60 61 64 68 73 78 81 89 96 100 105 110 114 119 112 97 93 91 84 70 64 55 48 44 45 43 40 30 27 23
34 36 38 41 43 46 46 48 54 56 61 60 59 60 64 68 74 78 83 89 94 101 106 110 114 116 104 92 88 81 68 55 52 49 45 46 43 38 30 30 35 36 35
34 37 39 40 42 44 48 52 54 60 58 57 60 64 69 74 78 83 88 94 100 105 109 114 112 97 88 83 75 61 48 45 44 44 42 37 34 37 41 38 32 24 24
36 38 41 41 44 47 51 54 58 55 56 59 64 69 73 78 84 89 96 100 104 107 112 106 91 86 77 69 57 47 42 41 37 33 35 39 41 38 36 30 25 23 19
37 40 41 43 47 51 53 56 53 54 58 62 68 73 77 84 91 96 100 105 106 110 100 84 80 73 63 54 48 43 38 29 27 32 32 31 31 29 30 33 32 28 26
38 40 43 47 49 53 53 52 53 57 62 67 72 77 84 90 94 99 103 107 109 99 82 75 67 59 52 46 42 36 27 30 29 25 24 24 26 28 28 28 29 27 24
40 43 45 48 52 50 49 53 57 61 66 71 76 82 87 91 96 100 105 106 96 82 75 64 55 51 42 37 32 25 30 24 22 22 24 26 25 25 26 26 27 29 32
41 43 47 49 47 48 52 56 61 66 69 74 79 84 88 93 98 103 105 92 79 74 62 52 50 40 33 30 24 27 20 19 21 23 23 23 24 23 24 26 28 28 32
42 46 46 45 48 51 55 59 64 68 74 79 84 87 92 96 102 106 91 75 71 60 49 44 37 32 26 25 26 22 20 21 20 21 23 23 23 24 24 24 25 25 27
44 44 44 47 50 53 58 62 67 74 81 85 89 93 96 100 102 90 74 69 60 47 42 36 31 23 26 26 22 21 21 20 21 23 23 24 24 23 24 23 24 26 28
43 43 45 48 52 56 60 66 74 80 85 89 91 95 99 100 86 73 67 60 48 42 35 28 22 26 22 19 20 22 21 23 25 26 26 25 24 24 22 23 23 25 25
41 44 47 50 54 59 65 71 76 82 87 89 93 98 99 83 72 67 60 46 41 35 27 22 26 21 22 19 22 22 23 22 20 21 22 23 24 22 21 20 21 21 23
42 45 49 53 58 63 69 75 80 84 87 90 95 98 81 69 67 60 49 37 35 31 22 25 22 22 20 23 23 21 19 16 19 21 23 23 26 23 19 17 17 18 18
44 48 52 57 62 67 74 79 82 87 90 92 94 78 66 65 58 51 37 34 27 21 23 21 21 21 22 20 19 18 18 19 20 22 24 24 26 26 17 13 13 13 13
46 51 56 62 67 74 78 81 85 89 91 92 77 64 61 56 49 35 33 26 20 21 18 19 21 18 19 19 20 21 24 26 26 24 22 22 22 25 21 13 12 9 8
51 56 62 67 72 77 80 83 88 91 91 76 63 62 57 49 36 29 22 16 17 18 19 18 18 21 22 23 25 26 25 25 23 19 17 19 20 22 19 13 10 6 4
56 61 66 71 75 78 81 86 91 91 77 63 60 55 47 39 28 22 13 14 14 15 16 19 20 21 22 23 24 24 24 21 17 13 15 17 19 19 16 14 10 8 5
60 65 70 74 77 80 85 90 90 77 63 60 55 45 38 28 21 10 10 11 12 16 18 20 21 23 25 25 24 21 18 14 9 10 15 17 18 19 18 16 14 10 6
64 69 73 76 79 83 89 91 78 64 61 54 45 38 28 20 8 7 7 9 13 17 19 21 24 27 30 30 26 19 14 10 10 12 12 14 17 20 19 19 16 12 10
68 72 75 77 82 88 89 78 63 61 54 45 36 27 17 6 3 4 7 10 14 17 21 24 26 29 31 32 24 16 13 13 14 13 15 16 17 21 20 18 16 14 11
70 73 76 82 87 89 76 62 60 53 46 35 25 16 6 3 5 8 10 11 14 19 22 24 29 31 34 35 27 18 17 16 14 13 14 18 19 21 21 18 18 15 17

GFSGL_500_spd_033.txt.gz
Wind_Speed
29 29 32 33 34 36 39 41 42 45 46 47 48 49 52 55 57 58 61 64 69 67 66 68 71 76 81 85 91 97 103 112 118 117 122 124 124 121 114 108 104 99 95
29 29 30 32 35 36 38 41 44 46 46 47 49 51 55 55 58 61 65 69 66 66 68 72 77 82 86 92 98 106 112 118 125 129 122 110 102 95 92 90 87 87 86
28 29 31 33 35 37 40 43 44 45 47 48 51 54 54 58 61 66 66 65 66 70 74 78 82 88 93 101 107 113 118 123 122 112 101 94 87 75 68 62 59 56 56
29 30 32 34 37 39 41 43 45 46 49 52 54 54 59 61 66 65 65 67 70 75 79 84 90 96 103 108 114 120 124 114 101 93 87 76 62 55 52 49 44 46 45
28 31 33 36 38 40 42 43 46 49 52 52 54 58 61 66 63 64 67 70 75 79 85 91 97 102 108 114 120 118 104 93 85 75 62 54 52 52 46 39 36 34 34
30 32 34 37 39 40 41 45 47 48 50 53 57 60 66 63 64 67 70 74 80 85 91 96 101 107 114 119 110 95 87 78 66 59 53 53 45 42 43 43 39 34 29
31 33 36 37 38 40 43 46 47 49 53 57 60 64 61 63 66 70 74 80 85 92 97 102 107 113 116 102 88 80 68 58 57 53 47 41 43 43 37 31 28 27 28
31 34 35 37 40 42 45 47 49 53 56 60 62 60 62 65 69 74 79 85 92 97 102 107 113 110 94 86 77 63 53 50 46 42 41 42 37 35 33 32 30 26 27
31 33 36 38 42 44 45 48 52 55 60 59 58 61 64 68 73 79 87 92 96 100 105 111 103 90 81 74 63 51 43 39 35 38 37 36 33 32 33 30 28 27 24
32 35 38 40 41 44 48 50 54 58 55 56 60 63 67 72 79 85 91 95 98 102 108 95 83 77 68 59 51 39 33 29 33 28 29 29 30 31 33 34 34 31 29
35 37 38 40 43 46 49 53 54 53 55 57 60 65 73 79 83 93 96 99 103 105 91 79 72 62 53 47 39 31 29 30 25 24 25 26 28 30 32 33 35 37 35
35 37 40 42 44 47 52 51 51 53 55 58 63 70 77 83 90 95 98 102 103 89 76 70 59 47 43 39 30 30 30 26 25 24 24 26 27 29 29 31 31 34 38
36 38 41 43 47 49 49 49 51 54 57 62 67 73 80 85 92 99 100 101 85 74 69 60 46 41 37 29 34 28 25 23 22 24 27 28 28 28 27 28 30 31 35
36 39 41 45 47 47 48 50 53 56 61 67 72 79 83 90 98 100 101 84 73 68 60 45 40 35 29 34 28 28 26 25 25 25 28 29 29 29 28 26 26 26 29
38 42 43 46 46 47 49 52 56 62 67 72 79 84 88 96 100 102 85 71 68 60 44 38 34 28 33 29 30 26 28 29 29 27 25 25 28 29 29 25 24 25 26
40 43 44 44 45 47 50 55 61 67 73 79 84 88 94 99 100 83 69 66 60 45 38 31 27 29 25 27 26 32 30 27 24 23 25 25 26 27 29 25 20 19 21
41 43 43 44 46 49 54 58 63 71 78 82 86 91 97 99 82 68 64 58 47 38 30 25 27 24 27 28 27 24 23 24 24 26 27 28 28 26 27 24 18 14 17
41 41 43 45 49 53 58 63 69 74 79 83 89 95 97 79 68 64 56 47 37 31 26 25 26 27 27 25 26 25 27 28 29 31 30 27 25 23 26 24 17 10 12
40 41 44 48 52 57 62 68 73 78 82 86 93 97 80 66 64 56 47 36 27 23 24 25 25 24 26 27 28 28 28 27 26 25 22 21 22 23 24 21 15 10 8
41 43 47 52 57 61 67 71 77 81 86 92 96 82 67 60 52 43 34 25 21 22 23 21 23 26 27 28 29 30 30 28 25 21 18 21 21 22 20 18 15 12 8
43 46 51 56 60 66 71 76 80 84 90 95 80 68 61 52 41 30 21 17 18 19 20 23 24 26 28 30 30 31 31 26 19 13 16 18 19 21 19 18 15 11 7
46 51 55 60 66 71 75 78 83 90 95 80 66 59 51 42 30 19 14 14 13 16 19 22 27 29 32 32 29 26 23 18 12 13 14 16 19 21 21 19 16 12 7
50 55 60 65 69 73 77 83 90 93 80 65 58 50 41 28 18 11 10 10 14 16 21 26 29 32 33 30 24 20 18 14 13 12 15 18 21 23 21 18 16 13 9
55 60 64 68 73 76 81 89 92 79 65 57 50 39 26 15 8 6 6 9 12 17 22 27 30 31 28 25 22 20 17 15 14 17 19 20 22 23 20 18 16 15 13
60 64 68 71 76 81 88 90 76 63 56 49 38 25 14 5 2 3 6 8 13 17 23 27 30 32 29 26 23 20 18 15 16 18 20 20 22 20 17 17 14 13 13
64 67 71 75 80 88 88 75 62 55 47 38 27 15 5 1 3 5 7 10 13 17 22 27 30 33 30 27 25 23 22 21 20 20 20 22 21 20 20 18 15 16 16

GFSGL_500_spd_036.txt.gz
Wind_Speed
31 31 31 31 31 31 32 34 37 39 42 45 47 48 49 51 54 56 58 59 62 65 70 69 70 72 75 79 83 88 92 99 104 98 107 112 118 121 114 107 102 95 82
31 31 31 30 29 30 33 35 38 41 44 46 47 49 51 53 56 56 58 62 66 70 69 69 72 75 79 84 89 95 100 105 111 115 115 114 109 98 89 84 68 61 62
30 30 29 29 30 32 34 37 39 42 45 46 47 50 52 53 54 58 62 66 70 68 69 72 75 79 85 90 94 99 106 111 116 118 112 99 85 76 60 54 55 50 49
29 28 29 30 31 34 36 38 40 43 45 46 49 50 51 54 58 62 66 69 66 68 70 73 78 86 92 97 101 107 113 115 110 103 91 78 62 51 48 42 45 48 46
28 28 29 31 32 34 37 39 41 44 46 48 51 52 54 58 62 66 67 65 67 69 73 78 87 92 97 104 110 114 112 102 93 82 70 54 49 41 44 41 36 33 35
25 26 29 32 33 35 38 40 42 45 47 50 51 54 59 62 66 65 64 66 69 74 78 83 92 100 106 110 113 107 94 85 76 63 49 43 40 41 35 33 33 32 30
25 28 31 33 34 37 38 41 44 46 48 51 54 58 61 65 62 63 64 68 72 78 84 91 99 105 111 112 103 87 75 66 59 47 38 41 37 36 33 31 30 30 34
27 29 31 33 35 37 40 43 46 47 50 53 56 61 62 60 61 63 67 71 78 85 92 100 105 109 109 100 86 72 55 50 45 38 42 37 34 33 34 32 32 28 30
27 30 32 33 36 38 42 43 46 49 52 55 60 58 58 60 62 66 71 77 85 90 98 105 110 110 97 84 71 53 46 41 35 41 38 35 35 35 35 34 33 34 30
28 30 32 34 38 41 42 45 48 50 54 57 56 57 58 61 66 72 77 84 89 95 103 109 108 94 79 69 54 44 36 33 38 34 34 34 35 35 37 37 37 35 36
28 31 34 37 38 41 43 46 49 53 55 54 54 58 61 66 71 77 83 89 94 102 108 105 89 75 67 52 44 36 35 37 30 33 31 31 32 33 35 37 38 38 37
31 33 35 37 40 42 45 48 51 51 51 53 55 59 65 71 77 82 88 93 101 107 102 84 73 64 50 43 36 34 33 30 32 30 30 32 32 32 30 34 34 34 36
31 34 35 38 40 43 47 49 50 50 52 54 58 63 69 74 80 86 91 99 104 99 81 71 62 48 41 36 33 32 30 31 30 30 34 32 30 29 29 30 33 29 31
32 34 36 38 42 44 48 47 48 50 53 58 62 67 73 79 84 90 97 103 97 80 67 60 45 39 34 33 32 31 32 33 32 28 25 25 26 29 31 31 30 25 21
33 35 38 41 42 45 45 47 49 53 57 62 66 72 78 83 88 96 102 96 81 68 58 44 36 31 33 32 35 35 34 30 30 30 30 31 33 33 34 32 32 25 18
35 38 39 42 44 44 46 49 53 57 62 67 73 78 83 88 95 99 91 77 67 57 45 32 29 32 30 31 30 30 33 32 33 33 34 33 31 29 28 28 29 23 16
36 38 41 43 43 45 48 51 55 62 67 73 77 82 87 93 98 89 74 65 56 44 34 28 30 30 29 30 31 32 32 33 32 32 31 29 26 25 24 24 26 22 15
37 40 42 42 44 47 50 55 59 64 69 74 80 84 92 94 86 74 62 53 44 33 28 28 29 29 31 32 34 34 34 34 33 30 27 24 22 23 25 25 22 18 12
39 40 40 43 45 49 53 58 64 70 75 79 83 91 93 83 72 63 53 43 29 26 25 26 28 30 32 34 36 37 35 33 28 22 18 18 20 23 25 23 22 14 9
38 40 42 44 49 53 58 64 70 74 78 82 90 93 84 70 60 51 41 27 23 22 22 24 28 31 35 38 38 34 29 24 19 15 15 18 20 21 23 24 21 15 10
39 41 44 48 52 58 63 69 73 77 81 89 92 85 71 59 50 37 23 17 16 18 22 26 30 33 34 34 29 25 22 19 16 15 16 17 20 23 24 22 20 16 10
40 43 47 52 58 63 67 72 75 79 87 92 82 66 58 50 36 22 13 11 12 16 22 26 29 29 30 27 26 24 21 19 17 16 16 19 22 24 22 19 19 16 12
42 46 52 56 61 66 70 74 78 84 91 81 65 55 48 35 23 12 8 8 13 18 23 27 29 29 27 25 24 23 20 17 18 20 23 24 24 23 19 16 16 14 13
47 52 56 61 65 69 73 77 84 90 81 62 54 46 33 22 11 6 5 8 14 20 23 27 29 30 30 28 27 26 24 24 24 24 23 24 24 23 21 18 15 13 12
51 57 61 64 68 72 76 83 88 77 60 52 44 33 20 10 4 4 6 11 16 20 23 26 29 32 33 35 35 35 34 32 30 28 27 28 28 27 23 17 13 13 13
57 61 64 68 72 76 82 87 75 58 51 43 32 20 8 2 4 5 9 11 15 20 22 24 28 29 32 34 35 36 38 38 37 34 31 31 33 33 26 21 17 16 11

GFSGL_500_spd_039.txt.gz
Wind_Speed
34 31 31 32 33 32 32 33 33 33 34 36 40 43 47 49 52 53 55 56 56 58 62 65 69 70 69 71 73 75 79 85 91 88 98 102 110 116 117 113 103 92 80
33 33 33 32 32 33 34 33 32 33 35 39 43 46 49 51 52 54 55 56 58 63 65 69 69 69 71 72 75 80 89 94 100 102 104 111 113 107 96 83 74 63 60
34 34 33 33 33 34 32 32 32 34 38 42 45 48 50 52 54 55 56 59 63 66 70 69 69 70 72 76 83 87 93 102 109 115 114 107 94 80 67 55 50 47 49
34 33 33 34 34 31 31 32 34 37 40 44 46 49 51 53 55 56 59 62 65 68 67 69 70 74 77 83 88 94 103 110 115 116 104 84 68 52 45 41 41 41 40
33 32 33 33 30 30 31 34 37 39 43 45 48 50 52 54 56 59 61 65 66 65 67 69 73 77 83 89 96 104 111 114 111 97 79 63 48 39 42 38 35 33 34
31 32 29 28 29 30 34 36 38 41 43 46 49 51 53 56 58 61 65 64 64 66 68 73 78 84 90 95 103 112 114 104 89 74 58 47 38 42 35 31 33 31 27
28 26 26 28 31 33 35 37 39 42 45 47 50 52 55 57 60 63 63 63 65 68 73 78 83 89 95 102 109 109 94 80 70 55 44 37 41 37 32 30 30 30 30
24 26 28 30 32 33 36 38 41 43 47 48 51 54 56 59 61 61 62 64 68 73 78 84 89 95 102 109 108 92 75 64 51 45 39 43 38 34 34 32 31 29 28
24 26 28 30 32 35 37 40 43 45 47 50 52 55 59 59 59 61 63 67 72 77 83 89 95 100 106 105 91 74 59 46 41 38 39 35 37 36 36 35 36 35 29
23 26 28 31 33 36 39 42 43 46 48 50 55 57 57 58 60 63 67 71 76 82 89 95 101 105 100 85 73 58 42 37 35 36 35 35 35 37 39 40 41 38 35
24 27 29 32 35 38 39 42 43 46 49 53 54 55 56 58 62 67 72 77 82 87 93 100 103 95 80 69 54 41 34 33 34 33 34 34 39 38 39 37 38 40 38
25 28 31 34 36 38 40 42 45 49 50 52 52 55 58 62 67 71 76 82 87 92 98 100 92 75 63 51 40 33 35 33 34 35 35 36 32 31 32 34 35 36 39
27 29 31 34 36 39 41 45 46 48 49 51 53 56 61 65 70 75 80 86 91 96 96 88 72 59 47 38 34 36 34 35 33 31 30 31 32 32 32 32 34 33 36
27 29 32 35 38 40 43 44 47 48 49 52 55 59 63 69 74 79 84 88 94 96 86 69 56 44 36 35 36 36 34 32 32 32 30 32 33 33 33 30 28 27 28
29 32 34 37 39 40 43 45 47 48 51 54 58 62 68 73 79 85 89 96 100 92 66 53 40 34 35 35 35 36 36 36 35 36 34 33 32 31 31 29 27 26 25
32 35 35 36 38 41 44 46 47 50 53 58 63 69 74 79 84 89 95 98 87 63 50 35 31 31 31 33 35 37 39 39 38 36 33 30 27 25 24 26 27 25 22
33 33 35 38 41 43 44 46 48 54 59 63 68 74 79 84 89 94 96 78 59 47 32 27 27 29 32 36 39 41 40 38 34 29 24 20 18 20 21 23 24 24 21
32 35 37 41 42 43 45 47 51 56 60 66 73 77 81 87 93 92 71 56 44 28 23 24 27 31 35 37 38 35 32 29 24 18 14 14 15 18 21 24 25 22 18
34 37 40 41 43 44 47 51 56 60 66 70 75 81 86 92 86 67 55 41 24 21 21 24 27 31 33 33 30 29 27 23 18 15 15 15 18 21 25 25 23 21 14
37 39 40 41 42 46 50 55 60 66 70 75 79 84 90 84 62 52 39 22 17 17 21 24 27 29 30 29 28 27 25 21 19 18 18 21 23 24 25 22 20 19 14
38 39 39 42 45 50 55 60 64 69 74 80 85 91 82 60 50 35 18 12 13 17 22 25 27 29 30 30 30 28 26 23 23 23 24 25 25 25 24 19 18 18 14
37 38 41 45 50 55 59 64 69 73 78 83 88 74 58 49 35 15 8 8 12 17 21 24 27 29 30 31 30 29 27 26 25 24 23 23 24 24 22 18 15 14 15
38 41 45 50 55 59 64 68 72 77 84 86 70 55 46 35 16 6 6 8 13 16 20 24 26 29 31 32 32 32 32 30 26 24 24 25 25 24 21 17 13 10 10
41 45 50 54 59 63 68 72 77 84 86 69 55 44 33 16 4 4 7 9 13 15 18 21 25 27 28 32 33 34 35 36 35 33 29 26 27 25 20 15 12 8 6
45 51 55 59 63 69 72 75 84 87 70 55 44 32 17 2 3 7 8 9 12 13 16 20 23 23 26 29 31 34 36 38 39 38 36 32 30 26 21 15 9 8 6
52 55 59 64 68 72 75 82 88 72 55 43 33 19 3 5 6 10 8 8 10 11 14 17 19 20 23 28 30 33 36 39 42 40 38 36 33 28 23 16 7 5 11

GFSGL_500_spd_042.txt.gz
Wind_Speed
40 39 38 36 36 36 36 37 37 37 38 39 38 38 39 42 46 49 53 55 57 58 60 60 63 66 68 71 71 71 72 74 76 77 85 92 98 106 112 119 120 106 88
40 39 37 37 36 36 36 37 38 38 39 38 37 39 42 45 48 52 55 56 57 59 60 63 66 69 70 71 71 72 75 80 85 85 90 96 105 113 119 112 91 73 60
39 38 37 37 37 38 38 38 38 39 38 37 39 42 45 48 51 54 55 56 59 60 63 65 69 69 70 71 73 77 81 85 91 95 97 105 110 111 97 75 60 52 47
38 38 37 38 38 38 38 39 39 38 37 38 42 45 48 51 52 54 56 58 60 62 65 68 68 70 71 74 78 83 87 92 98 105 109 110 105 83 64 50 40 47 43
39 38 36 36 36 37 37 38 38 37 38 41 44 47 50 51 53 56 57 60 61 65 67 68 69 71 75 79 84 89 95 99 106 110 111 99 74 53 44 39 41 39 36
37 35 34 33 35 34 36 36 36 38 40 43 47 49 49 52 56 57 59 61 64 66 67 68 71 74 79 84 89 95 100 106 109 106 91 69 50 41 38 43 37 34 32
33 32 32 32 32 33 33 35 36 39 43 46 46 48 52 54 56 57 60 63 64 65 68 71 75 79 84 90 95 100 105 105 100 82 63 48 38 40 37 33 33 33 33
29 29 29 29 30 31 33 36 39 41 42 44 48 51 53 55 56 60 61 63 64 67 70 75 79 85 91 96 99 104 104 90 71 57 46 38 40 38 37 33 34 32 35
24 26 27 27 29 32 33 35 38 40 44 48 50 52 53 56 59 61 61 63 66 68 73 79 85 90 96 101 105 103 83 63 51 44 39 41 40 40 39 38 39 39 35
23 23 25 26 27 30 32 35 39 43 46 48 49 51 55 57 59 60 62 65 67 72 78 84 90 95 100 106 99 76 56 44 40 40 42 40 41 44 42 42 39 37 36
18 19 22 25 28 31 35 38 42 43 45 48 51 53 56 57 58 60 63 67 73 78 84 89 96 101 104 90 68 55 41 38 40 38 40 41 39 39 39 40 42 42 40
18 21 24 27 30 34 36 38 40 44 47 49 51 55 56 57 58 62 67 73 78 84 89 95 100 100 79 61 50 39 39 39 39 39 38 39 39 40 40 40 41 41 41
20 23 26 28 31 34 37 40 43 45 47 50 53 53 54 56 61 66 72 77 83 88 94 101 93 69 56 44 37 38 38 39 40 41 40 40 39 39 38 35 36 34 35
19 23 26 30 33 36 40 41 43 46 49 51 51 52 55 60 65 70 76 82 87 93 98 82 63 52 37 36 37 38 40 42 44 44 42 41 38 36 34 31 29 29 30
23 26 29 33 36 37 38 42 45 47 48 49 51 55 60 64 70 74 80 87 93 94 75 59 45 34 34 35 38 41 43 43 42 40 37 34 31 28 26 24 25 25 27
27 30 32 33 34 38 41 43 45 46 47 50 55 59 65 71 74 80 88 95 90 71 56 37 30 31 33 36 39 39 37 35 34 32 29 24 20 17 18 22 23 25 26
30 30 30 34 36 39 42 43 44 46 51 55 60 66 71 75 79 86 93 87 69 54 31 26 27 31 35 37 36 33 31 31 28 25 22 19 19 19 20 24 27 27 27
28 30 33 36 38 39 41 42 45 49 54 60 66 69 74 78 85 91 85 65 51 26 21 24 28 32 34 33 32 32 31 29 26 23 22 21 22 24 26 27 28 25 24
30 33 35 37 38 39 41 45 49 53 58 63 68 73 77 83 90 79 61 46 23 16 19 23 28 30 31 32 32 33 32 30 27 26 26 27 27 28 29 27 24 22 22
32 34 36 36 37 40 44 49 54 59 63 67 72 76 81 89 75 57 44 20 11 14 18 22 24 26 28 31 33 33 34 33 32 30 28 26 25 25 24 21 18 18 20
34 34 34 37 40 44 49 54 58 62 66 71 76 83 89 75 55 41 19 6 8 13 16 17 20 23 27 31 33 34 36 37 34 32 30 29 27 25 22 19 14 14 15
32 33 36 40 44 49 54 57 62 66 71 76 82 88 72 52 39 19 4 1 7 10 13 15 19 23 28 31 32 34 36 38 39 36 33 29 27 26 22 18 14 12 11
33 36 40 44 50 54 57 62 67 70 76 83 86 72 49 37 21 5 4 1 5 9 11 15 19 24 29 32 33 35 37 39 41 39 35 31 27 22 19 15 13 10 7
36 40 45 50 53 58 62 67 71 76 81 86 70 49 36 22 6 6 5 1 4 8 12 15 19 23 28 32 34 37 36 39 43 41 37 32 27 19 14 10 9 8 4
40 45 49 53 59 63 68 70 76 81 86 69 49 38 25 9 7 10 6 2 3 8 12 16 19 23 29 34 35 36 37 41 45 44 41 33 28 21 11 4 4 8 5
44 49 53 58 62 67 70 76 80 88 71 51 40 27 10 8 10 11 6 2 3 7 12 16 20 24 29 33 35 35 36 41 44 45 42 37 32 28 21 15 15 15 13

GFSGL_500_spd_045.txt.gz
Wind_Speed
46 44 46 44 42 39 38 38 39 39 40 40 41 42 43 44 45 45 46 48 51 55 57 59 61 63 64 67 68 70 71 73 75 73 76 81 86 91 96 102 107 111 114
46 46 45 45 42 38 38 38 38 38 39 40 41 42 44 46 45 46 48 51 54 57 58 60 63 65 67 68 71 71 72 73 75 76 81 86 94 99 104 109 113 113 101
46 45 45 44 40 38 38 38 38 39 41 41 42 43 46 45 45 48 51 54 56 58 61 63 65 66 68 70 71 72 73 76 79 83 85 92 99 106 110 113 107 83 65
44 45 44 42 40 37 35 37 39 41 42 42 42 45 45 45 47 50 53 55 57 61 63 64 65 68 69 70 72 74 76 80 84 90 97 101 107 112 110 95 71 55 45
42 43 41 40 37 33 35 37 39 41 41 42 45 44 44 46 50 53 54 57 60 61 63 66 67 69 70 71 73 77 82 87 93 100 105 109 110 99 78 60 46 41 42
39 38 39 37 32 32 35 36 38 38 41 44 42 42 45 49 52 53 56 59 61 62 64 66 68 69 70 73 77 83 88 94 100 107 110 107 85 64 49 42 40 39 36
34 33 32 30 31 33 34 35 35 41 40 40 42 45 48 49 53 55 57 58 61 63 66 67 68 70 74 78 83 91 96 103 109 109 95 73 58 44 39 41 41 37 39
24 24 28 29 33 32 30 36 38 37 38 41 43 45 48 51 54 55 57 60 62 65 65 66 70 75 79 85 90 96 102 106 100 81 66 52 44 43 44 41 40 41 38
19 24 27 31 28 32 32 32 34 38 39 40 43 47 50 51 53 56 58 61 62 62 65 70 74 78 84 92 101 104 103 88 70 60 47 44 45 45 45 44 41 40 36
27 25 30 26 27 28 31 34 33 35 38 43 45 47 49 52 55 57 60 60 60 64 70 75 80 86 92 100 104 98 80 63 51 45 46 46 46 45 46 47 45 42 41
25 24 23 25 28 27 27 30 34 38 40 42 45 48 51 53 56 57 58 60 64 68 74 79 86 92 98 102 91 72 55 42 44 44 45 47 48 49 49 48 47 45 42
20 20 19 19 21 25 30 32 35 38 41 45 47 49 52 54 53 55 58 64 69 73 79 85 91 97 97 82 62 45 43 43 45 47 48 49 49 49 49 48 45 42 41
11 13 17 21 24 27 30 34 38 41 43 44 48 50 51 51 54 58 63 68 72 78 84 90 96 91 73 51 41 41 43 46 47 46 44 44 44 43 41 37 34 33 31
11 15 19 22 26 30 34 37 39 40 43 45 47 47 49 53 57 61 66 71 77 83 88 94 85 64 42 37 40 44 45 45 43 40 38 38 37 33 28 24 21 22 25
15 19 23 27 30 33 34 36 39 42 44 44 45 48 52 56 62 66 70 76 83 90 91 78 55 35 34 38 40 41 41 42 41 39 35 32 30 27 26 24 24 25 29
21 24 27 30 30 32 36 38 41 42 42 44 48 52 57 62 66 70 76 83 90 90 71 49 29 29 33 33 33 34 37 40 41 39 36 33 29 27 27 28 29 30 30
25 27 28 29 32 35 38 39 39 40 44 48 53 59 63 68 71 76 81 90 87 68 45 23 24 27 25 26 30 33 36 38 39 40 38 35 33 33 32 31 32 31 29
25 27 29 32 35 37 37 38 40 43 48 55 59 62 68 72 77 81 90 83 63 41 18 20 22 20 23 28 32 36 38 39 39 40 41 38 34 31 29 28 29 27 24
26 28 31 33 35 35 37 39 43 48 54 57 61 67 71 77 82 90 78 57 39 16 14 18 17 20 25 31 36 38 40 40 40 42 42 38 35 32 28 27 25 24 18
27 30 32 32 33 36 39 43 49 53 56 62 67 69 76 80 87 72 53 39 14 10 13 14 16 21 27 34 38 39 42 42 42 44 41 38 35 32 27 24 21 18 15
29 31 31 33 36 39 44 48 52 57 61 67 70 76 79 86 74 52 37 16 6 9 11 13 18 23 30 35 39 41 42 42 44 44 40 37 34 31 27 20 15 14 11
29 30 32 35 39 44 48 53 57 62 67 69 76 79 84 71 50 37 19 5 5 7 10 14 19 25 31 36 40 40 40 42 45 43 40 37 34 29 24 16 13 9 8
30 32 36 40 44 48 53 58 62 68 70 76 80 82 68 50 39 22 6 5 4 6 11 16 21 27 32 36 38 37 38 42 46 45 40 37 32 25 17 12 6 2 5
31 35 40 43 49 52 58 63 68 72 77 83 84 66 49 37 23 7 7 4 3 7 12 16 21 27 31 35 36 36 38 42 46 45 42 39 32 23 16 9 5 6 7
34 38 44 48 52 58 63 68 72 77 86 85 65 48 36 22 7 8 8 3 2 7 12 15 20 25 31 35 36 36 37 41 46 44 41 40 37 30 24 19 17 14 14
38 44 48 51 57 62 67 71 77 85 82 64 50 38 21 6 8 11 7 2 3 6 11 14 19 23 30 35 38 36 36 39 43 43 40 37 36 32 29 25 21 19 18

GFSGL_500_spd_048.txt.gz
Wind_Speed
52 48 47 45 46 45 43 43 43 42 41 39 39 38 39 40 42 44 45 48 49 48 50 53 55 58 59 62 65 66 67 70 72 71 72 72 73 76 79 84 89 94 100
47 44 46 45 45 44 43 40 41 41 39 38 38 38 38 42 44 46 47 50 49 50 53 55 58 60 63 65 66 67 69 71 73 72 71 73 78 84 88 92 99 105 110
42 43 45 46 43 41 41 40 40 40 38 38 38 38 41 44 45 46 51 49 50 52 55 58 60 62 64 65 68 69 71 71 71 74 75 80 86 94 98 104 108 111 104
39 43 45 43 40 40 40 40 39 37 36 37 39 40 43 43 45 50 49 50 52 55 57 60 62 63 64 67 68 70 69 71 75 78 83 90 98 103 108 111 105 84 65
40 44 42 39 38 40 39 38 34 33 35 37 37 42 42 44 50 48 49 52 55 56 59 61 62 65 66 68 68 69 72 76 80 86 91 96 103 110 111 95 72 55 46
40 40 35 35 38 36 34 31 32 33 34 40 38 39 43 48 46 49 52 53 56 58 59 61 63 65 66 66 69 73 78 84 90 95 100 106 109 100 80 60 46 43 42
34 33 31 32 30 30 30 29 28 35 34 36 38 43 44 45 47 50 52 55 56 57 59 62 63 64 65 68 72 77 83 91 99 103 105 103 83 63 49 43 47 46 44
28 29 29 28 27 26 26 26 32 32 33 40 42 43 43 45 48 51 52 54 56 58 61 62 62 65 68 72 76 83 90 98 103 102 89 67 51 47 47 45 45 45 43
23 22 23 23 28 20 23 28 30 35 37 38 39 41 43 46 48 50 52 54 57 59 59 61 65 68 74 77 86 93 98 98 90 69 54 51 50 50 52 52 51 50 48
19 20 21 22 21 27 28 29 31 34 36 37 39 42 44 46 49 51 54 56 55 57 61 65 70 75 79 86 95 99 96 79 54 49 52 53 53 52 52 52 51 49 48
19 22 33 20 22 25 25 29 30 31 35 38 39 42 45 47 49 52 53 54 56 59 64 70 75 79 86 94 97 90 65 45 47 50 51 50 48 48 47 47 47 45 40
21 21 19 19 22 23 23 27 30 32 34 37 41 43 45 48 49 50 52 55 59 64 69 73 79 86 94 93 80 52 42 45 45 44 45 46 45 45 42 39 36 32 29
18 18 18 16 18 22 25 27 30 34 37 38 41 44 46 47 48 51 55 60 64 69 73 82 88 94 90 71 43 39 39 34 35 38 40 42 43 42 39 35 32 29 29
7 8 13 16 20 23 26 30 33 34 37 40 42 43 44 47 50 55 60 64 69 73 80 88 92 85 62 35 35 33 30 35 38 41 42 42 42 42 40 36 32 31 31
8 12 16 19 23 26 28 30 33 36 39 40 41 43 45 50 55 59 63 69 72 78 87 94 79 54 29 30 28 30 35 39 43 45 45 44 43 44 41 37 35 34 35
13 17 20 22 24 27 30 34 36 38 38 39 42 46 51 55 60 64 69 73 78 85 91 75 48 24 25 24 28 34 39 42 45 46 46 46 46 45 40 37 33 30 29
18 21 22 24 27 30 33 35 35 36 39 42 46 51 56 61 65 69 73 81 86 88 69 43 21 21 20 24 30 37 42 45 46 45 46 47 48 43 39 33 30 28 26
21 22 24 27 29 32 33 33 35 38 42 47 52 56 62 66 71 74 82 88 81 63 39 17 18 19 21 27 35 41 45 45 45 47 49 50 46 40 36 31 27 23 21
22 24 26 29 31 30 32 34 38 43 47 52 56 62 66 72 77 83 88 76 56 39 16 14 16 19 24 31 38 43 44 44 46 49 52 49 44 39 34 28 21 18 16
25 27 29 29 28 31 35 39 43 47 52 58 62 65 71 78 81 86 75 52 38 14 11 13 15 20 27 34 39 41 42 44 47 51 49 45 40 35 26 19 12 8 12
27 28 27 28 31 35 39 43 48 52 58 63 66 72 80 83 85 70 48 36 13 6 7 11 16 22 29 34 37 39 41 44 48 48 45 41 37 30 18 9 3 4 8
27 26 28 31 34 39 44 48 52 58 64 67 73 80 88 85 70 49 33 12 4 3 7 12 17 23 29 34 37 37 40 43 44 42 42 39 32 25 15 10 8 8 11
25 27 30 34 38 43 47 52 57 63 67 75 82 91 84 67 48 31 11 5 1 4 8 12 17 23 29 34 37 37 40 41 41 40 41 40 34 28 22 18 15 15 13
27 29 33 37 41 47 51 57 63 67 75 83 92 84 68 48 29 9 7 6 4 4 8 12 17 23 29 35 38 37 40 41 40 37 39 38 36 31 26 22 19 17 15
28 32 35 40 46 51 55 62 66 74 82 90 83 68 46 23 2 10 11 6 4 5 9 11 15 21 28 36 39 36 39 41 40 36 36 36 34 30 25 22 20 18 17
31 34 39 44 50 54 59 63 73 80 89 81 63 36 13 8 13 14 8 6 4 6 8 9 13 19 25 32 38 37 35 39 39 35 34 33 32 29 26 22 19 18 18

GFSGL_500_spd_051.txt.gz
Wind_Speed
50 44 39 44 49 50 46 46 48 46 45 42 42 43 42 42 42 35 40 44 40 45 46 51 54 53 54 57 60 62 64 66 66 67 71 71 72 72 72 74 77 81 85
47 47 41 43 48 47 44 46 46 44 41 40 41 41 40 41 41 39 39 44 49 50 49 56 54 56 58 61 62 64 65 66 68 69 69 69 70 72 75 79 86 91 97
50 47 44 44 48 45 44 44 42 40 38 38 38 38 38 40 39 42 41 44 49 49 54 55 57 58 61 63 64 65 66 67 68 69 68 71 73 79 83 90 95 102 108
50 49 40 44 46 42 42 40 38 36 34 34 35 36 36 38 39 45 47 49 50 54 55 57 59 60 63 63 64 65 66 66 67 69 72 76 82 88 94 97 102 108 98
38 38 38 42 41 39 38 34 34 29 34 32 33 33 32 43 46 46 48 50 52 55 56 59 60 62 62 64 65 66 66 68 72 76 79 84 90 96 103 106 100 79 56
31 33 35 38 35 33 31 29 25 34 31 32 32 30 35 43 46 47 49 50 53 55 57 60 60 61 62 64 64 66 70 75 79 82 87 94 100 106 102 85 62 52 48
30 32 32 31 26 25 22 26 33 28 27 31 38 34 36 41 45 48 51 51 54 56 58 58 59 61 62 62 65 69 73 78 86 92 98 103 103 88 68 55 56 56 56
27 27 24 20 29 25 24 28 22 24 23 27 39 39 40 44 47 49 50 52 55 56 56 59 59 59 61 64 68 73 78 86 93 100 104 92 67 56 58 59 61 59 56
24 24 21 25 24 26 25 20 22 26 28 32 38 41 43 44 46 49 51 53 53 55 57 57 59 61 65 69 74 79 86 94 100 98 74 55 54 55 53 51 51 51 46
15 23 21 18 22 22 31 27 29 32 30 37 39 41 41 44 46 48 49 51 53 53 55 58 62 66 70 75 80 85 91 99 85 52 48 45 45 47 49 49 50 48 44
19 13 13 18 24 33 32 29 27 32 34 33 36 39 41 45 46 48 50 50 51 53 57 62 66 70 75 81 87 93 96 69 41 40 38 43 46 48 50 50 51 50 45
13 16 18 16 16 20 26 29 26 28 31 34 37 40 41 43 45 47 48 51 54 58 62 67 71 76 82 88 93 87 54 36 35 37 42 45 48 50 50 50 50 51 48
5 9 12 12 12 14 18 22 25 29 33 36 37 39 42 43 44 47 50 54 58 63 67 72 77 83 89 93 75 42 32 31 36 41 46 49 50 50 50 49 50 51 46
5 5 4 7 13 17 21 25 28 31 33 35 38 40 41 43 46 50 55 59 64 69 73 79 84 90 91 63 34 30 30 35 40 45 49 50 51 50 50 50 50 47 40
5 7 10 14 18 22 25 27 29 32 34 36 38 39 43 46 50 54 59 64 69 73 79 85 90 83 54 30 27 28 33 40 46 51 52 51 50 51 51 51 47 41 37
9 12 16 20 22 23 25 28 31 33 34 36 40 43 47 50 56 61 67 71 75 80 86 88 72 46 24 24 25 31 38 45 50 52 52 53 53 53 50 45 40 35 32
17 18 20 22 23 25 28 30 32 33 36 39 43 46 51 56 61 66 71 77 82 87 83 60 40 18 20 22 27 35 42 47 49 51 53 56 55 49 42 36 31 26 22
20 21 22 23 25 27 29 29 32 35 39 42 47 52 57 62 66 72 78 84 86 76 51 33 13 16 18 24 31 37 42 45 47 51 53 53 51 43 33 25 19 14 11
22 22 23 25 27 27 28 31 34 37 41 46 51 57 62 68 74 81 88 85 68 44 27 8 11 14 19 27 34 37 39 43 46 46 48 46 39 30 21 14 11 9 9
23 24 25 27 27 28 30 34 37 41 46 51 57 62 67 75 86 91 82 60 37 18 2 6 10 15 22 29 33 35 40 42 40 39 39 37 33 27 21 17 13 13 13
24 26 28 26 28 30 33 36 40 46 51 57 63 69 75 85 91 79 55 31 12 3 2 5 10 17 23 30 32 34 40 37 35 35 35 34 30 27 23 19 17 15 15
26 27 26 27 30 33 36 40 45 51 56 62 69 75 85 89 74 49 23 7 8 6 3 6 11 18 25 31 31 33 37 33 31 32 32 30 27 24 22 20 19 18 17
27 26 27 29 32 36 39 44 49 54 60 67 73 83 85 68 43 16 6 13 9 5 5 7 12 18 25 32 32 32 36 33 30 31 30 27 26 24 22 20 19 19 20
26 26 29 32 35 38 43 47 52 57 64 70 82 82 61 38 13 14 15 11 7 6 5 8 12 17 23 30 35 32 34 36 31 30 31 29 26 23 21 19 19 20 22
26 28 31 34 37 41 44 49 54 60 66 77 82 54 32 12 16 15 10 7 5 6 7 9 12 17 22 27 33 34 32 34 36 31 30 29 27 23 20 19 20 23 26
27 30 33 36 38 41 47 51 56 64 68 80 50 23 13 10 11 8 7 7 6 7 8 9 13 17 19 24 28 33 33 30 32 34 29 27 26 23 20 19 21 25 26

GFSGL_500_spd_054.txt.gz
Wind_Speed
62 62 58 53 46 42 43 51 53 52 50 50 50 49 47 46 46 44 43 37 44 44 45 48 45 55 54 56 58 60 62 64 65 66 70 69 69 69 68 69 70 72 75
56 56 58 58 52 47 43 46 48 49 49 48 47 45 44 43 43 40 42 42 44 43 46 49 49 54 58 58 62 63 65 67 68 69 70 70 70 70 71 73 76 81 86
47 49 51 53 54 51 43 41 43 46 47 44 43 40 40 41 39 38 39 41 48 46 48 48 58 58 59 63 63 64 66 68 69 70 70 70 70 72 75 79 83 89 94
42 44 45 48 50 47 45 43 45 45 43 41 38 36 37 37 36 37 39 46 52 50 54 55 56 59 62 62 64 65 66 67 68 69 69 70 73 77 81 85 88 98 104
39 38 40 43 43 41 42 44 44 42 37 35 33 35 36 31 37 39 40 41 50 58 57 58 57 60 62 64 65 66 67 67 68 69 71 74 79 83 89 93 101 106 93
30 36 39 39 39 36 37 40 39 34 30 30 35 32 27 32 37 39 42 46 53 58 59 58 59 62 64 65 66 67 67 68 70 74 77 81 85 91 98 102 100 76 55
16 26 33 33 33 30 33 31 31 29 31 30 28 27 31 34 40 45 47 52 54 56 56 58 60 63 64 65 65 65 68 72 76 80 83 89 93 100 101 80 57 54 54
18 18 28 29 29 29 31 30 28 33 29 21 24 28 31 41 48 48 51 52 52 54 57 59 61 62 62 63 65 68 72 77 81 86 93 99 102 83 60 49 49 51 54
22 24 26 27 27 27 24 23 33 22 18 20 27 34 38 42 48 49 50 51 54 57 58 59 60 60 62 65 69 72 76 82 88 95 100 92 65 49 47 50 53 54 55
20 21 22 26 25 23 24 16 14 20 28 36 38 36 36 38 43 45 50 53 54 55 59 59 60 62 65 69 74 77 82 88 95 95 73 52 46 47 52 55 58 59 60
12 17 14 6 6 12 13 16 24 30 38 32 33 35 36 40 45 48 50 51 53 53 55 58 62 66 71 76 80 85 91 96 84 54 42 42 47 53 57 61 63 62 59
11 10 8 6 3 10 18 21 21 23 24 27 30 35 40 43 44 47 49 51 52 54 58 62 67 71 76 80 86 92 91 70 43 39 40 46 52 58 62 63 62 60 58
4 9 7 8 6 7 11 14 18 22 27 31 35 37 39 42 44 46 48 51 54 58 63 68 72 76 82 88 92 81 57 36 36 39 46 52 58 61 62 61 60 60 57
3 2 3 5 6 10 15 20 23 26 28 30 34 37 40 41 44 47 51 55 60 65 70 75 80 85 89 85 64 42 30 32 37 45 51 56 60 62 63 63 60 56 48
2 2 5 9 12 17 19 21 24 27 30 33 35 36 39 42 46 51 56 61 66 71 76 81 88 89 74 52 31 26 30 37 44 50 54 58 60 61 61 56 49 40 33
6 11 15 17 20 21 23 24 26 28 30 31 34 38 41 46 51 56 62 69 73 78 83 88 83 60 38 21 22 27 33 40 46 50 52 51 53 50 45 38 31 23 18
17 19 18 20 21 21 23 26 28 28 31 34 37 41 46 51 57 62 69 75 81 87 88 71 46 25 13 18 23 30 36 40 46 44 43 41 38 37 33 27 22 19 17
19 20 21 21 22 24 27 27 28 31 34 38 41 47 52 58 63 70 77 84 90 79 56 32 12 9 13 20 26 32 35 39 37 38 37 35 33 31 28 25 22 21 20
23 22 22 23 24 27 26 28 31 33 37 41 46 52 56 63 71 79 85 85 65 42 19 2 5 10 16 22 29 32 35 34 32 34 35 33 30 28 27 26 25 23 22
22 22 23 25 27 26 27 30 33 37 41 45 50 55 61 70 81 86 77 54 29 8 6 5 7 12 18 25 30 31 35 32 32 34 32 30 28 26 25 24 23 22 22
22 23 25 27 27 27 29 32 36 40 44 48 53 58 64 78 81 69 48 20 6 9 6 6 9 13 20 27 30 31 34 33 32 32 32 29 27 25 23 22 24 25 24
24 25 27 27 26 28 31 35 39 42 45 50 55 62 71 77 56 40 19 11 9 7 5 6 10 15 20 26 31 31 32 34 33 31 30 28 25 23 21 22 24 25 24
25 26 28 26 27 30 34 37 40 43 48 52 57 64 76 49 32 19 10 8 8 7 6 8 10 14 19 24 29 32 30 31 33 31 30 27 24 22 23 24 26 26 24
26 28 27 27 29 32 36 39 41 44 50 53 61 66 55 31 22 11 10 11 11 12 11 11 13 16 20 23 26 31 33 31 32 32 30 28 27 25 24 25 28 26 26
27 28 27 28 31 34 38 39 42 45 50 56 59 65 33 24 15 11 12 13 13 14 14 13 15 18 21 23 25 28 31 33 33 33 32 30 28 27 24 25 28 26 25
28 29 29 30 32 35 38 40 42 48 51 56 61 55 27 18 14 13 13 15 15 15 15 16 17 20 22 23 24 25 28 31 32 32 31 31 28 26 23 23 26 24 24

GFSGL_500_spd_057.txt.gz
Wind_Speed
61 65 69 70 70 68 62 56 53 52 51 53 54 56 58 56 54 52 52 51 48 49 49 45 47 52 51 52 55 57 59 66 65 63 65 65 67 68 69 71 74 74 73
58 61 67 69 69 68 65 59 56 51 45 51 51 52 53 53 51 50 48 45 46 45 40 45 47 50 54 58 63 62 64 68 67 65 66 67 69 71 73 73 73 73 75
54 59 61 63 65 63 61 60 57 52 46 44 44 48 50 48 46 47 44 43 42 40 45 45 43 53 55 56 59 67 66 67 66 67 68 70 71 72 72 73 74 77 82
40 43 44 50 51 51 54 53 56 54 46 43 43 44 44 42 44 43 43 39 38 39 45 48 48 49 58 68 67 67 67 67 68 69 71 72 71 72 74 77 78 84 87
34 37 34 32 38 41 46 42 44 49 45 42 42 41 38 39 40 41 41 33 39 53 47 50 50 59 64 67 67 67 68 69 70 71 71 71 72 76 80 83 86 91 95
16 19 24 26 29 30 30 30 34 40 42 42 38 36 36 36 34 38 42 40 42 48 54 51 56 60 63 63 66 69 70 70 70 72 73 74 78 83 86 90 95 100 97
12 11 13 16 21 24 23 25 28 34 34 32 33 34 35 34 37 37 32 40 48 52 50 51 56 58 62 65 67 68 68 69 72 74 77 82 84 88 93 98 96 87 70
5 12 17 16 20 20 23 20 25 24 23 25 31 30 33 28 29 34 42 45 50 53 58 58 59 63 65 66 66 66 67 71 76 80 84 87 92 97 98 91 72 55 50
1 16 9 17 17 19 18 22 21 24 31 30 37 32 32 28 42 43 43 47 48 50 55 57 60 61 63 63 67 68 71 77 81 86 91 96 98 89 72 54 51 54 56
3 1 6 13 15 16 17 19 19 19 26 25 24 23 31 36 35 38 42 50 49 52 55 59 61 62 64 67 70 73 77 81 86 92 96 89 71 53 52 56 60 64 68
4 6 6 11 16 10 13 19 25 18 14 22 32 28 33 40 42 41 45 46 48 51 54 57 60 63 67 72 76 80 83 88 92 89 72 50 48 52 58 64 70 73 74
6 2 10 7 9 4 3 11 10 14 18 20 23 25 30 37 41 43 45 46 49 52 55 59 63 68 73 78 82 87 90 89 72 46 39 44 50 57 63 67 69 71 68
7 9 8 3 3 1 2 5 9 13 18 23 27 30 34 37 39 41 44 47 51 55 61 66 71 76 81 86 90 88 72 45 31 36 42 49 55 57 54 52 55 52 44
8 6 5 5 5 7 10 13 17 20 22 25 28 32 34 35 38 41 45 50 56 62 68 74 80 85 89 86 71 47 26 26 32 39 45 48 47 44 43 42 40 36 31
8 7 8 10 12 14 16 18 19 22 24 27 29 30 33 37 40 45 50 56 62 69 77 85 89 86 74 48 24 18 25 31 37 42 40 41 38 37 37 36 34 33 32
11 13 15 14 15 17 18 20 22 25 25 26 29 32 36 40 45 50 55 62 70 81 86 86 75 54 26 13 17 23 29 34 39 34 35 35 33 31 31 33 33 33 32
16 16 18 19 20 20 21 22 24 23 25 28 31 35 39 44 48 53 60 70 80 83 78 59 35 10 10 15 21 28 31 36 32 31 32 31 30 30 28 29 28 28 29
19 20 20 20 20 21 22 23 22 24 28 31 34 39 43 46 51 59 66 79 74 65 46 19 10 11 14 19 26 30 32 34 31 31 31 30 27 27 27 27 28 26 26
21 20 20 21 21 22 24 23 24 27 31 35 38 41 44 49 55 60 74 61 50 33 14 11 11 13 16 21 28 32 31 34 32 31 31 29 28 26 25 26 28 31 30
23 22 21 22 23 25 25 25 27 30 34 37 40 42 46 51 57 68 56 43 28 14 12 10 11 14 17 23 28 33 34 33 35 34 32 31 29 28 27 28 29 30 30
23 21 22 23 24 26 25 26 29 33 36 39 41 44 49 55 59 63 40 27 18 16 15 11 12 15 18 23 27 32 35 35 34 35 34 32 30 28 27 28 31 31 27
22 23 23 25 26 27 26 28 31 34 39 40 42 47 51 55 64 48 32 22 19 18 16 14 15 18 20 23 26 30 33 35 34 33 34 32 30 28 25 25 29 29 30
23 24 26 27 28 28 28 30 32 36 39 41 43 47 53 55 59 33 26 21 20 20 20 19 19 19 21 24 25 27 29 32 35 33 33 33 30 28 25 26 29 28 30
24 26 27 28 30 29 29 31 34 38 40 40 44 48 52 58 50 27 23 21 21 20 21 21 21 21 23 25 26 26 28 30 33 35 34 34 33 29 27 27 29 29 30
26 27 28 30 31 30 30 32 36 38 40 41 44 51 52 61 41 22 22 22 21 21 22 22 22 22 23 24 24 25 26 28 30 33 36 35 34 32 29 26 28 28 28
27 28 29 31 31 31 31 33 37 39 41 42 45 52 55 57 34 21 21 21 22 23 23 23 22 22 23 24 25 25 26 27 28 30 33 35 33 32 29 27 27 26 27

GFSGL_500_spd_060.txt.gz
Wind_Speed
58 61 64 68 71 72 73 74 73 72 69 67 62 57 56 57 57 60 58 58 56 53 53 53 53 53 45 52 51 53 54 55 55 56 59 62 68 67 68 69 70 71 72
56 57 59 62 65 70 71 69 67 68 68 66 60 55 53 53 55 57 56 56 55 52 50 51 51 49 48 55 49 53 55 57 58 60 67 69 70 68 69 70 72 72 72
55 57 54 56 59 62 62 64 61 62 62 63 60 54 53 51 52 54 56 53 49 48 48 47 49 46 53 51 59 58 58 57 64 67 71 70 69 70 73 73 73 72 74
48 42 42 43 41 45 55 50 55 57 56 56 55 55 49 47 43 45 46 44 45 46 48 48 50 46 57 59 55 58 58 65 66 68 69 70 72 73 74 74 73 75 78
36 34 31 29 33 29 29 25 33 39 43 45 49 48 46 41 39 42 38 39 46 44 45 48 46 52 59 65 65 62 66 64 66 68 68 68 70 72 74 76 79 82 85
27 22 18 18 19 15 13 17 21 20 29 33 39 39 35 33 30 37 39 40 38 44 45 43 45 49 59 58 59 65 65 65 68 68 68 70 72 76 79 83 86 89 91
24 14 10 7 5 9 5 8 10 16 17 22 28 31 32 31 33 36 39 42 46 41 46 52 49 49 57 63 67 65 67 67 69 71 73 75 78 82 84 89 94 97 93
20 11 3 3 5 8 14 7 12 14 15 18 21 23 23 30 33 31 40 46 42 44 45 49 51 56 59 61 62 62 64 68 70 75 79 82 85 89 93 94 88 72 56
17 14 5 3 7 8 5 6 11 12 8 16 19 23 25 29 29 36 38 38 42 44 45 49 53 56 59 58 60 64 67 72 77 82 86 89 91 90 78 60 53 57 61
15 17 10 2 5 2 2 6 9 14 12 11 16 20 25 23 32 32 32 36 45 42 46 50 52 53 57 61 65 69 73 79 84 88 92 88 71 51 47 52 58 61 56
12 16 11 6 4 2 3 4 9 8 9 15 13 12 21 23 26 32 37 39 43 45 47 49 54 58 63 69 74 79 84 88 90 84 64 42 38 44 50 54 52 47 46
11 14 15 9 7 3 2 7 8 6 6 9 12 16 21 25 29 32 34 36 39 44 48 52 58 64 70 77 83 88 88 76 56 34 29 34 40 46 46 44 39 37 38
7 7 9 8 9 9 8 6 7 9 13 16 19 21 23 27 29 31 35 38 42 47 52 58 65 73 80 82 81 65 44 24 22 29 34 39 41 37 39 35 34 34 37
9 9 8 8 7 7 8 9 11 12 14 16 20 23 25 27 29 32 36 41 46 51 58 65 72 75 71 66 43 20 19 25 29 34 38 34 34 36 34 30 31 33 33
9 11 12 12 11 11 13 14 16 17 19 21 21 23 25 28 32 36 40 44 49 55 63 71 70 60 56 22 17 21 26 29 34 34 29 32 33 31 30 28 29 32 34
13 13 14 15 16 16 16 17 18 20 21 21 22 26 29 32 36 39 42 46 54 61 69 65 56 40 15 17 20 27 30 32 33 30 30 30 29 27 27 28 29 31 32
16 17 18 18 17 18 19 19 21 22 21 22 25 28 31 34 37 40 44 51 58 66 58 46 28 18 16 19 23 28 33 34 33 31 30 30 28 27 27 28 29 32 35
19 20 20 20 19 19 20 22 23 22 22 25 28 31 34 36 38 43 47 52 63 54 40 29 26 17 18 20 23 27 32 36 35 34 32 31 29 28 28 28 29 30 33
21 22 21 20 19 20 21 24 25 24 26 28 30 33 36 36 39 43 49 54 58 40 33 27 21 19 20 21 24 26 30 34 36 35 34 33 31 30 30 30 30 35 35
22 21 21 20 21 23 24 26 27 27 28 30 32 35 37 37 40 45 49 58 48 32 28 25 22 21 23 24 26 27 30 32 36 38 37 35 33 31 30 29 29 32 35
23 22 21 22 23 25 26 28 28 29 30 31 34 36 36 38 42 47 50 57 41 28 26 24 24 24 25 26 27 29 30 31 33 36 38 36 34 32 32 31 31 33 34
23 22 22 24 25 27 28 30 30 31 32 33 35 36 36 39 44 47 53 54 35 27 26 25 25 25 25 26 28 30 30 29 31 33 35 37 35 33 32 31 30 32 33
23 23 24 25 27 29 31 32 32 32 32 34 36 37 37 41 46 49 54 51 32 27 25 25 25 25 25 25 26 27 28 29 29 30 32 35 36 33 32 31 29 30 33
23 23 25 27 29 30 32 32 33 33 33 35 37 38 39 42 47 50 56 50 31 25 25 25 26 26 25 25 26 27 28 29 29 30 30 32 35 34 33 33 32 32 32
23 24 27 29 30 32 34 34 34 35 34 36 37 39 40 44 48 53 58 47 29 24 24 25 26 26 24 23 25 27 29 30 30 29 29 31 33 35 34 34 32 31 33
24 26 28 30 32 33 34 35 35 35 36 37 38 40 43 45 49 54 58 44 27 23 23 24 24 22 21 23 26 30 32 31 30 30 28 28 30 33 34 34 34 31 32

GFSGL_500_spd_063.txt.gz
Wind_Speed
50 54 58 61 63 65 67 69 71 72 73 74 73 72 68 63 57 55 56 59 60 58 57 59 59 59 56 55 56 54 61 55 51 63 55 58 61 63 64 65 68 68 69
46 50 53 56 57 59 61 65 69 71 73 72 71 69 66 63 59 55 52 52 54 57 57 59 59 57 54 53 56 56 65 56 54 58 60 58 63 66 66 69 69 71 71
46 49 46 46 48 49 51 58 63 66 68 67 67 66 63 59 54 52 51 47 47 48 52 55 57 57 44 55 56 55 57 57 54 64 64 63 64 66 70 71 69 70 71
37 42 43 49 47 39 39 42 48 53 54 62 64 62 59 55 50 47 45 44 44 44 44 44 50 47 53 50 61 53 59 59 62 68 68 64 69 72 71 71 70 71 72
35 39 37 36 32 30 31 33 33 35 32 32 35 37 39 42 42 40 39 39 38 39 40 37 41 48 51 55 54 57 59 62 62 66 67 69 71 72 72 72 73 76 79
30 32 32 18 18 17 19 21 24 20 18 18 14 14 22 32 35 32 30 32 37 34 37 41 48 47 45 53 62 62 60 59 62 61 64 67 70 71 73 76 79 83 86
29 21 16 15 15 16 10 4 4 7 15 13 13 20 19 20 23 23 26 30 32 33 40 43 46 49 51 54 54 57 61 62 62 64 67 70 73 76 80 84 88 91 89
22 16 13 12 9 6 6 9 8 8 7 8 13 12 18 16 23 24 25 31 36 38 40 43 41 46 48 52 53 53 56 60 65 70 75 78 82 86 90 90 85 68 49
13 13 11 7 7 9 8 9 6 4 3 5 8 10 15 18 17 26 27 30 36 35 39 40 43 48 46 49 51 56 62 68 74 78 82 85 86 81 71 57 43 41 44
10 8 9 8 7 8 8 2 12 7 5 5 6 8 11 16 14 19 23 25 29 33 37 39 40 43 47 51 56 62 68 74 78 80 77 67 57 44 36 37 40 41 36
12 10 7 14 11 9 9 10 9 7 2 2 2 3 5 9 14 18 22 25 28 31 34 38 42 46 51 57 63 68 72 72 70 59 43 33 34 38 41 43 37 36 34
5 8 7 10 10 10 9 9 10 8 6 7 8 10 12 15 18 20 22 25 28 31 35 39 44 50 56 61 67 69 63 53 33 27 32 36 41 41 36 36 37 33 31
3 6 9 10 10 10 10 10 10 11 13 13 14 15 17 18 19 21 24 26 30 33 37 42 49 54 59 63 58 49 28 25 31 35 38 36 31 32 35 34 31 29 32
5 7 8 9 9 9 9 10 11 11 12 13 15 16 17 18 21 24 27 30 33 36 39 47 54 59 60 50 36 21 25 29 33 35 33 29 30 32 30 28 28 29 30
8 9 8 10 11 11 12 12 13 14 16 18 18 17 19 22 24 28 30 32 35 40 45 52 57 58 46 33 24 22 24 29 32 33 30 28 29 29 28 27 29 30 32
11 12 13 14 13 14 15 16 16 18 20 20 19 20 23 26 29 32 32 34 38 41 47 51 58 46 37 32 22 24 25 27 31 34 34 30 28 28 27 29 29 29 30
13 15 15 16 16 17 16 18 19 21 22 22 22 24 26 30 31 33 33 35 39 43 49 53 50 36 33 28 26 26 27 28 31 33 35 33 30 28 28 28 28 28 30
16 17 18 18 19 17 18 20 21 23 24 24 25 27 28 31 33 34 34 37 41 45 47 52 41 32 31 28 28 28 29 31 31 33 34 35 34 30 29 29 30 29 29
18 20 20 20 20 19 20 22 24 25 26 28 28 29 30 32 34 35 35 39 42 46 50 51 36 29 28 29 31 31 32 33 33 33 33 34 36 34 33 31 30 31 31
20 21 21 22 21 21 22 23 25 27 29 30 31 32 32 34 35 36 36 40 43 47 52 47 32 28 28 29 30 30 31 32 32 31 33 33 35 36 36 33 31 30 32
22 22 22 22 21 22 23 26 28 30 32 32 32 32 33 35 36 36 37 41 45 49 54 42 30 28 28 29 29 30 30 30 30 30 31 32 33 35 37 36 33 32 31
22 22 23 22 23 24 26 28 30 32 33 33 34 35 34 36 37 38 39 42 45 52 55 40 27 26 27 28 29 30 30 30 29 30 31 31 32 33 35 36 35 33 33
22 23 22 23 24 26 28 30 31 33 35 36 36 36 35 38 39 40 41 44 47 53 56 38 26 25 26 28 28 26 27 29 31 32 32 31 31 31 32 34 35 33 34
24 23 23 24 26 27 30 31 33 35 36 37 37 36 37 38 40 41 43 46 49 55 55 34 25 24 26 27 24 24 27 32 36 36 33 31 30 29 30 33 35 35 36
23 23 24 25 27 29 30 31 33 35 36 37 37 37 37 39 40 41 46 48 51 57 53 30 23 23 24 24 22 23 27 34 33 33 31 28 28 27 28 31 34 37 36
23 24 25 27 28 29 30 31 32 35 36 36 36 37 38 41 42 44 47 50 54 60 47 26 21 20 22 21 20 24 28 32 33 33 31 27 25 26 27 30 33 38 36

GFSGL_500_spd_066.txt.gz
Wind_Speed
35 37 41 44 48 53 58 62 65 67 68 69 70 70 70 68 67 66 66 63 61 59 59 60 59 55 52 57 59 58 60 60 61 61 57 64 69 69 62 58 63 65 65
33 34 36 43 49 54 60 63 63 63 63 63 63 63 63 63 64 64 63 59 58 55 54 56 54 55 59 58 57 60 60 59 58 60 58 59 56 59 61 62 62 65 67
26 27 30 36 42 52 54 53 52 54 57 60 62 63 65 65 64 62 60 57 53 52 50 49 49 51 52 51 54 50 55 55 57 59 61 58 63 62 63 68 66 67 72
23 24 28 32 36 42 40 38 39 43 44 47 49 55 55 54 55 57 57 51 45 45 45 45 45 44 45 43 46 51 48 52 58 64 63 63 64 63 66 67 69 69 70
19 21 25 29 29 30 34 33 36 35 36 39 43 43 43 44 37 31 33 39 39 41 39 39 38 40 42 41 45 47 51 52 54 57 60 64 65 67 67 68 69 72 75
15 18 20 23 19 22 24 25 24 28 28 27 25 33 37 31 29 26 23 27 31 38 33 35 37 38 41 46 49 52 55 55 56 58 56 58 62 66 69 72 76 80 84
13 13 12 15 15 15 15 16 20 16 15 19 19 12 14 21 11 14 16 26 28 27 27 34 32 38 43 47 52 49 46 48 49 53 57 62 67 72 75 80 83 84 81
12 9 9 9 11 12 12 10 14 15 13 13 10 6 7 13 12 17 19 19 19 27 33 34 37 37 42 43 41 41 46 49 54 58 62 67 73 77 79 78 74 67 53
10 10 9 8 8 7 7 12 15 13 11 10 10 6 4 8 10 15 15 20 27 29 29 27 28 33 34 35 39 45 50 54 58 63 69 72 72 68 60 50 43 41 42
6 8 11 9 9 9 11 11 12 12 7 12 13 6 4 7 11 12 12 13 16 19 22 24 27 30 34 39 44 50 53 57 64 63 62 55 45 42 44 45 45 42 36
8 5 5 5 7 7 9 10 11 9 8 8 8 7 6 8 9 12 14 17 19 21 24 27 30 33 37 42 47 51 55 64 59 52 42 42 45 46 41 34 32 34 32
10 9 8 6 4 6 8 10 12 12 12 11 11 11 11 12 13 15 16 18 21 24 27 31 33 35 40 46 50 55 59 56 43 37 38 41 43 37 32 33 32 30 28
10 8 4 7 10 11 12 13 15 16 15 15 15 15 16 16 16 18 20 22 25 28 30 32 34 36 44 47 52 57 53 39 33 32 34 37 40 37 33 32 31 30 32
7 7 9 9 11 13 14 14 14 14 14 14 15 15 15 16 18 21 24 26 29 31 32 34 37 40 45 50 56 52 38 32 31 31 32 35 38 38 34 31 30 31 31
9 10 10 11 12 13 13 14 14 14 16 16 17 17 18 20 23 25 28 30 33 34 36 38 41 43 48 51 54 42 33 33 32 32 32 35 36 38 38 35 32 30 31
11 10 12 14 14 14 16 15 16 17 18 19 20 21 22 24 27 30 32 34 35 36 37 39 41 43 46 50 47 36 34 33 32 33 34 35 36 36 37 37 34 32 31
14 14 15 16 17 17 17 16 17 18 19 21 23 25 27 28 30 32 34 35 36 37 37 39 41 42 47 49 41 35 34 35 35 36 36 37 36 34 35 36 35 33 32
17 16 17 19 19 18 18 18 18 20 22 24 26 28 29 30 32 34 35 36 38 38 39 41 43 46 47 45 36 33 34 34 33 34 34 35 34 32 33 34 36 34 32
17 17 19 20 20 21 20 20 20 22 24 26 28 31 31 32 33 35 37 38 39 39 39 41 44 47 49 40 34 32 32 32 32 33 33 33 33 33 33 34 35 36 35
18 21 23 23 22 22 22 22 23 25 27 29 30 32 33 34 35 36 37 39 40 40 40 43 44 48 49 37 33 31 31 32 32 32 32 32 32 34 33 33 34 34 35
23 25 26 25 24 24 23 24 25 27 29 31 33 35 35 36 37 37 38 39 40 40 41 44 46 50 47 35 32 30 31 32 30 29 32 34 36 35 34 34 33 34 36
25 26 28 26 26 25 25 26 27 29 30 32 34 35 37 37 37 38 39 40 41 41 43 45 48 52 48 34 30 29 31 30 27 29 35 36 36 34 32 32 32 33 35
28 28 27 27 27 26 27 27 28 30 31 33 34 36 37 38 37 39 39 41 42 43 46 48 52 55 44 31 28 28 29 26 26 29 34 34 36 32 29 29 31 32 34
32 29 28 28 27 28 28 28 29 30 32 33 34 36 38 38 39 40 41 42 44 46 49 52 56 58 41 28 26 25 25 24 25 30 33 33 34 31 28 28 29 32 34
31 29 30 29 28 28 29 29 29 31 32 34 36 37 39 40 41 41 43 45 46 49 51 57 62 55 34 26 24 23 23 22 23 27 32 33 32 32 29 27 28 30 34
29 31 30 29 28 28 28 28 30 31 32 35 37 39 40 42 42 43 46 47 49 52 56 62 62 42 27 23 22 22 21 22 25 30 33 33 33 32 31 27 28 30 33

GFSGL_500_spd_069.txt.gz
Wind_Speed
31 31 31 32 33 32 34 37 41 48 55 61 65 65 65 65 67 68 68 67 66 65 64 63 63 62 59 59 54 59 63 65 69 63 60 60 60 60 60 65 60 57 58
29 29 30 29 28 30 33 36 45 49 50 53 56 58 60 60 60 60 60 60 60 60 60 59 59 58 60 61 55 69 61 64 65 63 59 55 58 58 59 57 64 65 62
31 30 28 27 28 28 33 36 36 39 43 45 46 48 49 51 54 56 57 57 58 59 59 57 55 55 55 57 59 61 60 60 57 55 54 58 60 55 59 62 62 63 64
30 28 26 25 25 23 27 30 31 35 35 35 37 39 41 42 44 47 48 48 48 47 48 48 47 48 51 53 53 52 52 51 52 54 55 56 57 62 62 63 60 61 61
26 27 25 24 23 20 22 26 30 31 31 32 29 32 33 37 42 40 34 35 38 40 39 39 39 40 42 45 43 42 46 48 52 55 57 57 58 54 54 57 59 62 67
28 26 24 24 20 18 16 17 19 24 30 29 31 32 27 24 25 31 34 30 26 31 30 35 33 33 39 36 38 42 46 51 48 51 50 45 48 52 56 61 65 69 74
23 25 26 23 21 18 15 16 16 19 23 26 27 27 24 22 19 21 22 22 22 18 28 29 23 25 30 36 42 41 43 43 40 41 46 48 52 59 62 65 67 69 68
22 24 23 22 19 18 18 16 19 23 27 24 27 27 23 20 16 19 18 14 12 13 14 22 27 26 31 35 35 29 30 35 39 44 48 51 58 62 62 59 53 50 52
21 20 20 21 19 19 17 15 16 16 18 15 17 17 17 16 17 18 10 11 13 13 16 19 22 22 22 23 26 30 34 39 44 48 51 57 61 57 47 47 49 48 42
18 19 18 18 18 18 16 16 17 17 17 14 18 17 16 15 16 15 13 13 14 15 16 17 18 21 23 26 30 33 39 43 48 50 56 58 52 46 43 45 45 39 35
15 16 16 16 16 17 16 15 16 16 17 18 20 18 17 16 16 16 16 17 18 17 18 21 24 26 29 31 33 36 41 47 50 53 56 50 42 39 41 41 42 37 35
17 17 16 16 17 13 14 15 16 19 20 21 20 19 19 19 18 17 16 18 19 21 24 26 29 31 33 35 37 41 44 49 51 54 51 40 38 40 37 38 41 40 36
19 18 16 12 14 15 14 17 18 19 20 19 19 19 19 19 19 20 21 23 26 28 29 31 33 34 36 39 41 42 45 48 53 52 43 38 38 36 36 37 39 42 40
15 13 13 14 15 15 16 17 18 19 17 17 17 18 19 20 21 23 25 26 29 31 33 34 36 37 39 41 42 42 44 47 51 44 40 38 38 38 39 39 38 38 39
14 16 18 17 15 15 16 17 18 17 17 16 18 19 21 22 25 26 29 30 32 34 35 36 38 39 40 41 43 45 45 49 46 40 39 40 40 40 40 38 37 36 37
18 18 18 16 16 17 18 17 18 18 18 18 20 22 24 25 28 29 31 33 35 37 38 38 39 40 41 41 43 44 46 46 42 38 38 38 37 36 36 36 35 35 34
21 20 19 18 18 20 20 19 20 21 20 20 22 24 26 28 30 32 34 36 37 38 39 39 40 40 40 41 43 44 45 42 40 37 38 36 35 34 34 34 35 35 33
22 21 20 18 18 21 21 22 22 22 22 22 24 26 28 30 33 34 35 37 38 39 39 40 40 40 41 42 43 45 44 41 39 36 36 36 35 34 34 34 35 36 33
20 20 19 19 21 23 24 24 24 24 24 25 26 28 30 32 34 36 37 38 39 39 40 40 41 41 42 43 45 48 45 40 37 35 36 35 33 33 36 38 37 36 33
17 17 18 22 25 25 26 26 26 26 26 27 28 30 32 33 35 36 38 39 39 39 40 42 42 43 44 46 48 51 45 39 35 33 34 31 30 34 35 36 36 32 32
20 21 22 23 26 28 27 28 28 28 29 29 30 32 33 35 36 37 38 39 40 41 42 43 44 46 47 49 52 55 46 38 32 31 31 28 30 35 35 37 34 29 29
22 25 27 28 30 29 27 28 29 29 30 31 32 33 34 36 37 38 40 42 42 42 43 45 46 49 50 54 58 58 44 34 29 28 28 27 31 34 34 34 33 30 30
29 30 31 31 32 31 29 30 31 30 31 32 33 34 35 37 39 41 42 43 43 44 46 49 50 52 55 60 61 50 37 28 26 26 24 25 27 32 34 33 33 31 31
32 30 30 30 33 31 31 32 32 31 32 32 33 35 37 39 40 43 44 45 46 48 50 50 53 56 62 65 54 37 28 24 23 23 22 25 29 33 33 35 34 33 31
33 32 31 32 34 32 33 33 32 31 32 33 34 36 37 39 41 43 44 46 48 49 50 52 54 61 65 55 41 27 21 20 20 21 23 25 27 31 32 34 35 33 32
35 34 33 35 35 34 34 33 32 32 32 34 35 38 39 39 41 43 44 46 48 50 51 52 56 63 57 47 32 20 19 19 21 22 24 27 29 31 33 35 36 36 33

GFSGL_500_spd_072.txt.gz
Wind_Speed
35 35 33 32 32 31 31 32 31 31 34 36 39 38 41 42 42 45 52 55 55 58 60 62 61 60 59 59 60 59 58 59 55 63 53 58 49 52 64 75 64 59 61
34 32 32 31 30 30 30 28 29 27 33 35 35 34 40 45 45 47 49 49 53 54 53 54 56 55 54 54 54 56 56 56 58 61 61 52 59 65 66 62 59 60 62
31 31 30 29 30 28 27 27 27 30 30 34 32 33 37 42 42 39 37 48 45 43 48 47 49 50 49 48 47 49 51 52 52 50 57 64 67 63 59 60 60 59 61
29 29 30 31 28 27 26 27 27 27 25 29 30 32 34 36 37 37 39 36 38 39 32 36 41 41 40 38 36 41 43 46 49 54 55 54 55 55 57 58 62 58 53
29 31 30 27 26 25 25 26 26 24 23 23 22 27 29 34 36 35 35 34 36 30 31 30 26 29 35 34 28 33 42 46 47 44 44 48 51 53 46 41 45 50 55
30 27 26 26 24 25 25 27 28 26 24 24 26 29 27 29 31 31 31 28 26 28 25 15 19 23 18 21 29 35 42 46 35 40 43 38 36 38 42 44 50 58 61
24 25 25 23 24 25 27 26 26 27 25 27 29 24 27 31 27 27 28 27 24 21 21 17 19 19 20 29 28 29 32 35 34 26 29 33 37 41 47 51 56 60 60
21 20 19 19 23 25 26 26 26 24 23 24 25 26 27 26 28 27 25 25 19 22 19 18 21 17 18 21 19 19 22 23 26 30 34 38 43 47 50 53 56 54 50
19 18 20 21 23 25 26 26 24 21 23 24 23 22 24 26 27 26 24 22 21 20 18 18 18 19 18 19 19 22 24 26 30 34 38 42 45 46 51 52 47 44 44
19 19 20 21 23 23 25 23 22 24 25 21 23 25 26 25 25 24 24 23 21 20 19 20 20 21 23 25 26 27 29 32 35 39 41 43 47 50 50 46 42 41 38
17 17 17 18 18 20 21 21 22 21 20 22 24 25 24 23 22 21 22 21 21 22 22 23 25 26 28 30 31 32 34 36 37 39 42 45 49 49 46 44 40 38 39
15 15 16 18 19 19 19 18 18 19 20 22 23 21 21 20 20 21 22 22 23 25 27 28 30 31 33 34 35 35 36 36 38 40 43 45 46 47 43 41 40 41 42
17 18 18 18 19 16 17 17 18 19 20 22 21 20 20 21 22 23 25 26 27 28 30 32 34 35 36 37 37 37 38 39 40 41 42 43 45 45 41 40 40 39 40
19 17 15 14 14 16 17 17 17 18 20 21 20 20 21 22 23 24 25 27 29 31 32 34 36 38 39 39 38 38 39 40 42 43 42 43 44 42 39 39 38 37 36
17 15 14 15 17 18 17 17 19 19 20 21 21 22 22 23 24 25 28 29 30 32 34 37 38 40 39 39 39 39 40 41 42 43 43 44 43 40 39 38 36 35 34
17 17 17 18 18 18 17 19 20 19 20 22 23 24 24 25 27 28 30 32 33 35 37 38 40 40 40 40 39 40 40 42 43 44 44 44 42 38 38 39 36 35 35
19 20 20 20 20 19 17 18 20 21 22 23 25 26 27 28 29 31 32 33 35 37 38 39 40 40 39 40 40 42 42 44 45 46 46 45 41 36 37 37 34 35 37
21 22 22 22 22 18 18 20 22 23 24 25 26 27 28 29 31 33 34 35 37 39 39 39 41 41 41 42 43 44 46 47 48 50 49 46 40 34 35 33 32 34 35
19 20 20 20 19 18 20 24 25 25 25 26 28 29 29 31 32 34 35 36 38 39 40 41 42 41 41 43 46 48 50 51 54 56 52 47 36 31 32 29 31 34 36
19 18 18 18 19 19 20 23 26 27 27 27 29 29 31 32 33 35 37 38 40 41 42 43 44 45 47 49 50 52 52 58 60 56 49 40 30 29 29 28 32 34 34
23 22 21 22 22 24 27 28 30 29 28 29 30 31 33 33 34 36 37 40 42 44 44 45 46 48 50 51 52 53 60 63 56 48 38 28 26 26 25 26 29 32 33
26 25 25 26 27 30 31 31 30 31 30 31 31 33 33 33 35 37 38 41 43 45 46 47 48 50 51 51 52 59 64 59 49 36 24 22 22 22 21 24 30 31 33
29 29 30 31 32 32 32 31 31 32 33 32 33 33 33 34 35 37 39 41 43 45 47 48 48 51 50 51 55 62 61 53 38 22 17 19 20 20 22 26 29 31 32
32 33 33 31 32 34 34 33 34 34 33 33 34 33 32 34 36 39 41 41 43 45 47 47 49 51 50 52 57 60 56 43 26 17 16 18 20 22 24 27 30 32 34
33 36 36 36 35 39 38 37 37 35 34 34 34 32 33 36 38 40 40 41 43 45 46 48 49 50 49 52 57 55 49 33 19 16 17 20 22 24 26 30 32 33 35
33 34 34 35 38 39 38 37 37 35 35 35 34 33 35 38 40 41 40 42 44 47 47 48 48 49 49 52 54 48 42 29 19 17 20 23 25 28 29 32 34 35 36

GFSGL_500_spd_075.txt.gz
Wind_Speed
39 39 39 38 36 35 34 35 35 33 32 32 31 32 36 36 30 32 37 38 39 41 46 49 53 54 51 60 57 55 54 57 56 54 54 51 56 59 59 65 68 68 64
38 36 35 34 34 34 34 34 32 32 31 30 32 34 31 29 32 34 37 37 38 40 43 45 50 55 50 49 47 46 47 48 46 46 50 51 51 53 55 59 63 62 64
34 33 33 33 33 34 33 32 33 31 29 30 34 34 29 27 30 31 34 36 38 38 38 39 40 40 43 35 34 37 39 40 40 40 41 44 47 49 52 55 52 56 53
32 31 32 33 33 32 31 31 29 29 29 29 32 30 27 27 30 32 34 36 37 38 37 37 36 34 35 29 25 27 32 36 34 30 36 44 45 48 48 50 52 50 46
30 31 31 30 30 31 30 27 28 28 28 30 32 30 31 32 33 33 37 33 33 35 35 31 31 28 26 23 22 22 24 25 27 28 37 39 40 40 43 37 35 36 39
28 28 29 30 30 28 26 27 27 27 28 29 29 33 33 33 31 35 33 34 32 32 32 29 28 28 25 24 25 21 24 24 25 31 38 39 33 26 29 32 36 41 42
27 28 28 27 26 25 26 26 27 28 27 26 29 30 28 30 32 32 32 34 33 31 28 28 28 26 25 25 24 23 25 22 20 20 23 24 27 31 34 37 41 44 48
24 23 22 22 22 22 22 26 26 27 25 26 28 26 29 31 30 32 32 30 29 28 26 24 22 21 21 21 20 22 22 23 25 26 28 31 33 37 40 42 45 47 47
21 21 20 19 20 21 24 23 25 24 24 25 26 28 28 28 29 30 28 26 25 25 25 25 25 25 25 25 25 26 26 27 29 32 34 36 38 40 42 45 44 44 45
22 22 21 20 20 22 21 22 22 22 22 25 25 26 26 28 28 25 24 24 24 25 25 25 25 26 27 29 30 32 33 33 34 35 35 36 37 40 42 41 42 43 44
19 19 20 18 17 18 17 18 19 21 22 22 22 23 26 26 24 23 23 24 24 25 26 27 28 29 30 32 33 34 35 36 36 35 36 37 38 40 40 41 41 42 45
19 16 16 16 16 17 17 18 20 20 20 21 22 23 25 23 23 23 24 25 25 26 27 28 29 31 33 35 37 38 38 38 37 36 37 37 39 41 41 41 42 44 43
16 15 16 16 17 16 16 16 16 19 20 21 21 23 24 24 24 25 25 26 27 28 30 31 33 34 36 37 38 39 39 39 37 37 38 39 41 42 42 43 44 45 43
17 17 17 17 16 14 14 15 18 19 19 20 21 23 24 25 26 26 27 29 30 31 33 33 35 37 38 38 40 41 40 40 39 40 40 41 43 44 44 45 46 44 40
16 16 16 15 14 14 16 18 19 19 19 20 21 22 24 25 27 28 29 30 31 33 34 35 38 39 39 41 42 42 41 40 40 42 44 45 46 47 48 49 49 44 39
16 16 16 17 17 17 18 19 20 20 20 21 22 24 25 26 27 29 31 31 32 33 35 37 39 40 41 42 43 42 41 42 44 45 47 48 49 51 53 52 50 40 36
17 18 19 20 20 20 20 21 19 18 20 21 23 24 26 27 28 30 31 32 33 35 37 39 41 41 42 44 44 44 45 47 48 49 50 52 57 60 57 51 42 36 33
16 19 21 22 22 22 22 21 19 20 22 24 25 26 27 28 30 31 32 33 34 36 37 40 41 42 43 45 46 47 48 50 50 51 55 61 61 56 49 41 34 31 29
14 15 19 22 23 22 21 19 19 19 20 22 25 27 28 30 31 33 33 34 36 37 39 41 41 42 43 46 47 49 51 51 52 56 62 64 57 49 38 30 27 25 25
22 20 19 19 21 21 21 22 23 24 27 28 29 29 30 31 32 33 34 34 36 38 41 42 42 42 46 48 49 51 52 52 55 61 64 60 49 35 24 21 20 22 23
24 23 23 23 23 24 24 25 26 29 31 30 29 30 31 32 32 33 34 35 37 39 42 42 41 43 46 47 51 52 51 54 57 62 61 51 34 20 15 16 18 20 21
28 28 28 27 27 27 27 28 30 33 32 32 32 33 34 33 33 34 34 36 37 41 42 42 42 45 48 48 51 51 50 53 59 57 53 38 21 14 13 17 18 21 25
31 30 30 31 31 29 31 33 33 34 35 35 35 36 36 34 35 34 35 36 39 42 43 42 44 46 48 50 50 49 49 52 56 50 43 27 18 14 16 20 22 24 27
30 32 32 33 35 36 36 36 36 38 38 40 39 39 37 35 35 34 35 38 41 43 42 42 45 47 51 49 49 47 48 51 51 44 36 24 19 20 23 25 27 29 30
28 30 34 36 37 37 39 38 41 43 43 40 40 40 37 34 34 34 36 39 42 43 42 43 46 49 52 49 47 46 46 49 48 39 33 28 25 26 28 29 31 32 34
30 29 31 33 35 37 40 43 43 42 42 39 39 37 34 33 35 37 38 40 42 42 43 45 49 50 52 47 45 46 46 50 48 40 33 31 32 32 32 33 34 35 36

GFSGL_500_spd_078.txt.gz
Wind_Speed
38 38 38 40 41 41 42 42 42 41 39 38 36 35 34 33 34 37 37 35 34 36 38 41 43 43 42 43 43 44 48 47 43 37 36 40 43 50 46 48 54 55 53
39 41 40 40 41 41 41 40 39 37 36 36 35 34 34 33 35 38 39 34 33 36 38 40 42 42 44 42 39 38 41 41 35 34 31 32 36 34 37 38 43 46 48
40 39 40 39 39 38 36 36 35 35 36 35 34 34 33 34 35 38 36 36 37 37 41 40 41 41 40 38 37 37 36 35 32 29 30 34 34 34 36 36 42 43 44
38 37 35 34 34 33 34 34 35 35 35 35 34 34 33 34 37 37 37 38 39 38 38 38 39 39 38 35 37 39 36 33 30 26 26 26 25 26 27 35 36 38 39
33 32 31 31 31 32 33 34 34 34 34 33 32 32 33 34 36 37 37 36 36 38 37 40 38 35 34 35 35 35 34 29 27 26 24 24 26 31 34 40 36 28 30
29 29 30 29 29 31 32 33 32 32 31 31 30 31 32 33 34 34 33 34 36 37 37 34 32 32 32 30 29 27 25 26 26 26 26 26 26 26 28 29 32 34 36
27 27 28 29 29 30 31 30 30 29 29 28 29 30 31 31 32 32 34 34 35 35 31 30 29 29 28 27 27 26 27 28 29 30 30 30 31 33 35 36 38 40 42
27 26 26 28 28 27 27 27 26 26 27 28 28 30 29 28 30 33 33 33 33 29 27 28 29 29 28 28 28 29 30 31 32 33 33 35 36 38 39 40 41 42 42
26 26 26 25 24 24 23 23 23 24 24 26 27 26 26 28 31 31 31 31 28 26 27 28 28 28 28 29 30 32 33 34 36 37 37 37 38 39 39 40 41 42 44
24 25 24 25 25 24 22 22 22 21 23 23 23 24 27 29 29 28 30 27 26 26 28 28 28 29 30 31 33 35 36 38 38 39 40 40 39 39 39 40 41 43 46
23 23 23 24 23 20 20 20 20 19 19 20 23 25 27 27 27 28 26 26 26 27 28 28 29 30 31 33 35 37 38 39 40 41 41 40 39 39 40 40 43 45 46
21 21 22 20 18 20 20 18 18 18 19 21 22 24 26 25 26 26 25 26 27 28 28 30 31 33 33 35 37 38 39 40 41 42 41 40 38 39 41 42 44 46 48
20 21 21 19 19 19 17 18 18 18 20 20 22 24 24 24 24 24 25 27 28 29 30 31 32 33 35 37 39 39 40 41 42 42 41 39 40 43 45 46 47 49 51
20 20 19 17 18 18 18 18 18 19 20 21 23 24 25 24 24 24 25 27 29 31 31 32 34 35 36 38 39 40 41 42 44 44 43 44 45 47 48 49 50 52 56
19 20 20 18 18 19 19 18 18 19 21 23 25 25 23 24 25 26 27 28 30 31 32 34 35 36 38 40 40 41 41 44 45 45 46 47 49 50 51 53 58 62 59
17 17 17 17 18 19 19 19 19 21 23 24 24 23 22 24 25 26 28 29 31 32 33 34 36 37 40 41 41 41 42 46 47 48 49 50 52 53 57 62 64 59 53
18 18 18 19 20 21 21 21 22 23 24 22 21 22 23 25 26 28 29 30 32 33 34 36 37 38 41 42 41 41 45 48 49 50 51 52 54 58 65 66 59 52 44
19 20 21 21 22 23 24 25 25 26 24 22 21 19 20 23 26 27 30 32 32 34 35 36 38 40 42 43 42 42 47 49 51 52 52 53 56 62 65 60 47 37 30
20 19 19 19 22 24 26 27 27 27 25 24 23 25 27 28 28 29 31 33 33 35 36 37 38 41 43 44 42 44 47 50 52 52 52 53 57 61 60 46 31 22 15
22 23 22 19 20 21 23 26 27 28 27 27 28 29 30 31 32 32 34 34 35 36 38 38 39 42 45 43 43 46 50 54 51 50 50 52 57 56 47 32 20 13 12
24 25 27 28 26 26 26 27 27 28 28 29 30 31 32 33 33 36 37 37 36 37 39 39 41 44 46 44 44 47 51 55 51 49 49 51 55 49 38 23 16 15 18
27 27 28 30 30 30 30 30 30 31 30 31 34 35 36 36 38 40 40 39 38 38 39 41 43 45 45 44 45 48 54 56 50 47 47 50 53 44 34 25 21 22 24
28 29 32 35 35 35 35 36 34 34 34 35 37 39 40 40 41 42 41 39 38 39 39 41 43 45 44 45 47 52 55 51 46 46 46 49 51 43 34 30 29 30 30
32 32 31 33 34 35 35 35 36 38 39 39 42 44 45 45 45 42 41 38 38 38 40 42 44 44 45 46 48 54 52 47 46 46 46 49 49 44 38 35 34 35 35
37 35 32 32 33 34 37 38 39 40 42 42 46 49 49 45 43 40 39 36 37 39 42 43 44 45 46 47 52 53 48 46 46 46 47 49 50 45 42 39 39 40 41
41 39 37 35 35 34 36 39 41 42 44 47 46 45 43 41 39 39 36 36 39 41 43 45 47 47 46 49 54 50 48 47 47 48 48 51 52 48 46 45 45 44 44

GFSGL_500_spd_081.txt.gz
Wind_Speed
44 43 47 44 42 42 42 42 42 42 42 43 44 44 43 40 37 37 36 35 36 37 39 39 38 40 42 45 44 44 45 44 41 43 44 42 37 33 34 35 28 26 32
44 44 46 47 43 43 43 42 43 44 44 43 43 41 38 37 36 35 34 34 36 38 39 39 42 43 44 45 45 45 42 40 41 43 42 38 34 32 27 27 28 34 39
41 41 41 43 44 44 43 45 44 43 42 41 38 37 37 36 34 35 34 35 37 39 38 40 41 42 44 45 46 39 37 38 39 37 36 35 34 33 30 29 28 28 33
38 42 42 42 42 42 42 41 41 40 38 37 36 36 35 34 35 34 35 36 38 38 40 39 39 42 44 43 37 34 34 33 32 30 30 30 31 30 30 31 32 35 36
36 38 41 42 41 39 38 37 36 35 36 35 35 35 34 35 33 34 35 36 36 37 37 38 39 42 40 35 32 32 32 31 29 31 32 34 34 35 35 35 35 37 35
36 36 38 38 36 35 35 34 33 34 34 33 33 34 33 32 33 33 33 34 35 35 37 38 40 37 33 32 32 31 29 29 31 32 33 34 35 35 36 37 38 40 40
35 36 34 33 33 33 33 33 32 32 30 32 33 31 30 31 31 32 31 32 33 35 37 38 35 31 31 31 31 30 30 31 32 34 36 36 37 39 40 41 42 44 44
33 33 32 32 32 32 31 30 29 30 31 31 30 29 29 30 30 30 30 30 33 35 35 33 30 30 30 29 30 31 31 32 33 36 38 39 40 42 41 42 42 42 43
30 30 30 30 30 30 29 28 29 30 30 28 27 27 27 26 27 27 28 31 32 33 33 30 29 30 30 31 32 32 32 33 35 37 39 40 42 43 43 43 41 40 41
29 30 30 29 29 28 27 27 26 24 24 24 23 23 23 24 25 26 28 30 31 32 30 28 28 29 30 31 32 33 34 35 37 38 40 41 42 44 45 43 39 39 40
28 28 28 27 27 28 27 27 25 25 23 22 22 22 23 24 25 26 27 29 31 29 28 28 28 30 31 32 33 35 36 37 38 40 41 42 44 45 44 43 43 44 45
25 26 26 26 26 25 26 25 23 23 22 21 21 22 23 24 24 25 27 28 28 27 27 28 30 31 32 33 34 35 37 39 40 41 41 43 46 47 45 44 45 47 48
24 25 25 25 24 23 22 22 22 21 20 21 22 23 22 23 25 25 27 27 26 26 27 28 30 32 33 34 35 36 38 40 42 42 43 45 48 48 48 47 49 50 52
23 23 23 23 23 23 22 21 20 20 21 21 21 21 22 24 25 27 28 28 28 28 29 30 31 33 34 36 36 37 39 41 43 44 45 47 50 50 49 49 51 54 58
21 21 22 22 22 20 21 21 22 22 21 21 21 22 23 25 25 26 26 26 27 28 30 31 33 34 36 37 36 38 40 43 44 45 47 48 51 53 52 51 54 57 64
19 20 20 21 22 22 22 22 22 22 22 21 21 23 24 24 24 25 26 27 28 29 31 32 34 36 37 36 37 39 42 45 46 46 49 52 56 53 51 51 56 61 64
20 20 20 20 21 22 22 23 23 24 23 23 24 25 24 24 23 22 24 26 27 29 31 34 36 38 38 37 38 40 44 47 46 47 49 52 57 51 51 51 55 59 56
23 23 23 22 21 22 23 25 26 27 26 27 27 27 25 25 25 27 29 30 29 30 33 36 38 39 39 39 39 42 46 48 47 47 49 55 57 50 49 50 56 53 45
22 22 23 24 25 26 28 28 29 30 30 30 29 29 29 29 29 30 31 30 31 33 36 38 39 40 41 41 41 43 48 50 47 50 53 58 54 48 48 49 53 47 37
26 25 25 26 25 26 24 25 28 30 30 31 31 30 31 31 32 33 33 33 34 37 39 41 41 42 42 42 43 44 48 49 47 50 54 55 49 48 48 48 51 44 37
27 27 27 28 28 30 28 26 27 28 28 29 31 31 32 34 34 36 37 38 38 40 43 43 44 44 42 43 43 45 48 48 49 51 56 51 47 48 47 47 50 45 38
29 29 29 30 30 30 32 31 31 30 31 32 34 34 36 36 36 38 40 42 44 46 47 44 44 43 41 43 44 46 47 48 50 53 54 49 49 49 48 47 49 47 42
32 33 33 33 33 34 35 35 35 36 37 38 38 38 38 39 40 43 46 47 49 49 47 44 42 40 40 43 44 47 48 50 51 55 53 52 50 49 49 50 50 50 46
35 34 35 34 34 34 33 36 40 41 41 40 39 39 41 42 44 47 49 50 51 48 44 42 40 40 42 44 46 47 48 51 51 54 53 53 52 52 52 52 53 53 51
41 41 41 40 39 38 38 37 36 38 41 43 44 43 44 46 47 49 51 49 46 44 42 40 40 42 43 46 48 48 48 51 53 53 53 55 54 54 55 55 56 57 54
41 42 43 44 43 42 42 41 39 39 41 40 41 43 45 46 47 47 45 43 42 39 38 40 43 44 45 48 48 50 51 55 53 55 54 56 56 58 59 59 61 60 56

GFSGL_500_spd_084.txt.gz
Wind_Speed
52 51 51 53 56 56 55 53 49 44 42 43 43 43 42 42 43 44 44 41 38 37 36 35 34 35 37 37 40 41 43 46 47 43 39 38 38 35 33 34 32 32 32
52 49 48 48 49 48 44 47 47 44 44 44 43 43 43 43 44 43 41 38 37 36 35 34 35 36 37 38 38 40 42 45 41 37 35 33 31 29 30 30 30 31 32
49 51 49 48 47 46 45 46 49 45 44 45 44 45 46 44 43 39 38 37 35 35 33 33 34 36 37 37 39 41 43 39 36 35 34 31 30 32 32 33 34 34 35
41 44 45 44 42 41 39 40 41 46 47 45 47 44 43 41 38 37 35 34 34 32 32 32 33 35 35 36 39 41 38 35 35 32 30 31 32 33 33 34 35 36 38
30 34 36 38 38 39 40 39 40 41 43 42 42 41 40 37 36 35 34 33 30 30 31 31 32 33 35 38 39 36 34 33 32 31 32 33 33 34 35 36 38 39 40
35 34 30 30 33 37 39 43 45 42 40 39 41 38 35 35 34 34 31 29 29 29 29 29 31 32 36 38 36 32 32 31 31 32 32 33 34 34 37 38 40 40 42
42 40 39 36 36 36 35 39 40 40 38 37 35 34 34 32 32 29 28 28 28 28 29 30 31 34 35 35 32 31 31 31 33 33 33 34 35 36 38 40 41 42 44
36 36 42 46 44 44 40 40 37 35 34 34 32 32 31 31 29 28 27 28 26 28 28 29 32 33 33 31 30 30 32 34 34 34 35 36 37 39 40 41 42 44 46
36 35 35 36 38 37 36 36 34 33 32 31 33 31 30 28 27 27 26 25 27 26 27 29 31 32 30 29 29 30 32 33 34 35 36 37 38 40 41 43 44 47 48
37 39 36 37 35 34 33 34 32 31 30 31 29 27 26 26 26 25 25 25 26 26 27 28 31 29 29 29 30 32 32 34 35 36 37 38 40 42 44 45 47 50 47
32 33 34 33 32 31 31 31 29 30 30 26 25 25 25 24 25 24 25 25 26 25 26 28 27 26 27 29 30 32 33 35 36 37 38 40 42 43 45 48 49 52 49
29 30 30 31 31 32 32 30 29 28 27 26 25 25 24 23 23 24 25 25 25 25 27 26 26 27 28 29 31 33 35 36 38 38 40 41 44 46 47 49 52 55 50
26 27 29 29 29 29 27 26 26 25 26 25 25 23 23 23 23 23 24 24 24 26 27 27 28 28 29 31 33 34 36 37 39 39 42 44 46 47 48 50 55 55 49
24 26 26 25 25 24 25 25 24 24 24 24 24 23 23 23 23 24 24 24 24 25 26 27 29 30 31 32 34 35 37 39 40 41 43 45 47 48 50 52 57 55 50
19 20 22 23 23 23 23 23 24 24 24 24 23 23 23 23 23 24 24 24 25 26 27 29 30 30 30 32 34 36 39 41 42 42 44 46 48 49 50 54 58 52 48
18 19 20 21 22 22 23 23 23 24 24 25 25 24 23 23 23 24 23 23 25 25 26 28 30 29 30 33 35 38 41 42 42 44 46 47 50 49 51 54 54 48 48
19 19 19 20 21 22 24 25 24 25 25 26 26 25 25 25 25 24 25 25 25 27 30 31 31 33 34 35 38 41 44 45 44 45 46 49 49 48 52 56 49 49 49
23 23 22 21 22 23 23 24 25 26 26 27 28 28 28 27 27 27 28 29 29 30 31 32 33 35 37 39 41 44 45 46 45 45 47 49 50 49 53 53 48 49 48
23 25 26 26 25 25 25 26 27 28 29 30 31 32 32 32 32 30 31 32 33 33 35 36 36 38 40 43 46 47 47 46 45 46 47 49 49 50 53 51 49 50 47
26 26 26 26 26 27 28 29 30 31 31 32 33 35 34 35 34 33 33 34 35 37 38 38 39 41 43 47 50 47 46 44 45 46 47 49 49 50 52 51 50 49 48
29 30 30 29 28 30 30 29 30 29 29 29 30 30 30 31 33 34 35 36 39 39 40 41 43 46 49 50 47 45 44 44 45 47 48 49 50 51 53 52 51 51 50
30 30 31 31 32 30 30 32 31 33 34 33 33 32 31 33 36 36 36 38 40 42 45 45 48 50 51 47 44 45 44 45 48 49 49 48 51 54 53 53 54 54 52
34 33 33 34 35 34 33 33 35 36 37 37 38 39 38 38 39 40 41 42 43 45 48 48 50 52 46 44 44 44 44 48 49 50 51 53 55 56 53 54 55 57 57
38 39 38 37 37 38 37 35 34 35 36 36 38 42 45 46 45 45 44 44 46 47 49 49 49 46 42 41 41 43 47 48 50 53 56 58 56 54 54 56 58 60 60
40 41 41 42 41 40 39 38 38 38 38 38 40 40 41 42 43 45 46 46 47 46 46 46 44 40 37 37 41 44 47 49 51 53 52 51 53 55 56 58 61 60 61
40 42 43 43 43 44 44 45 45 45 45 45 44 45 44 42 42 39 42 44 44 45 45 42 36 32 35 39 42 43 44 47 50 53 53 53 54 56 57 60 59 61 61

GFSGL_500_spd_087.txt.gz
Wind_Speed
45 45 46 47 50 51 51 51 51 52 53 53 53 52 52 46 43 43 42 40 42 42 46 43 39 36 35 32 31 32 34 35 37 38 39 39 36 35 33 30 30 32 33
51 49 51 53 53 51 52 53 54 55 54 54 54 50 44 42 43 42 42 42 44 44 42 39 37 35 32 31 30 32 34 35 37 38 38 35 34 33 31 30 32 33 33
47 48 50 56 57 53 51 50 47 46 48 47 45 49 46 42 42 41 42 43 42 41 39 37 36 33 31 31 30 32 33 35 36 35 34 33 31 31 32 32 32 32 34
47 51 49 46 51 52 52 50 48 45 46 46 43 43 49 47 45 44 43 42 39 38 37 34 32 30 30 29 30 31 33 33 33 33 31 30 32 32 32 31 32 33 36
42 44 46 42 38 42 46 48 45 42 39 39 38 36 40 39 42 41 39 38 37 36 33 32 30 29 28 28 29 31 31 32 31 31 30 31 32 33 32 33 34 35 36
39 38 37 36 32 32 35 36 39 39 39 40 41 41 39 41 38 38 38 37 34 33 30 29 27 27 28 27 29 30 30 30 31 29 30 31 32 32 33 34 34 36 37
33 32 33 39 33 32 30 32 34 35 38 39 40 43 43 41 40 37 34 32 33 29 28 27 25 27 27 28 28 29 29 30 30 30 30 31 31 32 33 34 36 38 40
34 31 29 35 33 39 40 38 37 36 37 37 42 40 39 36 33 31 32 31 28 27 26 26 26 27 27 27 27 28 28 29 29 30 31 32 33 34 34 35 37 40 42
36 36 36 35 34 36 39 45 48 48 44 41 38 36 34 32 29 32 31 27 26 26 26 25 26 26 25 26 27 27 28 28 29 30 32 33 34 35 36 38 40 42 45
34 35 36 35 40 39 39 39 38 37 36 36 35 33 32 31 32 28 26 26 26 25 25 26 25 25 25 25 25 26 27 27 29 31 33 34 35 36 38 40 42 44 46
31 33 34 36 36 38 38 36 35 33 33 33 32 33 29 29 26 25 26 26 25 24 25 24 25 24 24 25 26 27 27 29 30 31 33 35 37 39 40 42 43 44 47
25 28 31 30 32 34 35 34 32 29 29 31 30 30 28 26 27 26 25 24 24 24 25 25 24 24 25 27 28 28 28 29 30 32 34 36 38 40 42 43 44 45 48
29 29 26 29 31 31 30 29 29 32 33 31 29 28 28 29 27 25 24 23 24 25 25 24 25 25 25 27 28 28 28 29 31 33 36 39 40 41 43 45 46 47 49
24 25 26 28 28 29 31 31 30 28 27 28 29 29 28 27 25 23 23 24 25 24 25 25 25 26 27 28 28 27 29 31 32 35 38 41 42 44 45 46 47 49 50
23 23 22 23 24 25 26 26 26 26 27 26 25 26 26 25 24 23 23 24 24 25 25 25 26 26 26 27 29 30 32 33 35 37 40 43 44 46 47 47 48 49 50
22 21 20 20 21 22 23 24 26 26 26 25 26 25 25 25 24 24 24 23 24 25 25 25 24 26 28 29 31 33 34 36 38 41 43 45 46 47 47 47 48 50 52
22 22 21 20 21 22 23 24 25 24 24 24 25 25 26 26 25 25 25 25 25 27 27 27 28 29 30 31 32 34 36 38 41 44 47 47 47 46 47 48 49 51 53
23 23 23 23 22 21 22 22 23 26 26 26 26 27 28 28 28 27 28 29 29 29 30 31 33 34 33 34 35 37 39 42 45 47 46 46 46 46 48 50 51 51 53
23 24 22 23 23 23 23 23 24 25 27 27 28 29 29 29 30 32 32 33 33 33 32 33 34 35 37 38 39 40 42 45 48 47 44 45 45 48 51 51 53 53 55
26 26 24 23 23 25 27 28 28 28 28 27 29 30 30 32 35 35 36 37 35 34 33 35 36 37 40 40 43 45 46 49 49 45 44 44 46 49 51 54 55 57 58
26 26 26 25 26 27 28 28 29 29 29 30 33 34 34 34 34 34 34 34 33 32 33 35 37 39 41 43 47 49 49 49 47 43 43 44 48 50 53 55 55 55 53
32 30 29 30 30 29 31 32 31 30 31 32 33 32 30 30 35 35 35 35 36 37 38 39 40 42 44 46 47 49 49 47 43 40 42 45 47 48 49 51 52 53 54
32 34 35 35 33 33 34 33 33 34 34 34 36 37 37 37 38 39 40 41 42 42 43 43 44 44 45 46 47 46 44 42 38 39 43 42 44 47 49 51 53 54 54
31 33 35 37 38 38 37 38 38 39 39 39 40 40 39 37 37 39 40 40 40 42 43 45 45 44 45 44 44 44 40 35 38 40 40 42 45 48 50 52 53 53 54
33 34 36 36 39 40 42 42 41 40 40 40 39 39 39 39 39 39 41 42 42 41 39 39 40 43 43 44 43 38 33 36 38 38 40 43 46 49 51 53 54 55 54
41 39 39 40 40 41 43 44 45 45 46 45 45 45 45 45 44 45 46 44 44 42 41 41 42 43 44 42 37 33 35 35 35 38 42 45 48 51 53 53 54 54 55

GFSGL_500_spd_090.txt.gz
Wind_Speed
52 51 49 48 49 50 51 53 53 53 52 51 51 50 50 50 50 52 52 51 45 42 42 41 41 43 43 42 39 36 34 32 34 34 34 36 36 35 34 33 32 32 32
57 53 50 50 50 50 47 48 49 51 51 52 51 51 50 49 49 51 53 47 44 42 43 43 43 42 40 39 37 34 32 34 34 33 34 34 34 33 32 31 32 32 33
44 49 48 49 48 49 51 51 51 50 49 50 49 48 46 48 47 46 44 46 43 40 42 44 45 41 40 37 34 31 34 33 33 33 33 33 32 32 31 31 31 32 32
44 48 49 52 52 53 52 54 53 51 51 50 48 45 45 44 43 44 42 42 47 48 46 42 42 38 37 34 31 34 32 32 33 32 32 31 31 31 31 31 31 32 33
45 47 47 49 50 47 49 51 52 52 50 49 49 49 46 44 42 40 38 39 40 42 40 38 37 37 32 34 31 31 31 32 31 31 31 30 31 31 30 30 31 32 33
43 42 42 42 43 43 43 40 43 47 44 46 48 46 43 42 40 40 40 38 41 36 37 42 35 31 34 30 31 31 32 31 30 30 29 30 30 30 29 30 31 32 33
37 34 37 38 41 39 37 35 38 38 38 38 38 39 41 42 43 43 44 43 43 42 39 35 29 33 31 29 30 31 30 29 30 29 29 29 29 28 30 31 32 34 35
36 34 34 36 38 38 40 38 38 36 37 34 35 36 34 35 36 38 41 40 39 35 30 27 32 30 29 30 30 29 29 29 28 28 28 28 27 29 30 31 33 35 37
35 37 37 37 36 35 34 40 41 43 43 46 41 41 39 41 41 39 36 36 32 28 30 32 30 29 29 28 28 28 28 27 27 27 27 27 28 30 31 32 33 35 38
35 34 36 36 37 39 39 39 39 36 39 38 43 44 47 43 39 37 36 32 31 33 30 29 28 27 27 28 28 27 26 26 27 27 27 28 29 30 32 34 37 38 40
35 38 38 41 41 38 38 39 37 39 34 32 33 36 34 34 34 33 31 30 30 28 28 28 27 27 27 27 28 27 28 28 27 28 28 28 30 32 34 37 39 41 43
23 24 27 28 30 32 34 34 35 34 36 36 34 33 30 30 32 30 29 29 28 28 27 27 26 27 27 28 28 29 28 28 27 27 27 29 31 33 36 39 41 43 45
29 29 30 30 28 27 32 30 32 30 33 34 30 28 27 30 31 30 29 29 28 27 27 27 26 27 27 28 29 28 28 27 27 28 29 31 33 34 38 41 43 45 47
27 27 27 26 27 28 28 30 34 32 30 29 29 30 33 32 30 29 29 28 27 27 27 26 27 27 28 29 29 28 26 27 29 31 32 33 34 38 41 43 45 45 47
25 24 24 24 26 25 26 26 27 28 30 30 29 29 30 29 30 29 28 27 27 26 26 27 27 28 29 28 27 26 27 29 30 31 33 35 36 40 44 45 45 45 46
24 25 25 24 24 23 23 23 24 25 26 27 29 29 28 28 28 27 27 27 27 26 27 27 27 28 28 28 28 28 30 30 32 34 36 38 40 43 47 46 44 44 46
23 24 25 25 23 23 23 23 24 25 27 28 28 28 28 28 28 28 28 28 28 29 28 28 29 30 31 32 33 34 34 33 34 36 38 41 44 47 48 45 43 44 48
23 24 25 26 26 26 26 26 25 26 26 27 27 27 27 28 29 29 30 31 31 31 30 30 31 32 32 33 36 36 36 37 38 40 42 46 48 48 46 43 42 45 47
24 23 25 25 26 26 26 25 28 26 26 26 27 27 29 30 30 31 33 33 33 32 32 34 35 36 35 35 36 36 39 40 41 43 46 48 49 47 43 41 43 45 46
26 26 26 25 25 24 23 23 24 25 26 26 28 29 30 32 34 33 32 34 35 35 37 39 38 36 34 34 35 37 40 41 43 46 48 49 49 45 40 41 43 44 47
28 29 30 28 28 27 28 27 27 26 26 29 31 33 34 32 32 33 35 37 38 38 37 36 35 34 36 37 39 41 42 43 44 47 48 47 44 40 39 42 42 45 48
27 29 29 30 31 29 29 29 29 29 29 30 32 33 33 31 34 35 35 34 34 35 36 37 38 40 42 43 43 44 45 45 46 46 45 44 39 38 40 40 43 47 50
25 26 28 30 32 33 35 34 33 34 33 33 34 35 32 31 34 35 36 37 40 40 40 40 42 44 45 45 44 45 43 43 44 45 44 39 36 38 38 40 44 48 51
34 32 30 29 29 32 35 37 39 40 39 40 39 39 38 37 38 39 41 42 42 41 41 42 41 42 43 42 41 41 42 43 44 45 39 35 37 35 38 42 46 49 52
35 35 36 37 37 35 35 36 38 41 42 44 44 43 43 43 43 43 43 43 42 41 42 43 43 43 44 44 43 43 42 44 44 42 35 36 35 36 40 44 47 51 53
39 40 40 41 41 42 43 42 42 42 42 45 46 48 48 49 48 46 45 45 46 46 48 49 48 46 44 43 44 45 45 44 43 36 35 35 35 38 42 46 49 51 54

GFSGL_500_spd_093.txt.gz
Wind_Speed
51 59 61 60 59 56 56 57 51 53 47 44 46 46 46 46 45 47 45 46 47 49 51 50 47 42 43 42 43 44 42 40 37 35 32 34 36 35 36 35 33 31 29
43 55 52 50 60 60 50 51 52 49 48 49 50 52 51 51 50 50 51 51 50 49 51 46 45 43 39 41 44 44 44 38 35 35 32 35 34 35 35 33 31 30 29
46 49 45 44 53 51 54 53 53 51 51 50 49 49 49 48 46 46 47 44 44 43 43 45 44 45 47 47 46 43 40 35 32 33 34 34 34 34 33 31 30 29 29
40 43 45 44 47 53 60 59 57 54 52 51 50 50 48 49 48 46 44 41 42 42 43 44 44 44 44 43 41 38 37 31 34 35 33 33 34 32 32 30 29 29 29
33 41 46 47 47 48 47 50 55 53 49 48 50 51 51 48 46 46 45 45 43 43 43 41 41 39 41 38 37 38 32 31 34 33 32 33 32 31 30 29 28 28 29
35 36 39 46 47 48 47 47 44 43 45 44 45 45 43 44 45 46 45 43 43 42 42 41 42 39 37 39 38 30 33 34 33 31 32 31 31 30 29 28 28 28 28
41 40 38 40 44 45 45 43 41 42 39 42 43 44 43 43 43 43 44 44 44 43 44 43 41 41 41 38 34 32 33 32 31 31 31 31 30 29 28 28 29 29 29
37 36 36 36 37 35 36 40 40 41 40 43 42 40 40 40 40 39 39 37 38 39 36 40 41 39 37 28 31 33 30 30 30 30 30 30 29 28 28 29 29 29 30
33 32 35 34 36 36 35 37 41 41 41 45 43 41 40 40 39 37 37 34 32 33 38 36 36 32 31 30 31 29 30 29 30 30 29 29 28 29 29 29 29 30 32
30 32 32 37 35 37 37 36 35 39 39 38 45 44 43 45 46 47 43 41 41 39 36 34 30 31 30 30 28 29 29 29 29 29 29 29 29 29 29 29 30 31 33
25 26 31 33 36 40 40 38 39 39 39 38 37 41 38 39 36 39 40 39 37 36 34 30 32 30 29 28 28 28 29 30 30 30 31 30 29 30 29 30 31 33 36
26 23 24 23 24 27 30 32 35 40 44 43 41 40 43 34 33 34 34 34 32 30 30 29 29 28 28 28 28 29 29 29 31 31 30 29 29 30 30 32 34 35 37
24 24 25 30 33 32 31 29 27 28 33 34 31 35 34 35 32 33 31 30 31 31 30 28 27 28 28 27 28 29 29 30 31 30 29 29 29 31 32 33 35 37 40
26 27 28 28 29 30 29 29 30 31 32 34 32 32 29 30 29 30 30 29 29 29 29 28 27 28 27 27 28 29 30 31 30 28 29 29 30 31 34 35 37 40 43
28 27 26 25 26 25 26 27 27 27 28 29 30 32 31 30 29 28 30 30 30 30 28 27 28 28 27 28 29 29 30 29 28 28 29 30 32 34 35 37 41 43 45
28 28 28 27 28 27 26 27 26 26 25 25 26 27 28 28 30 30 29 30 30 27 27 29 28 28 28 28 28 30 31 31 31 32 33 34 35 36 38 41 44 45 46
27 27 26 27 28 28 28 27 25 24 25 25 25 27 28 29 29 28 28 28 27 28 29 29 29 29 28 29 29 31 33 35 36 37 38 38 39 40 42 44 46 47 47
24 27 27 26 27 27 28 28 27 26 26 26 26 27 28 28 29 29 29 29 30 31 31 30 31 31 30 30 31 32 34 36 37 37 38 39 41 42 44 45 47 47 45
25 26 25 26 26 27 28 27 28 27 26 26 27 26 26 27 27 27 29 31 32 32 32 33 34 33 32 33 34 37 38 37 36 37 37 40 43 43 44 46 46 45 41
26 27 27 28 28 27 27 26 26 25 24 24 25 26 27 27 28 29 31 33 33 33 34 35 35 35 36 37 37 36 35 35 37 39 41 42 44 44 45 44 45 41 37
24 26 28 29 30 30 30 29 29 29 29 25 24 26 28 28 29 31 33 35 36 35 34 34 35 37 38 36 35 36 37 39 41 43 45 48 46 45 44 44 42 36 36
28 28 27 26 29 31 31 32 33 30 30 29 29 29 29 28 31 36 37 38 38 36 36 36 36 36 35 36 38 39 40 43 46 45 44 44 42 43 44 44 39 36 34
32 33 31 29 28 28 29 31 33 34 35 34 34 35 35 33 33 33 34 35 35 34 35 34 35 37 40 41 41 42 43 43 43 43 43 43 44 43 44 42 36 34 36
35 36 37 38 37 35 35 33 32 32 34 37 38 40 39 38 38 37 38 38 37 38 39 39 40 41 43 42 41 41 43 44 44 44 44 44 43 45 44 40 36 35 38
38 39 39 39 39 39 38 39 39 39 38 37 37 39 42 43 44 44 43 43 44 44 43 43 43 44 43 43 44 46 47 46 45 44 44 45 44 44 45 38 37 38 40
32 35 38 40 42 43 43 43 44 44 44 44 44 44 44 44 45 47 48 49 48 48 48 47 46 46 47 48 50 51 50 46 44 44 45 45 44 45 42 38 39 41 43

GFSGL_500_spd_096.txt.gz
Wind_Speed
35 42 43 49 52 53 56 52 51 53 52 50 52 51 46 48 46 47 42 41 40 40 40 40 42 44 45 44 42 42 40 39 40 43 40 38 35 32 32 33 30 32 31
33 32 39 41 48 55 56 56 58 56 56 55 52 49 47 47 46 45 45 44 46 46 44 44 44 43 43 40 41 41 42 44 47 43 38 36 31 31 32 30 29 30 29
32 35 36 41 45 49 51 57 53 54 63 65 51 47 48 49 47 45 46 45 44 43 41 38 36 36 38 39 40 42 41 41 40 40 35 33 31 32 30 30 29 29 29
29 29 32 39 44 44 49 49 47 48 47 48 49 51 51 51 49 47 46 45 42 42 42 40 38 38 40 41 41 40 39 39 36 36 32 30 33 30 30 30 28 29 28
25 27 28 30 33 35 41 43 45 47 49 48 52 54 55 51 49 50 47 47 48 45 41 41 42 42 42 41 39 35 37 35 36 35 30 35 31 29 30 28 28 28 27
31 32 34 35 35 36 38 41 45 48 47 47 48 45 45 47 46 47 46 45 42 41 42 42 43 42 43 42 41 41 38 39 36 30 30 34 29 30 29 28 28 28 28
32 34 35 38 39 41 42 41 42 44 46 46 47 44 44 40 42 41 41 40 41 42 43 44 44 44 43 42 38 35 35 36 30 28 33 29 29 29 28 28 28 28 28
35 35 37 37 40 39 38 39 39 42 43 43 44 43 42 38 40 41 42 40 40 39 39 40 39 40 39 36 36 35 34 27 30 29 30 29 29 28 28 28 28 28 28
35 35 36 36 36 36 36 36 35 37 40 42 43 42 44 46 44 45 40 38 35 33 32 34 32 31 32 34 34 30 28 32 28 29 29 29 28 27 28 29 29 29 29
33 34 33 33 32 36 35 35 34 36 37 36 35 38 43 42 39 45 44 39 35 36 36 37 35 36 35 32 30 28 32 29 27 29 28 28 27 28 30 29 29 29 29
30 31 30 31 29 30 33 34 33 37 37 36 35 39 35 36 36 37 42 40 41 35 38 38 37 32 31 33 31 29 28 26 28 28 27 27 29 30 29 29 29 29 31
30 31 31 30 26 27 27 24 24 27 31 36 41 43 45 41 36 36 37 40 34 34 31 31 32 33 33 33 29 27 27 27 28 27 28 29 30 28 29 28 29 30 31
33 30 27 24 24 26 27 30 32 31 31 33 29 28 29 32 34 37 38 37 37 31 31 32 31 32 33 30 28 28 27 28 27 27 29 29 29 28 28 28 29 30 32
31 30 29 28 29 31 30 29 28 28 28 28 30 31 32 32 32 32 34 34 34 32 32 32 34 34 29 31 28 28 28 27 27 29 29 28 26 26 27 28 30 32 34
29 30 31 32 30 29 29 28 27 26 25 28 29 29 30 32 32 31 31 32 31 32 33 32 32 30 33 28 30 30 27 26 28 28 28 27 28 29 30 32 33 35 38
27 27 28 29 28 30 28 28 28 28 27 26 26 28 27 26 27 30 30 28 28 30 32 33 32 34 32 31 32 28 26 26 27 27 29 31 33 34 34 36 37 39 40
30 29 29 29 29 28 27 27 27 27 27 28 25 23 25 26 26 27 29 29 29 28 30 31 31 31 32 32 30 28 27 27 27 28 29 30 33 35 35 36 38 39 40
29 28 27 27 28 29 28 27 27 26 26 26 26 24 23 23 26 28 28 28 29 30 30 30 31 32 33 32 30 30 30 28 29 30 32 34 34 34 35 36 39 40 42
24 25 26 27 27 28 28 28 26 25 25 25 25 25 23 22 24 25 25 27 28 30 31 32 34 34 34 34 32 33 33 32 32 34 35 34 33 34 38 39 41 44 45
23 24 25 26 27 29 29 29 29 27 27 27 26 24 24 22 22 23 24 26 28 29 31 33 35 35 35 35 34 35 36 35 36 38 37 35 37 38 42 44 44 43 40
21 22 23 25 26 25 27 30 30 30 30 29 27 27 29 24 24 25 26 26 28 31 32 34 35 36 36 34 34 37 36 38 37 35 36 37 39 42 40 40 40 40 40
28 29 29 30 30 30 29 28 27 29 31 31 32 31 30 28 28 28 28 29 31 32 33 35 35 35 36 37 37 37 37 36 37 38 38 39 42 42 42 41 41 41 41
33 34 33 32 32 33 34 33 32 30 30 30 31 33 34 35 33 32 32 33 32 33 33 33 35 36 36 36 36 36 37 39 40 40 41 42 41 42 43 43 42 42 42
35 36 36 37 37 38 38 39 39 38 38 37 36 34 33 34 37 38 38 37 36 36 35 35 36 37 37 38 39 41 42 42 42 43 43 42 43 44 44 42 42 43 42
35 36 37 38 38 40 41 42 42 42 42 41 39 39 40 40 38 38 38 39 41 42 42 41 40 39 40 41 41 42 42 43 43 44 45 46 46 44 43 42 42 43 43
22 23 24 25 26 29 33 36 39 41 42 44 45 46 45 45 45 45 45 45 44 43 44 46 47 48 47 46 46 47 47 48 48 49 50 49 45 43 43 43 44 43 43

GFSGL_500_spd_099.txt.gz
Wind_Speed
45 42 43 45 47 46 46 48 57 56 56 52 49 47 48 47 49 51 50 47 44 44 44 40 42 41 41 40 40 40 41 40 35 36 37 39 40 38 35 31 29 28 27
33 34 33 33 36 38 39 45 46 52 57 54 52 53 51 49 51 47 48 48 45 44 43 43 43 43 43 41 39 37 36 34 35 36 37 36 35 36 31 29 28 28 30
30 30 33 31 30 36 36 39 46 44 51 52 54 61 52 54 51 52 55 51 47 46 44 41 39 37 35 36 36 36 35 36 37 36 37 35 33 31 30 26 28 29 28
31 30 29 30 31 33 34 38 42 42 43 47 48 46 40 44 46 47 44 47 47 47 45 43 41 40 38 38 38 38 38 38 38 35 34 32 31 32 28 26 27 30 29
23 25 25 25 27 28 31 33 36 38 39 40 45 49 45 47 52 47 49 51 50 50 49 49 47 44 44 42 40 40 41 39 38 36 35 37 36 28 25 27 27 29 29
23 25 28 30 30 32 34 35 36 38 39 39 42 43 45 46 47 48 48 50 52 53 51 51 49 46 43 43 41 42 42 40 39 37 35 35 32 26 26 28 27 29 28
27 28 28 30 32 34 35 37 39 41 43 43 43 41 42 44 45 45 45 46 43 40 41 42 41 43 44 43 44 44 42 39 36 33 33 33 27 27 28 27 27 28 26
29 29 30 32 35 36 37 39 42 42 42 40 40 40 40 42 43 44 44 44 42 40 42 41 41 42 40 39 40 40 37 35 34 33 33 28 27 26 27 27 27 26 25
31 31 32 34 36 36 37 37 37 37 37 38 39 38 38 40 41 44 43 43 41 42 45 41 37 34 33 33 30 29 29 29 31 30 28 29 28 27 26 27 26 25 26
33 32 33 34 36 37 37 37 35 34 37 38 38 37 37 38 35 33 37 43 43 40 41 45 41 42 39 33 36 34 32 30 29 30 29 28 28 27 26 27 26 26 27
36 34 33 34 34 36 35 35 36 34 32 33 34 34 37 37 35 36 35 34 36 34 35 42 44 39 36 37 40 37 29 30 32 29 25 28 28 25 26 26 26 26 27
35 34 33 33 34 35 34 32 31 32 31 30 29 30 30 32 37 41 41 40 36 34 36 35 34 35 35 36 33 30 31 29 28 26 27 28 26 26 26 26 26 27 26
34 34 34 34 35 34 32 29 28 29 30 30 30 31 32 33 33 31 30 34 37 38 37 37 38 38 35 32 33 33 31 28 25 28 28 26 25 26 26 26 27 26 26
34 34 33 35 34 33 33 33 32 31 30 31 30 30 30 30 31 31 32 32 33 31 33 33 36 36 33 34 32 31 30 26 29 29 28 25 26 27 26 27 27 27 28
32 32 32 33 33 33 34 33 32 30 30 30 31 30 30 30 30 31 31 32 32 32 31 34 36 32 32 32 34 30 28 30 31 30 27 26 27 26 25 27 29 31 32
31 31 31 32 31 31 31 30 30 29 29 29 30 31 31 28 27 26 27 28 28 30 30 32 32 33 33 35 33 31 30 33 33 30 26 26 26 24 26 30 32 34 35
31 30 31 31 31 30 30 30 30 29 28 28 27 27 27 28 27 25 25 27 26 27 29 29 31 33 35 37 35 34 34 35 32 28 28 28 26 25 27 30 32 33 33
31 32 32 32 31 30 29 28 27 27 28 28 26 26 26 25 25 26 24 23 26 28 29 30 31 31 32 32 33 35 36 35 31 30 32 30 27 28 31 34 34 32 33
29 30 29 26 26 26 27 28 28 28 28 28 27 26 25 24 23 25 25 24 24 26 27 28 29 31 32 31 33 37 37 35 33 34 34 33 31 31 34 36 34 34 36
26 25 23 25 26 25 25 25 26 28 29 29 30 29 27 25 26 23 25 24 24 25 25 27 28 29 30 33 35 37 37 37 37 36 36 36 36 36 37 35 36 37 38
30 30 29 26 26 26 27 27 27 27 26 27 30 30 31 29 27 27 27 25 26 27 27 27 27 29 32 35 36 37 39 39 38 38 38 39 39 37 36 36 37 38 40
33 32 31 31 31 32 32 32 33 32 31 29 28 28 29 30 30 30 29 28 29 28 28 29 30 30 30 30 34 37 40 40 39 40 40 40 39 38 38 39 39 41 40
34 35 35 36 36 37 38 37 36 35 35 35 35 34 33 31 30 30 32 34 33 33 32 32 31 31 31 32 34 35 36 38 40 40 39 39 39 41 41 40 41 42 41
35 36 37 38 38 38 39 40 40 40 40 40 40 40 40 40 39 38 36 34 34 37 38 38 37 35 34 33 34 35 37 39 40 39 40 40 41 41 42 42 42 42 43
33 33 34 34 34 34 34 35 36 37 39 40 41 42 42 42 42 41 40 40 40 40 38 38 39 41 42 42 42 40 40 40 40 41 42 42 42 43 43 44 45 44 43
28 27 26 25 26 26 26 27 28 29 30 31 32 33 36 39 41 42 43 44 44 44 43 44 44 44 44 44 45 47 48 47 46 44 45 46 47 47 46 46 44 43 43

GFSGL_500_spd_102.txt.gz
Wind_Speed
40 43 47 48 49 52 55 53 51 52 53 53 58 62 59 58 61 58 55 49 52 48 44 44 45 45 45 44 42 42 41 43 44 43 40 38 36 36 34 34 33 34 29
44 44 47 50 53 53 47 44 44 44 45 49 49 49 53 58 58 61 50 49 48 48 47 47 46 45 46 47 45 45 47 45 39 35 35 35 37 37 36 34 34 30 29
39 44 45 45 42 40 37 35 35 35 38 41 42 44 45 49 53 58 61 59 54 54 54 50 48 46 47 46 46 42 40 38 37 37 36 37 37 37 36 34 34 30 27
40 35 32 32 31 30 31 34 34 36 39 39 39 41 41 43 47 48 50 45 45 47 43 42 45 46 45 44 44 42 42 39 40 41 40 41 38 34 34 32 36 31 27
31 28 28 29 30 30 31 32 32 32 34 36 38 39 40 41 43 46 47 48 46 50 46 45 45 45 47 47 47 45 45 44 44 44 44 43 39 35 36 36 35 28 28
31 30 30 29 28 27 28 31 32 34 36 35 36 38 40 43 43 43 43 46 47 48 50 49 48 50 50 50 50 48 48 47 47 47 45 44 42 38 35 32 31 29 28
33 33 31 31 30 31 32 33 35 36 36 36 39 42 44 44 45 43 41 40 41 44 46 45 44 44 44 44 44 46 48 46 45 46 43 40 39 33 31 35 32 30 28
35 34 32 32 33 34 35 35 34 35 37 38 40 41 43 42 40 40 40 41 41 42 43 43 45 44 42 42 43 40 42 43 41 41 40 38 34 37 31 30 31 28 27
37 37 36 36 36 36 36 35 34 36 38 38 39 40 39 39 40 41 40 40 37 36 38 41 42 43 39 39 41 38 34 35 35 33 32 32 32 32 31 32 28 27 26
38 38 38 39 38 39 37 36 36 38 38 39 39 37 37 37 39 39 39 39 37 35 33 32 36 44 41 41 37 43 39 41 36 39 37 33 31 31 33 30 26 26 26
41 40 40 41 41 40 39 38 37 38 38 39 37 36 34 34 35 34 34 38 41 37 36 34 34 35 37 39 38 38 40 37 37 39 36 34 33 33 30 25 26 26 26
42 43 43 44 42 39 39 38 38 38 38 37 35 32 32 34 35 35 34 36 34 35 40 39 36 37 35 38 34 33 36 38 39 35 37 32 31 32 29 27 26 25 25
37 37 37 38 38 38 38 39 38 38 38 36 36 36 36 35 34 33 32 32 33 32 31 33 38 40 40 38 38 38 35 37 36 35 33 31 31 30 28 26 25 25 26
34 35 36 37 37 37 38 38 37 38 38 38 38 37 35 33 34 33 33 32 34 33 34 35 35 36 37 38 38 38 38 35 35 38 33 35 32 30 29 26 25 26 27
34 36 36 36 36 34 33 34 34 35 35 36 36 34 35 35 35 34 33 32 31 32 32 33 31 33 32 34 35 37 35 35 38 35 33 33 31 30 28 26 27 27 26
33 34 33 34 33 32 33 34 35 35 36 35 35 34 33 32 32 31 32 31 30 29 28 28 27 29 31 31 34 33 32 36 36 33 33 35 31 27 27 28 27 26 27
33 33 33 34 35 35 35 35 36 34 34 33 34 33 31 30 31 30 29 29 29 28 26 27 28 28 32 31 31 33 36 37 34 34 36 34 29 28 29 29 27 27 28
33 35 35 34 35 36 36 35 34 34 32 32 32 31 31 30 29 29 29 29 28 27 28 27 27 28 29 30 31 32 33 34 36 35 35 33 30 31 31 32 29 29 31
33 35 35 34 33 33 32 31 31 31 31 32 32 31 30 30 29 29 28 28 28 27 28 28 28 27 27 28 29 30 31 32 32 31 34 35 34 35 34 34 33 32 34
35 34 34 33 33 31 30 30 30 28 27 28 28 28 29 29 30 30 29 29 30 29 28 28 28 28 28 27 27 30 32 32 32 34 38 39 37 37 36 37 37 39 39
37 37 36 37 34 33 33 33 32 30 30 30 31 31 31 29 28 30 31 31 31 30 31 29 28 28 28 29 29 29 29 32 34 38 40 39 38 38 41 41 41 40 42
36 37 37 38 36 36 36 35 35 36 35 34 35 35 35 34 33 31 29 30 31 33 33 32 33 32 32 30 29 30 31 31 31 31 32 36 37 37 41 43 42 43 43
30 31 33 34 34 36 38 39 39 40 39 40 40 39 39 38 38 38 37 36 34 33 33 35 37 36 35 34 33 32 33 33 34 33 32 34 38 40 40 40 43 45 42
34 34 35 36 35 35 37 38 39 40 41 41 41 41 42 42 42 43 43 42 41 40 39 38 36 36 39 40 39 36 35 34 35 35 36 37 38 38 40 43 44 42 41
33 33 33 33 33 34 35 34 35 35 34 33 33 34 35 36 37 39 41 42 42 42 42 41 40 39 40 40 39 40 41 43 41 40 38 38 40 42 43 43 42 42 42
31 31 30 29 30 31 31 31 31 30 30 30 30 30 30 30 32 33 35 36 36 37 39 41 43 43 43 43 43 43 43 44 44 44 45 47 46 45 44 42 43 45 46

GFSGL_500_spd_105.txt.gz
Wind_Speed
46 47 45 43 44 43 41 40 45 49 53 55 58 60 60 58 58 56 56 54 55 53 50 53 52 51 47 45 42 43 43 47 44 45 48 44 45 45 40 35 33 34 34
49 47 48 45 43 41 43 44 47 53 56 58 56 51 49 48 51 49 49 49 48 51 55 57 56 52 51 50 50 50 50 48 48 47 46 45 43 41 38 36 36 37 36
48 45 47 45 43 43 42 46 53 54 51 42 37 35 35 37 40 42 46 51 52 52 53 55 57 56 53 50 53 51 50 50 48 46 44 41 42 41 40 40 39 39 36
53 50 49 46 44 42 44 49 49 38 31 30 34 37 38 37 40 40 40 40 41 44 47 49 46 45 45 47 47 47 48 47 45 44 45 43 43 44 43 42 41 39 36
49 50 46 44 45 44 46 37 32 31 30 30 31 33 37 38 38 39 39 41 43 45 45 47 50 50 50 47 48 49 46 45 44 46 48 46 43 44 44 46 42 40 37
44 43 43 44 44 43 37 33 33 31 31 31 32 35 37 38 38 40 43 45 47 48 47 46 46 48 50 51 50 51 51 49 48 49 48 48 49 46 45 44 42 39 39
47 46 47 44 45 41 38 37 34 34 34 35 36 39 40 42 42 42 42 43 44 43 43 43 42 43 44 47 48 49 48 50 48 45 44 45 44 44 45 44 37 35 34
41 41 44 47 44 41 40 37 37 38 38 40 39 40 40 41 42 43 44 43 41 40 41 41 42 42 41 42 45 45 45 45 40 37 42 43 40 41 36 37 33 32 36
42 43 44 43 43 43 41 40 40 39 40 40 41 40 41 41 41 43 44 42 40 40 43 42 40 39 36 36 38 40 42 41 36 38 35 35 37 35 35 34 36 37 27
40 42 42 42 44 45 44 43 42 42 41 41 42 42 40 41 41 41 41 39 37 37 40 40 40 40 35 34 34 34 40 36 39 39 44 38 37 35 37 32 34 29 32
41 42 43 44 45 45 44 44 44 45 44 43 44 43 43 42 43 42 41 38 38 38 37 38 37 37 39 36 36 36 35 36 42 40 35 35 34 34 36 36 31 34 34
42 43 44 45 46 45 45 46 46 46 45 46 45 44 44 44 43 44 43 42 40 38 37 35 35 35 33 37 38 36 40 37 38 35 33 35 34 34 37 34 34 32 33
37 39 42 42 41 43 44 46 45 44 44 43 43 44 45 45 44 44 43 41 39 38 38 36 36 34 33 32 34 39 41 39 37 36 33 33 33 34 33 29 32 35 32
38 38 38 39 42 43 44 42 42 42 42 42 42 43 43 42 42 41 41 40 39 41 39 36 35 34 33 34 34 33 36 37 36 36 37 35 32 33 32 32 33 30 30
36 37 37 38 38 39 40 40 40 40 39 38 38 39 38 39 39 37 38 38 39 39 38 35 34 32 32 31 31 31 33 32 31 32 38 35 35 34 34 33 33 30 29
35 35 36 36 37 38 38 39 39 38 37 38 39 38 39 39 39 39 38 36 36 36 35 34 33 31 29 29 28 28 31 31 31 33 32 34 36 34 34 36 33 30 29
34 34 36 37 38 39 39 39 39 38 39 37 37 37 36 37 36 34 35 35 34 33 34 33 33 31 30 28 29 29 32 33 33 34 37 36 37 35 37 35 32 30 30
34 34 35 36 37 37 37 37 37 38 39 39 38 37 37 35 33 33 33 33 34 32 32 32 32 30 30 30 30 31 31 30 29 31 31 34 36 36 37 33 33 33 31
38 38 38 37 36 36 37 38 38 38 37 35 35 35 34 32 33 33 33 32 32 32 32 31 31 31 30 30 30 30 31 31 30 29 29 32 35 38 38 35 35 35 34
39 39 40 40 39 38 36 36 37 38 36 33 32 32 32 30 31 31 30 30 31 33 33 33 32 31 30 30 30 29 29 31 31 30 30 31 32 33 34 33 35 37 39
40 40 40 40 41 41 40 39 39 39 36 34 35 35 34 33 33 33 33 33 32 30 30 32 34 34 32 32 31 30 29 29 31 31 31 32 32 33 33 32 34 38 42
38 39 39 39 40 40 40 40 40 41 38 37 38 38 38 38 38 38 38 37 36 35 35 33 32 32 34 34 34 33 32 31 31 32 34 35 34 31 29 29 36 38 40
32 33 34 35 35 35 35 35 37 37 38 39 39 40 40 41 40 42 42 41 40 40 39 39 39 38 38 36 35 37 37 35 34 33 33 34 35 33 31 32 33 35 36
32 32 32 32 32 34 35 36 36 35 35 36 38 39 42 43 43 43 42 41 41 41 41 42 42 42 42 41 41 40 38 38 39 39 37 34 35 37 37 36 36 36 38
34 34 34 34 34 34 34 34 33 33 33 35 36 36 36 37 36 36 36 35 35 36 37 37 38 40 43 43 43 43 43 42 41 40 39 39 40 40 38 37 37 39 40
30 30 31 31 32 32 32 32 31 31 33 34 36 35 35 36 35 35 34 33 33 33 33 33 34 36 37 38 40 42 44 45 46 46 45 44 43 42 42 42 43 43 41

GFSGL_500_spd_108.txt.gz
Wind_Speed
50 49 48 47 45 43 43 42 41 38 37 39 39 44 49 50 52 54 59 59 54 49 48 46 46 46 46 45 47 49 48 47 47 45 41 44 47 46 45 44 43 41 38
46 45 45 45 44 44 44 42 42 40 42 41 42 45 51 52 53 53 49 43 41 42 42 43 44 46 48 48 50 51 52 49 51 51 49 52 52 52 46 43 42 39 37
38 43 45 43 43 43 46 47 44 43 43 43 42 48 50 46 34 32 32 34 36 39 40 40 42 42 43 45 49 49 53 54 54 54 56 54 52 44 44 43 44 44 41
40 44 45 47 47 48 45 45 43 44 43 43 45 49 38 32 29 30 32 34 37 39 40 41 41 42 44 44 46 49 51 51 51 50 51 51 46 49 46 45 47 46 41
41 46 45 46 46 43 41 41 43 43 45 46 43 41 36 31 30 32 34 37 39 40 42 44 45 48 50 49 47 48 48 49 51 52 52 47 45 46 44 44 47 45 40
46 46 46 50 51 48 48 51 51 48 46 47 43 40 36 35 34 36 38 40 42 44 46 48 47 47 45 44 44 45 44 44 46 47 48 47 48 48 47 46 47 45 41
44 46 48 49 49 49 51 50 51 47 48 44 41 41 40 39 38 40 41 42 44 45 47 49 48 47 45 43 42 43 44 43 43 45 45 44 43 41 36 36 38 36 35
46 47 46 47 48 47 45 48 50 50 48 44 45 45 44 42 42 42 43 44 45 45 47 47 47 46 44 42 43 42 41 40 40 40 41 41 38 34 33 32 33 34 35
42 44 46 46 45 47 50 49 46 49 47 46 46 48 47 45 44 44 46 46 46 46 44 45 45 45 43 41 40 40 40 38 38 39 37 37 38 32 36 33 35 32 32
34 36 40 41 41 42 42 44 48 48 47 47 48 47 48 47 46 46 46 47 46 45 44 46 45 44 43 40 41 39 39 37 35 36 38 35 35 34 37 39 38 33 33
38 40 38 39 40 38 40 45 48 46 47 49 49 50 50 48 49 48 48 47 47 47 47 47 47 44 43 39 37 37 37 37 39 34 37 39 34 36 38 27 28 32 32
43 42 44 44 44 44 46 47 45 44 45 45 46 48 49 48 48 46 46 47 47 48 49 51 47 44 40 40 39 37 34 33 37 37 38 34 31 33 30 29 26 27 32
41 45 46 44 46 50 48 49 48 45 42 43 45 45 45 45 44 44 46 48 49 47 47 46 44 42 42 41 38 36 33 32 32 33 37 39 37 32 26 26 27 30 34
37 42 46 48 44 41 40 41 42 43 45 45 44 45 44 44 44 44 46 45 44 43 42 42 42 42 40 39 36 35 34 32 33 30 31 32 32 31 26 29 30 29 30
34 35 37 37 38 39 40 40 41 41 42 43 43 43 42 41 41 42 42 42 42 41 41 42 41 38 36 35 34 33 32 31 28 29 28 26 25 25 28 32 30 30 33
36 37 37 38 38 39 39 40 41 41 41 41 40 39 39 40 40 40 40 41 39 39 38 39 37 36 34 32 32 31 30 30 29 26 25 29 28 29 30 29 32 32 28
36 37 37 37 37 37 37 37 38 39 39 40 40 40 40 42 40 40 39 39 37 36 36 36 36 34 32 31 31 30 29 29 29 29 30 29 30 30 28 30 32 32 31
37 37 37 37 36 37 37 37 38 38 39 39 39 39 39 39 40 39 37 36 35 35 35 34 34 33 33 31 29 29 29 29 30 32 32 31 30 29 28 29 30 31 30
38 39 39 40 40 39 39 39 38 38 38 38 39 39 39 39 39 36 34 32 32 33 32 32 34 34 33 32 31 29 29 28 29 30 32 33 33 32 31 30 30 31 30
37 38 39 40 41 42 42 41 41 41 40 39 38 38 37 37 36 34 33 33 32 32 32 31 31 31 32 33 33 32 30 28 28 29 30 30 32 32 32 32 31 30 30
39 38 38 39 40 41 42 43 44 43 43 42 41 40 38 38 39 36 36 36 34 33 33 33 33 33 33 31 30 30 32 32 30 28 29 31 30 30 31 31 30 31 33
36 37 38 39 40 40 41 41 42 41 41 41 41 41 40 40 39 38 39 40 40 39 38 37 38 37 37 36 35 35 34 31 32 33 31 30 31 32 34 35 34 35 35
40 37 35 35 35 35 36 36 37 38 39 39 38 38 38 39 41 41 38 38 37 38 40 42 42 41 41 40 40 39 38 38 38 36 35 35 34 32 33 34 35 38 38
38 38 37 35 35 34 34 34 34 35 36 36 36 36 35 36 36 36 37 39 40 41 41 40 39 39 39 39 39 41 41 42 42 42 40 39 38 38 40 38 35 34 35
37 38 37 37 37 36 36 36 36 36 36 36 36 35 35 34 34 34 35 36 36 36 36 35 35 35 35 35 36 36 36 37 39 42 44 45 42 41 40 39 40 40 39
34 35 34 33 33 33 34 34 34 35 35 36 35 34 33 33 34 36 36 37 37 38 38 38 38 37 36 35 36 36 36 35 36 37 38 40 43 44 44 44 44 44 43

GFSGL_500_spd_111.txt.gz
Wind_Speed
43 40 43 47 46 42 42 41 36 32 31 32 32 33 34 36 36 38 41 46 45 46 44 40 39 38 38 38 39 40 41 44 45 44 44 47 47 48 47 49 48 51 52
46 47 47 48 48 46 45 42 39 38 37 36 35 36 37 37 39 41 44 47 44 42 36 35 35 37 37 38 40 42 43 44 43 43 43 49 52 50 50 55 55 56 51
45 46 46 48 49 50 47 44 42 40 40 38 37 37 39 40 40 42 46 45 38 33 31 31 33 34 34 35 38 42 44 48 49 47 45 46 47 49 51 48 49 51 50
37 38 40 43 44 44 43 41 40 40 39 38 40 41 42 41 41 42 39 37 35 31 32 34 36 37 38 40 44 46 48 47 46 46 45 45 45 46 47 48 44 47 45
37 37 39 43 42 41 41 41 41 43 42 40 38 39 42 43 42 40 36 37 37 35 35 36 39 39 41 43 46 49 49 48 46 44 42 40 40 40 42 44 42 42 36
39 38 35 34 33 36 39 41 41 42 42 41 43 46 45 43 42 40 39 40 39 37 39 40 41 42 43 46 48 48 48 47 47 45 43 41 41 41 41 41 39 38 37
33 34 35 36 41 41 43 46 47 45 44 46 46 46 46 42 41 42 43 43 40 40 43 45 45 45 47 50 49 46 45 45 45 44 43 41 40 40 40 37 35 32 28
42 43 44 45 44 42 44 46 46 45 45 45 44 45 44 42 45 46 46 46 44 44 47 48 47 47 49 47 46 45 45 45 44 41 41 40 38 38 39 37 35 35 31
46 47 49 49 47 46 46 46 46 48 48 45 44 44 47 44 47 48 48 48 49 48 50 50 50 50 47 47 44 45 46 44 43 42 39 38 36 36 36 34 35 37 34
48 49 50 49 48 50 50 51 51 51 47 44 43 42 43 46 48 49 50 48 50 51 52 51 49 47 47 47 46 47 48 45 40 40 39 36 35 35 33 36 41 29 34
42 42 44 46 44 44 44 45 46 44 42 43 45 44 46 46 46 48 49 51 52 52 51 48 46 46 47 48 49 49 46 42 40 40 38 34 35 37 34 34 37 33 32
38 37 37 37 41 44 46 47 46 45 47 43 41 44 46 46 47 47 48 47 47 48 46 45 46 48 49 50 49 48 45 42 39 38 36 32 29 34 35 36 30 26 27
44 45 46 48 48 44 45 45 45 47 48 50 49 47 47 47 42 45 47 47 48 46 45 45 46 47 46 46 47 44 41 40 36 35 33 33 32 30 30 33 33 26 22
37 40 42 46 48 43 43 48 49 49 49 51 50 46 46 45 43 43 45 46 45 43 43 44 44 42 42 42 42 41 38 36 33 32 32 31 31 28 27 27 28 24 23
33 33 34 35 36 37 40 41 43 44 44 43 41 41 41 42 43 45 44 43 42 42 41 41 39 39 39 39 38 37 35 33 31 30 30 30 29 30 26 24 23 22 24
38 37 37 35 41 39 34 44 42 42 42 41 41 42 41 41 42 41 41 41 41 40 39 39 37 37 36 36 36 35 33 31 30 28 28 28 28 28 26 27 27 28 30
39 40 41 41 41 41 42 42 41 41 40 40 40 40 40 41 41 40 40 41 41 39 39 39 37 35 35 35 33 32 31 29 27 27 27 28 28 28 30 29 30 28 27
41 42 42 42 42 43 43 42 42 41 40 40 40 39 39 39 38 38 39 39 40 38 37 36 34 33 33 33 33 32 31 29 28 27 27 28 27 28 30 32 31 30 30
41 44 45 45 44 44 44 43 42 41 41 40 40 39 38 37 38 39 40 39 39 39 37 34 33 32 31 30 29 28 30 30 29 28 27 26 27 28 29 31 32 34 33
41 41 42 43 44 45 44 45 45 45 44 44 44 43 44 42 42 40 39 39 38 37 37 35 34 32 30 27 27 28 29 29 28 28 28 28 27 26 28 29 30 31 32
39 39 40 41 42 43 44 44 44 45 46 46 46 46 46 46 45 44 42 41 40 39 39 37 38 36 34 33 31 31 32 32 31 30 29 28 29 29 28 28 28 30 31
49 46 43 41 40 41 43 45 46 45 46 47 47 47 46 45 44 44 44 43 42 42 40 40 40 40 39 38 36 37 36 36 36 35 34 33 32 31 31 31 30 30 30
39 44 44 44 45 41 42 42 43 44 45 45 44 44 44 43 43 43 43 43 42 42 44 43 41 40 38 40 41 40 39 38 38 38 37 37 37 36 36 35 35 35 33
42 41 39 40 40 42 43 43 41 40 40 40 40 40 40 40 39 40 39 38 39 40 39 38 38 39 40 39 38 38 36 36 35 35 36 36 37 39 40 39 39 38 38
40 41 40 40 40 39 40 40 41 39 39 39 38 39 39 39 39 39 39 39 38 38 37 36 35 36 36 35 35 34 34 34 33 32 32 33 33 34 34 37 39 41 42
36 38 38 37 37 36 36 37 36 37 37 37 38 38 38 38 38 39 37 36 35 35 36 37 38 38 39 39 39 39 38 38 38 37 37 36 36 36 35 34 36 38 41

GFSGL_500_spd_114.txt.gz
Wind_Speed
28 31 36 39 32 30 25 23 23 23 27 24 28 22 23 26 27 27 28 30 30 32 33 37 36 34 32 31 30 32 32 32 32 34 36 40 44 45 44 45 47 51 52
34 34 36 35 31 32 34 24 26 30 33 33 31 27 28 28 29 30 31 32 32 31 34 38 36 33 29 29 30 31 35 37 37 37 39 41 43 44 45 44 44 47 49
29 31 35 34 31 32 32 32 35 34 36 37 36 32 31 30 31 32 33 33 34 35 36 36 35 34 33 32 32 32 35 38 39 41 42 43 44 45 44 43 42 43 44
33 33 29 29 28 30 32 32 32 35 37 36 35 35 33 33 35 37 37 36 36 36 38 39 37 37 35 32 33 34 35 40 43 44 44 42 42 44 45 43 41 40 40
29 30 31 31 31 30 29 31 34 35 37 37 37 36 37 37 38 37 36 38 39 39 41 42 38 39 37 38 37 40 39 42 45 45 43 43 45 44 43 42 43 42 41
36 27 32 30 30 31 32 34 36 36 34 36 38 39 39 39 38 38 41 43 43 40 43 43 41 41 41 40 41 44 44 45 46 45 44 43 44 44 43 42 42 41 40
36 37 37 36 37 36 32 31 35 36 38 40 41 41 41 42 42 44 45 45 43 42 43 44 43 44 43 43 45 45 46 47 47 45 45 45 44 43 43 41 41 39 37
28 31 32 33 36 37 36 35 37 39 41 42 43 44 44 44 45 46 45 43 45 44 43 45 46 45 43 47 48 48 47 47 47 47 46 47 46 43 41 41 38 35 36
36 38 38 41 41 42 45 45 43 42 43 43 44 45 45 44 45 45 44 43 45 42 44 44 44 44 45 48 50 50 46 45 47 49 48 47 46 43 41 41 36 34 34
41 41 42 44 44 43 44 45 46 45 45 45 44 45 43 42 43 45 41 40 45 47 45 45 44 44 46 51 46 46 47 47 48 49 48 45 43 43 40 39 36 36 32
43 44 45 46 46 44 43 44 44 44 45 42 40 40 39 41 41 43 44 45 46 46 45 46 45 45 44 43 46 46 46 47 47 49 47 44 41 40 38 36 35 35 34
46 44 43 42 43 44 44 44 43 43 44 44 44 44 45 45 45 47 47 46 47 47 50 49 48 47 46 44 44 45 45 45 45 47 45 42 39 37 36 34 35 33 33
47 46 45 46 45 42 41 41 41 42 45 47 48 50 50 50 47 47 48 51 51 53 49 50 49 48 45 43 44 44 43 42 43 43 41 39 37 35 35 34 34 32 31
40 42 42 44 47 50 51 50 51 52 52 51 51 51 52 54 56 59 57 54 51 50 48 44 45 44 42 43 42 41 40 39 39 39 37 36 35 34 34 30 31 30 29
38 38 39 41 43 44 46 49 51 52 53 51 51 50 51 50 53 55 54 47 44 43 44 44 44 42 41 41 39 39 38 37 37 36 36 33 33 33 32 29 29 30 26
41 40 41 43 41 37 34 37 44 44 47 45 46 49 50 50 47 47 47 44 42 41 42 43 43 41 41 40 39 37 36 36 35 33 33 32 31 32 31 29 29 29 27
44 46 47 48 47 47 50 50 50 43 42 38 44 46 47 46 45 43 41 40 40 42 43 42 41 40 39 38 36 35 35 34 34 32 30 30 30 30 31 30 30 30 31
46 48 48 48 49 51 51 51 51 51 49 51 53 50 47 45 43 42 41 42 42 41 42 42 41 40 39 37 35 35 34 34 32 30 29 29 29 29 31 30 30 29 30
41 42 44 46 49 51 52 53 53 53 52 51 50 48 47 45 44 43 42 41 42 41 42 42 41 41 39 37 36 35 34 33 32 29 28 27 28 30 29 30 28 28 29
42 43 43 45 46 46 48 50 53 54 55 54 51 50 48 47 46 46 46 45 44 45 43 42 41 41 40 38 38 36 34 33 31 29 29 29 29 28 29 30 30 29 28
47 46 40 43 45 46 46 47 48 49 49 51 53 52 51 50 49 49 49 48 47 46 46 45 44 42 41 41 40 39 38 36 35 33 33 32 33 32 32 31 31 32 32
43 48 47 45 49 50 48 46 44 43 45 47 47 49 49 49 49 48 48 49 49 48 47 46 45 44 44 43 43 43 42 40 40 39 38 38 38 37 37 37 36 35 33
39 41 46 46 41 43 45 46 49 49 47 44 45 46 47 48 48 48 48 48 47 46 45 44 43 43 44 45 44 44 42 42 41 41 43 41 40 40 39 40 39 39 39
38 43 43 46 50 46 44 43 43 45 47 48 46 46 45 44 44 44 44 44 43 43 43 43 42 42 42 41 41 42 42 42 42 42 40 38 37 36 36 37 37 38 40
39 43 45 41 43 45 47 44 46 46 46 46 45 47 48 47 45 42 42 42 42 42 42 42 42 42 42 40 39 38 37 38 38 37 36 36 35 35 35 35 35 36 37
34 40 38 38 39 38 41 42 43 43 43 43 42 41 41 40 40 41 41 40 40 40 41 41 41 39 37 36 36 36 37 39 40 40 40 41 40 40 40 40 39 39 39

GFSGL_500_spd_117.txt.gz
Wind_Speed
30 37 44 51 52 67 53 49 47 45 58 56 55 39 53 45 32 28 23 22 22 25 24 26 26 26 24 24 26 28 28 29 29 29 30 32 35 38 42 44 44 44 45
23 29 24 23 39 30 22 40 21 24 22 31 24 26 20 19 26 25 25 25 26 27 27 28 28 28 27 28 29 30 31 34 32 31 31 34 34 37 40 41 42 44 44
19 18 15 15 20 20 21 12 14 23 19 17 17 18 25 25 21 24 26 27 30 30 31 31 30 30 29 32 33 34 36 37 36 34 35 36 37 38 39 41 43 43 42
24 19 17 22 22 22 19 17 18 19 21 23 22 29 31 29 28 28 30 32 33 34 34 32 32 33 33 34 35 38 40 40 40 38 39 38 38 38 39 44 44 43 43
27 28 29 26 29 24 21 21 21 24 26 31 34 33 31 30 29 30 31 32 35 36 34 34 36 37 38 37 38 42 43 41 43 43 43 43 42 40 39 41 44 46 44
31 32 32 30 31 30 27 27 27 31 34 32 34 32 32 33 33 33 34 35 37 37 38 39 40 41 41 42 42 46 45 45 45 45 46 44 43 40 39 41 43 44 43
28 30 30 33 32 30 29 29 30 31 33 34 36 34 35 34 33 34 37 38 39 41 42 43 44 44 44 45 45 46 47 48 47 48 47 46 42 41 40 42 45 44 44
34 33 35 32 29 30 31 31 33 34 34 34 35 37 38 38 39 39 40 42 43 45 47 47 46 44 46 46 46 47 48 47 46 47 47 45 45 42 41 42 44 43 42
22 23 25 29 31 32 31 33 35 37 38 37 37 39 41 42 42 42 44 47 47 48 48 47 45 46 45 47 47 46 47 46 47 47 46 45 44 42 42 43 43 42 40
31 32 34 35 37 39 40 40 41 42 45 44 44 46 48 49 49 48 46 46 48 48 47 47 48 45 44 45 46 45 43 44 46 43 43 45 44 43 42 44 43 41 38
36 37 39 41 43 46 47 48 49 49 49 49 49 48 49 50 50 48 47 47 45 43 43 44 45 46 44 46 46 47 44 43 43 43 42 44 43 42 43 43 41 38 37
42 43 42 43 46 47 49 49 49 50 49 50 48 46 46 46 45 45 44 42 42 45 46 48 47 43 45 45 48 47 47 45 42 41 41 41 42 41 42 41 38 37 36
40 43 45 45 45 45 46 46 45 43 44 45 45 45 45 44 42 43 45 46 46 47 47 46 46 51 52 51 50 52 46 43 40 38 39 39 38 38 39 38 36 35 34
41 41 42 46 47 47 48 48 46 46 44 44 43 42 42 43 44 46 47 48 48 48 51 52 52 49 46 43 43 42 41 42 40 36 37 37 36 36 36 35 35 34 32
40 40 41 42 42 42 42 43 45 47 48 48 47 48 48 49 48 49 49 48 48 48 47 47 45 44 43 43 42 41 40 40 39 37 37 36 35 35 35 33 33 32 31
45 45 45 45 45 45 43 41 37 36 37 40 45 42 40 38 42 42 43 47 46 46 46 45 44 44 40 39 40 40 40 39 38 36 36 36 35 35 33 31 31 31 29
47 49 49 49 50 51 49 47 51 44 50 44 39 38 36 39 41 45 47 47 47 46 44 40 42 41 39 40 40 39 38 37 37 37 37 36 35 34 33 30 29 30 30
43 47 49 51 51 51 51 52 53 56 57 56 55 52 54 50 46 47 50 52 48 45 44 42 42 41 40 40 39 39 38 38 38 38 37 36 35 33 32 31 29 29 29
33 36 44 48 50 50 50 52 54 55 56 57 56 56 54 54 55 55 57 53 48 46 45 43 42 41 40 40 40 40 39 39 39 39 38 37 36 34 32 30 29 29 29
35 34 36 42 48 50 51 52 50 49 50 50 52 54 55 55 54 54 52 50 48 47 46 44 43 43 43 43 42 42 41 40 40 40 39 37 36 34 32 31 31 31 29
38 36 36 39 42 46 51 51 47 48 51 51 51 51 51 51 52 53 54 53 51 50 49 48 47 46 47 46 45 45 45 43 42 42 42 40 38 37 36 34 34 35 35
38 39 37 38 41 43 45 47 49 53 52 50 47 46 45 47 49 50 50 49 51 54 54 52 52 50 48 47 47 47 47 46 46 44 43 44 43 41 39 40 40 39 40
42 35 36 39 40 43 46 46 45 47 48 50 49 49 48 47 46 46 47 48 48 48 49 50 50 49 48 48 47 46 46 45 46 45 43 42 44 45 43 42 43 44 43
41 37 33 37 40 43 48 49 48 46 47 49 46 46 46 47 49 48 46 44 45 46 47 47 47 46 46 45 45 44 44 43 43 44 43 42 43 43 44 43 42 40 39
42 39 37 33 34 38 43 42 41 42 43 44 49 47 45 44 43 44 46 46 46 44 43 43 42 42 42 43 43 43 43 43 43 43 43 41 39 38 38 37 36 35 35
40 38 35 34 35 37 39 39 38 37 39 40 41 45 45 46 44 42 42 41 41 41 42 43 42 41 42 43 43 44 44 43 43 42 39 38 38 38 39 39 39 39 39